Date StartTime U_cm/s V_cm/s W_cm/s Ustd_cm/s Vstd_cm/s Wstd_cm/s Uvar_(cm/s)^2 Vvar_(cm/s)^2 Wvar_(cm/s)^2 KE_(m/s)^2 TurbulentKE_(m/s)^2 HorizWindSpeed_cm/s FrictionSpeec_cm/s DragCoef SpeedOfSound_m/s SonicTemperature_C Pressure_mb 
01/16/2015  00:00:00       13.623       46.110        7.154       27.689       25.286       17.016      766.665      639.358      289.536        0.203        0.085       48.081       13.995        0.085      334.725        4.887      866.320
01/16/2015  00:01:00       51.467       66.339       -4.519       25.975       19.210       16.236      674.694      369.009      263.615        0.419        0.065       83.962        7.770        0.009      334.849        5.093      866.233
01/16/2015  00:02:00       84.351       46.058       17.310       23.573       25.539       15.975      555.674      652.228      255.192        0.550        0.073       96.106       10.855        0.013      335.244        5.747      866.187
01/16/2015  00:03:00       16.242       50.804       -5.632       25.897       20.632       14.183      670.678      425.681      201.160        0.209        0.065       53.337       16.462        0.095      335.032        5.397      866.169
01/16/2015  00:04:00      -68.510       36.462      -16.426       45.924       32.539       11.605     2109.045     1058.790      134.683        0.480        0.165       77.608       12.452        0.026      334.999        5.340      866.201
01/16/2015  00:05:00     -108.973      -26.078        0.687       49.154       54.924       34.820     2416.100     3016.648     1212.400        0.960        0.332      112.050       27.397        0.060      334.594        4.670      866.246
01/16/2015  00:06:00     -202.488      -29.171      -21.099       66.814       62.959       36.414     4464.054     3963.856     1326.000        2.602        0.488      204.579       33.273        0.026      334.421        4.379      866.288
01/16/2015  00:07:00     -177.002        2.216      -10.080       50.936       74.174       33.242     2594.475     5501.789     1105.003        2.032        0.460      177.016       34.532        0.038      334.404        4.352      866.270
01/16/2015  00:08:00     -105.076       95.921      -20.839       35.752       46.413       22.639     1278.181     2154.125      512.540        1.231        0.197      142.273       19.013        0.018      334.508        4.528      866.181
01/16/2015  00:09:00      -63.757       77.511       -9.604       46.370       31.635       23.963     2150.141     1000.744      574.229        0.694        0.186      100.364       28.560        0.081      334.969        5.292      866.133
01/16/2015  00:10:00      -83.031      108.390      -23.579       26.494       21.548       14.380      701.921      464.328      206.797        1.029        0.069      136.537       13.076        0.009      334.837        5.073      866.176
01/16/2015  00:11:00     -117.108       59.412      -19.816       14.397       31.413       11.869      207.276      986.766      140.879        0.949        0.067      131.316       10.951        0.007      334.698        4.842      866.235
01/16/2015  00:12:00     -139.017        4.671      -15.585       53.450       40.847       17.929     2856.876     1668.493      321.460        1.222        0.242      139.096       14.825        0.011      334.528        4.559      866.282
01/16/2015  00:13:00     -167.864       54.321      -16.104       56.107       30.028       18.876     3148.003      901.677      356.294        1.790        0.220      176.435       17.198        0.010      334.561        4.611      866.307
01/16/2015  00:14:00     -100.773       77.954      -14.201       51.911       54.266       34.510     2694.722     2944.799     1190.965        1.163        0.342      127.405       27.509        0.047      334.716        4.871      866.337
01/16/2015  00:15:00      -94.155       91.451      -21.957       43.173       37.883       29.143     1863.932     1435.125      849.305        1.093        0.207      131.257       25.122        0.037      334.766        4.955      866.357
01/16/2015  00:16:00      -91.862      -30.426       -6.963       35.916       56.923       25.578     1289.945     3240.222      654.246        0.730        0.259       96.770       11.230        0.013      334.548        4.593      866.360
01/16/2015  00:17:00      -72.865       83.265      -19.196       35.982       40.361       22.585     1294.721     1628.995      510.082        0.802        0.172      110.645       18.711        0.029      334.808        5.024      866.275
01/16/2015  00:18:00      -51.099      120.441      -12.855       26.269       35.698       19.985      690.068     1274.347      399.409        0.982        0.118      130.833       18.066        0.019      334.988        5.325      866.156
01/16/2015  00:19:00      -69.857       75.830      -12.288       31.798       41.771       25.341     1011.097     1744.781      642.186        0.709        0.170      103.103       19.025        0.034      335.061        5.444      866.143
01/16/2015  00:20:00      -84.421       -3.050      -16.958       23.381       27.621       15.171      546.688      762.938      230.150        0.448        0.077       84.477       10.934        0.017      334.778        4.975      866.144
01/16/2015  00:21:00      -76.687      -23.786      -11.789       53.491       27.766       17.270     2861.319      770.933      298.251        0.526        0.197       80.291       18.061        0.051      334.855        5.104      866.125
01/16/2015  00:22:00       19.365        4.736        3.361       23.406       15.166       16.288      547.819      230.009      265.284        0.073        0.052       19.936        8.588        0.186      335.069        5.458      866.032
01/16/2015  00:23:00      -43.609      -39.464       -5.872       52.365       24.565       18.511     2742.121      603.447      342.640        0.359        0.184       58.815       19.850        0.114      335.067        5.457      866.003
01/16/2015  00:24:00     -199.031     -123.856      -11.281       73.476       45.874       33.954     5398.782     2104.419     1152.879        3.187        0.433      234.422        8.231        0.001      334.905        5.183      866.122
01/16/2015  00:25:00     -187.373      -48.192        5.948       97.577       79.592       51.374     9521.248     6334.881     2639.273        2.798        0.925      193.471       54.584        0.080      334.863        5.114      866.232
01/16/2015  00:26:00      -54.273        2.508       20.126       76.721       42.835       29.123     5886.150     1834.818      848.166        0.596        0.428       54.331       32.467        0.357      334.770        4.962      866.216
01/16/2015  00:27:00       44.556       77.236       53.660       36.090       65.321       62.002     1302.479     4266.850     3844.211        1.012        0.471       89.167       54.476        0.373      334.888        5.158      866.103
01/16/2015  00:28:00      -11.317       68.608       98.556       18.266       58.713       42.478      333.652     3447.170     1804.371        1.007        0.279       69.535       42.329        0.371      334.985        5.319      866.012
01/16/2015  00:29:00      -75.348      -37.313      -13.350       63.077       30.229       19.266     3978.734      913.778      371.182        0.625        0.263       84.081       13.521        0.026      335.169        5.622      866.087
01/16/2015  00:30:00     -160.946      -38.530        0.751       68.031       46.623       28.378     4628.153     2173.739      805.296        1.750        0.380      165.494       29.913        0.033      335.046        5.419      866.176
01/16/2015  00:31:00     -117.152       21.595       -7.639       57.051       39.324       27.430     3254.862     1546.401      752.382        0.990        0.278      119.126       31.235        0.069      334.921        5.213      866.161
01/16/2015  00:32:00      -36.281       11.415      -12.193       32.873       42.834       20.752     1080.664     1834.771      430.635        0.247        0.167       38.034       13.784        0.131      334.949        5.260      866.099
01/16/2015  00:33:00      -62.189      -86.541        0.393       51.769       38.146       26.500     2679.978     1455.098      702.237        0.810        0.242      106.569       22.917        0.046      334.990        5.328      866.142
01/16/2015  00:34:00     -148.868      -91.567      -21.854       41.345       38.967       27.841     1709.416     1518.443      775.137        1.751        0.200      174.775       24.535        0.020      335.122        5.546      866.196
01/16/2015  00:35:00     -194.391      -86.137      -13.442       47.313       37.643       23.557     2238.560     1417.027      554.936        2.480        0.211      212.620       10.748        0.003      335.037        5.403      866.192
01/16/2015  00:36:00     -197.697       42.634      -14.827       58.745       43.430       29.866     3450.991     1886.128      892.003        2.367        0.311      202.242       25.886        0.016      334.830        5.059      866.080
01/16/2015  00:37:00     -142.870      115.457      -28.083       58.038       33.635       29.742     3368.374     1131.318      884.589        1.996        0.269      183.691       24.749        0.018      335.091        5.494      865.918
01/16/2015  00:38:00      -69.205       17.248       -6.165       33.370       43.256       23.373     1113.574     1871.115      546.307        0.433        0.177       71.322       20.526        0.083      335.215        5.701      865.913
01/16/2015  00:39:00      -54.259      -44.674        5.219       47.652       29.419       22.096     2270.707      865.490      488.221        0.430        0.181       70.284       25.492        0.132      335.036        5.404      865.951
01/16/2015  00:40:00     -104.668      -26.698       -3.133       37.047       25.995       19.123     1372.508      675.739      365.699        0.705        0.121      108.019       13.346        0.015      334.912        5.197      865.926
01/16/2015  00:41:00      -67.780      -21.338        3.490       55.504       37.727       21.428     3080.653     1423.311      459.166        0.501        0.248       71.059       23.843        0.113      334.834        5.068      865.880
01/16/2015  00:42:00        2.444      -15.098        9.165       20.292       24.652       15.892      411.748      607.719      252.561        0.079        0.064       15.294       14.028        0.841      334.888        5.158      865.819
01/16/2015  00:43:00      -69.742      -40.577      -15.148       78.777       42.108       16.926     6205.783     1773.092      286.495        0.750        0.413       80.687        8.115        0.010      334.924        5.216      865.868
01/16/2015  00:44:00     -141.957      -70.054      -16.880       31.842       36.796       22.299     1013.883     1353.977      497.224        1.410        0.143      158.301       15.521        0.010      334.822        5.048      865.908
01/16/2015  00:45:00      -90.069      -55.325       -1.462       26.948       24.542       14.399      726.209      602.303      207.342        0.636        0.077      105.704       10.647        0.010      334.821        5.047      865.880
01/16/2015  00:46:00      -66.607      -27.997       -2.674       36.690       18.676       15.678     1346.166      348.776      245.803        0.358        0.097       72.252       11.301        0.024      334.866        5.122      865.856
01/16/2015  00:47:00      -94.691      -35.607       -2.018       30.184       27.991       17.245      911.091      783.524      297.402        0.611        0.100      101.164       11.942        0.014      334.830        5.061      865.858
01/16/2015  00:48:00      -59.808      -24.595       -0.068       32.445       24.884       12.279     1052.709      619.217      150.780        0.300        0.091       64.668        6.330        0.010      334.769        4.960      865.838
01/16/2015  00:49:00      -45.748       -4.913       -3.725       13.630       20.344       10.302      185.765      413.876      106.128        0.142        0.035       46.011        7.866        0.029      334.777        4.974      865.844
01/16/2015  00:50:00      -41.697        5.317       -5.070       13.014       11.515       10.609      169.353      132.590      112.557        0.110        0.021       42.034        6.269        0.022      334.820        5.044      865.838
01/16/2015  00:51:00     -109.092        4.909      -12.231       25.291       12.199        7.623      639.651      148.821       58.103        0.646        0.042      109.203        6.951        0.004      334.836        5.070      865.828
01/16/2015  00:52:00     -167.064       -1.356      -10.630       34.955       28.360       16.110     1221.869      804.294      259.529        1.515        0.114      167.069       12.535        0.006      334.703        4.849      865.851
01/16/2015  00:53:00     -197.804       30.150      -16.500       26.484       24.273       15.455      701.426      589.186      238.855        2.092        0.076      200.089       11.090        0.003      334.705        4.852      865.827
01/16/2015  00:54:00     -143.618       41.810      -18.463       36.682       39.425       20.344     1345.552     1554.326      413.896        1.301        0.166      149.580        9.636        0.004      334.703        4.850      865.737
01/16/2015  00:55:00     -208.924       25.476      -19.648       65.419       54.374       36.542     4279.594     2956.543     1335.334        2.663        0.429      210.472       35.204        0.028      334.741        4.910      865.687
01/16/2015  00:56:00     -152.187       -9.296      -20.963       61.716       54.170       32.514     3808.869     2934.374     1057.160        1.574        0.390      152.470       31.323        0.042      334.702        4.847      865.705
01/16/2015  00:57:00      -59.056      -32.075       -5.230       62.255       36.972       32.216     3875.641     1366.913     1037.902        0.541        0.314       67.204       37.440        0.310      334.768        4.959      865.725
01/16/2015  00:58:00        5.710      -29.577       23.431       32.503       26.363       21.287     1056.456      695.021      453.136        0.183        0.110       30.123       19.355        0.413      334.724        4.885      865.745
01/16/2015  00:59:00      -51.180      -18.397       -4.235       38.612       22.384       14.191     1490.856      501.042      201.386        0.258        0.110       54.386       13.710        0.064      334.748        4.925      865.772
01/16/2015  01:00:00      -19.687       -6.521      -11.549       21.907       26.230       20.117      479.898      688.036      404.707        0.107        0.079       20.739       20.491        0.976      334.851        5.097      865.739
01/16/2015  01:01:00       -1.244       56.505       78.715       28.351       39.526       32.803      803.782     1562.317     1076.066        0.642        0.172       56.519       26.519        0.220      334.873        5.132      865.632
01/16/2015  01:02:00       17.968       78.205       75.066       31.095       37.340       21.710      966.903     1394.246      471.316        0.745        0.142       80.242        9.473        0.014      334.929        5.226      865.542
01/16/2015  01:03:00      -15.362      -27.831       20.771       37.859       33.843       21.613     1433.327     1145.320      467.131        0.224        0.152       31.789       15.268        0.231      334.977        5.306      865.555
01/16/2015  01:04:00      -88.718      -46.827        1.658       58.012       43.277       30.349     3365.379     1872.868      921.053        0.811        0.308      100.317       34.708        0.120      334.974        5.301      865.608
01/16/2015  01:05:00     -136.391      -93.769       -7.151       29.048       36.709       22.777      843.773     1347.543      518.782        1.508        0.136      165.515       13.922        0.007      334.844        5.084      865.619
01/16/2015  01:06:00      -82.916      -80.405      -11.010       42.030       36.629       21.456     1766.527     1341.658      460.351        0.851        0.178      115.499        8.191        0.005      334.750        4.929      865.599
01/16/2015  01:07:00       -6.418      -37.678        0.712       34.240       50.369       26.886     1172.388     2537.014      722.851        0.295        0.222       38.220       26.490        0.480      334.795        5.004      865.565
01/16/2015  01:08:00       77.697     -108.669      -18.230       73.553       60.659       53.495     5410.024     3679.457     2861.695        1.506        0.598      133.588       47.200        0.125      334.641        4.745      865.556
01/16/2015  01:09:00      -33.822      -58.565        2.723       61.696       52.287       28.227     3806.359     2733.880      796.779        0.596        0.367       67.630       27.532        0.166      334.719        4.876      865.579
01/16/2015  01:10:00     -104.023       -4.398        4.181       60.952       49.035       30.238     3715.104     2404.386      914.352        0.894        0.352      104.116       30.109        0.084      334.630        4.728      865.581
01/16/2015  01:11:00     -121.310        1.928      -11.242       38.999       26.314       18.156     1520.955      692.441      329.624        0.869        0.127      121.325       19.906        0.027      334.562        4.616      865.558
01/16/2015  01:12:00      -35.787      -39.216       12.039       57.937       27.814       27.556     3356.680      773.614      759.314        0.393        0.244       53.090       32.211        0.368      334.613        4.700      865.562
01/16/2015  01:13:00      -74.419     -103.859       -7.560       52.532       48.223       33.360     2759.599     2325.413     1112.880        1.129        0.310      127.769       33.404        0.068      334.683        4.815      865.586
01/16/2015  01:14:00      -68.792      -66.991        0.226       49.954       42.556       29.992     2495.361     1810.976      899.516        0.721        0.260       96.022       33.285        0.120      334.713        4.867      865.568
01/16/2015  01:15:00      -76.993      -30.229       -5.869       40.300       32.731       24.010     1624.105     1071.337      576.489        0.507        0.164       82.714       16.147        0.038      334.791        4.996      865.521
01/16/2015  01:16:00     -107.638      -28.142      -11.259       35.247       38.389       17.821     1242.374     1473.700      317.584        0.777        0.152      111.256       11.712        0.011      334.763        4.951      865.490
01/16/2015  01:17:00     -115.235      -25.978       -5.466       53.762       35.972       25.568     2890.316     1293.986      653.737        0.941        0.242      118.126       27.813        0.055      334.622        4.716      865.459
01/16/2015  01:18:00     -140.846      -13.556       -2.661       72.057       35.533       33.534     5192.150     1262.585     1124.501        1.380        0.379      141.497       39.484        0.078      334.477        4.474      865.452
01/16/2015  01:19:00     -132.841      -56.589        4.333       60.025       70.903       35.011     3603.003     5027.285     1225.753        1.536        0.493      144.391       32.945        0.052      334.440        4.413      865.449
01/16/2015  01:20:00      -84.835      -15.747       -5.476       36.027       40.127       26.537     1297.916     1610.147      704.209        0.554        0.181       86.284       17.794        0.043      334.424        4.387      865.424
01/16/2015  01:21:00      -99.398       -7.264      -15.697       30.216       20.089       17.354      913.013      403.568      301.146        0.590        0.081       99.663       15.201        0.023      334.341        4.252      865.392
01/16/2015  01:22:00     -133.889       -6.437      -12.948       30.900       26.211       18.417      954.792      687.030      339.196        1.006        0.099      134.043       11.872        0.008      334.473        4.469      865.378
01/16/2015  01:23:00     -122.149      -19.103       -6.219       30.296       27.981       16.063      917.859      782.928      258.010        0.864        0.098      123.634       16.319        0.017      334.455        4.439      865.409
01/16/2015  01:24:00      -79.652      -13.358       -2.545       32.592       22.457       20.835     1062.237      504.320      434.110        0.426        0.100       80.764       20.358        0.064      334.346        4.259      865.444
01/16/2015  01:25:00      -85.509      -28.825        1.727       31.751       30.076       18.385     1008.156      904.573      338.014        0.520        0.113       90.237       18.896        0.044      334.331        4.235      865.443
01/16/2015  01:26:00      -84.928      -33.772       -1.173       21.632       40.327       16.065      467.954     1626.303      258.084        0.535        0.118       91.396       10.906        0.014      334.352        4.268      865.443
01/16/2015  01:27:00        1.802       14.520        7.163       23.756       32.631       18.477      564.354     1064.778      341.413        0.112        0.099       14.631       11.941        0.666      334.317        4.212      865.444
01/16/2015  01:28:00       62.855       55.324       10.385       37.688       26.076       25.258     1420.377      679.968      637.957        0.493        0.137       83.735        9.871        0.014      334.427        4.392      865.395
01/16/2015  01:29:00       48.219       72.301       -1.380       54.164       45.373       35.935     2933.778     2058.738     1291.313        0.692        0.314       86.905       32.460        0.140      334.435        4.406      865.361
01/16/2015  01:30:00       29.258      104.830       -9.550       49.693       54.017       31.113     2469.393     2917.828      967.989        0.914        0.318      108.836       28.737        0.070      334.445        4.421      865.346
01/16/2015  01:31:00       -9.051       90.160      -12.473       28.799       33.631       19.742      829.364     1131.024      389.748        0.536        0.118       90.614       20.141        0.049      334.485        4.489      865.339
01/16/2015  01:32:00        6.739       43.049      -11.030       14.387       21.603       12.297      206.973      466.683      151.223        0.142        0.041       43.573        5.882        0.018      334.439        4.412      865.372
01/16/2015  01:33:00        1.853        5.587       -5.320       15.383       27.000       14.232      236.640      729.009      202.537        0.062        0.058        5.887       10.420        3.133      334.484        4.488      865.427
01/16/2015  01:34:00       30.761       15.117       34.479       41.400       38.115       38.450     1713.966     1452.759     1478.413        0.350        0.232       34.275       22.475        0.430      334.455        4.440      865.430
01/16/2015  01:35:00       69.916      131.527      116.568       97.042       53.549       52.088     9417.099     2867.512     2713.145        2.538        0.750      148.955       63.502        0.182      334.382        4.316      865.327
01/16/2015  01:36:00      114.616       68.385       41.400       56.523       46.103       35.038     3194.861     2125.529     1227.674        1.304        0.327      133.467       29.347        0.048      334.300        4.181      865.273
01/16/2015  01:37:00        0.734       16.016        6.610       28.088       21.317       19.638      788.918      454.433      385.656        0.096        0.081       16.033        7.179        0.200      334.332        4.237      865.317
01/16/2015  01:38:00       26.138       53.039       -7.077       19.509       22.763       11.539      380.592      518.149      133.154        0.229        0.052       59.130       12.337        0.044      334.394        4.337      865.314
01/16/2015  01:39:00       12.340       79.235      -10.430       32.898       19.436        9.776     1082.310      377.767       95.563        0.405        0.078       80.190        9.337        0.014      334.429        4.397      865.251
01/16/2015  01:40:00      -17.553       67.340      -10.828       19.334       25.879       11.275      373.791      669.710      127.124        0.307        0.059       69.590        8.825        0.016      334.502        4.519      865.201
01/16/2015  01:41:00      -45.771       57.217      -13.416       16.320       23.425       11.582      266.341      548.721      134.137        0.325        0.047       73.272        5.295        0.005      334.498        4.512      865.143
01/16/2015  01:42:00       28.394       58.494       -8.575       25.377       38.465       20.601      644.006     1479.540      424.402        0.342        0.127       65.021       18.097        0.077      334.511        4.532      865.124
01/16/2015  01:43:00       23.733        8.825       40.928       29.581       38.550       32.520      875.024     1486.066     1057.539        0.287        0.171       25.321       23.645        0.872      334.555        4.604      865.168
01/16/2015  01:44:00       67.935     -121.097       -0.092       80.473      108.800       78.035     6475.884    11837.340     6089.406        2.184        1.220      138.851       79.429        0.327      334.546        4.586      865.217
01/16/2015  01:45:00       89.307     -182.721      -33.912       87.610       58.738       49.378     7675.509     3450.164     2438.198        2.804        0.678      203.378       27.746        0.019      334.589        4.657      865.298
01/16/2015  01:46:00       69.412      -90.131       -1.164       66.047       64.332       31.784     4362.242     4138.556     1010.254        1.123        0.476      113.762       31.745        0.078      334.628        4.725      865.329
01/16/2015  01:47:00       43.495      -15.979       25.275       32.185       38.084       35.054     1035.884     1450.364     1228.768        0.325        0.186       46.338       29.988        0.419      334.750        4.928      865.312
01/16/2015  01:48:00       26.198      -64.198       -1.552       32.374       44.271       30.280     1048.049     1959.888      916.862        0.437        0.196       69.338       30.407        0.192      334.733        4.901      865.329
01/16/2015  01:49:00       26.679      -45.767        9.450       37.592       22.789       17.959     1413.141      519.320      322.538        0.257        0.113       52.975       11.528        0.047      334.653        4.768      865.349
01/16/2015  01:50:00       -0.144       13.955        3.265       21.375       22.672       26.435      456.904      514.017      698.800        0.094        0.083       13.956       20.889        2.240      334.543        4.585      865.368
01/16/2015  01:51:00       50.543       36.250       33.265       35.724       24.314       28.541     1276.222      591.159      814.580        0.383        0.134       62.198       29.607        0.227      334.437        4.410      865.317
01/16/2015  01:52:00       45.395       21.458        5.087       22.802       18.504       22.216      519.935      342.407      493.529        0.195        0.068       50.211       14.674        0.085      334.428        4.394      865.292
01/16/2015  01:53:00       37.605       29.537       24.306       20.480       24.963       25.015      419.416      623.130      625.768        0.227        0.083       47.818       10.793        0.051      334.438        4.413      865.345
01/16/2015  01:54:00      101.626       70.567       30.074       19.840       18.551       15.343      393.609      344.153      235.408        0.859        0.049      123.724       11.771        0.009      334.400        4.348      865.345
01/16/2015  01:55:00       82.911       66.201       43.530       53.128       29.819       38.221     2822.532      889.172     1460.810        0.916        0.259      106.098       38.323        0.130      334.486        4.490      865.279
01/16/2015  01:56:00       26.261       43.629       47.158       29.669       37.442       26.247      880.245     1401.920      688.890        0.389        0.149       50.923       25.158        0.244      334.389        4.331      865.313
01/16/2015  01:57:00       26.625      -32.611        6.062       22.745       26.870       14.981      517.341      722.004      224.433        0.164        0.073       42.099       11.464        0.074      334.468        4.460      865.337
01/16/2015  01:58:00       26.439       18.830       -3.622       15.519       26.105       13.436      240.829      681.470      180.530        0.108        0.055       32.459        7.977        0.060      334.474        4.472      865.341
01/16/2015  01:59:00      -21.845       33.519      -10.231       29.303       24.076       12.260      858.685      579.664      150.300        0.165        0.079       40.009        9.272        0.054      334.438        4.410      865.412
01/16/2015  02:00:00      -47.463       93.629       -6.432       35.493       32.016       21.366     1259.762     1025.041      456.493        0.690        0.137      104.972       22.884        0.048      334.400        4.348      865.429
01/16/2015  02:01:00      -42.045      169.651      -20.508       34.598       24.297       17.669     1197.008      590.345      312.177        1.653        0.105      174.783       13.351        0.006      334.547        4.591      865.398
01/16/2015  02:02:00      -96.627      158.021      -26.586       47.013       51.613       26.192     2210.227     2663.923      685.998        2.029        0.278      185.223       24.396        0.017      334.482        4.482      865.401
01/16/2015  02:03:00     -114.611       80.157      -16.397       36.471       40.043       25.756     1330.138     1603.475      663.381        1.171        0.180      139.860       15.755        0.013      334.523        4.551      865.406
01/16/2015  02:04:00     -143.499      -11.071      -17.120       41.540       52.399       20.539     1725.608     2745.627      421.845        1.295        0.245      143.926       16.014        0.012      334.480        4.481      865.413
01/16/2015  02:05:00     -185.932      -68.355       -7.470       45.154       47.171       31.483     2038.916     2225.097      991.171        2.228        0.263      198.098       25.096        0.016      334.396        4.339      865.396
01/16/2015  02:06:00     -167.344       -0.826      -16.276       60.574       61.050       28.940     3669.249     3727.158      837.535        1.825        0.412      167.346       29.251        0.031      334.444        4.420      865.394
01/16/2015  02:07:00     -222.366       79.091      -22.668       57.197       38.721       30.196     3271.495     1499.330      911.788        3.095        0.284      236.013       25.606        0.012      334.499        4.507      865.399
01/16/2015  02:08:00     -155.018       72.494      -14.195       60.379       54.615       30.805     3645.628     2982.765      948.956        1.853        0.379      171.131       19.761        0.013      334.545        4.587      865.414
01/16/2015  02:09:00      -22.170      -49.714        5.452       63.416       44.465       40.048     4021.537     1977.136     1603.833        0.530        0.380       54.434       34.337        0.398      334.518        4.543      865.437
01/16/2015  02:10:00      -75.734      -81.640        9.780       47.173       38.510       32.195     2225.266     1482.984     1036.541        0.862        0.237      111.358       28.790        0.067      334.487        4.493      865.488
01/16/2015  02:11:00     -103.966      -59.721       -4.361       42.686       57.182       25.119     1822.075     3269.762      630.985        1.006        0.286      119.898       19.439        0.026      334.464        4.454      865.516
01/16/2015  02:12:00      -67.050      -12.044      -14.235       58.653       38.518       29.040     3440.126     1483.649      843.309        0.530        0.288       68.123       21.151        0.096      334.392        4.334      865.489
01/16/2015  02:13:00     -102.420       46.165      -18.095       65.167       42.303       23.884     4246.767     1789.547      570.429        0.978        0.330      112.344       26.884        0.057      334.590        4.662      865.468
01/16/2015  02:14:00      -87.036      -24.192      -14.538       48.208       45.414       24.431     2324.022     2062.424      596.891        0.668        0.249       90.336       23.385        0.067      334.566        4.623      865.476
01/16/2015  02:15:00      -30.349      -25.442        3.721       51.121       41.147       27.562     2613.309     1693.059      759.647        0.332        0.253       39.602       24.849        0.394      334.585        4.654      865.491
01/16/2015  02:16:00     -126.827      -80.558       -9.507       66.262       50.207       25.250     4390.706     2520.698      637.560        1.511        0.377      150.249       10.071        0.004      334.560        4.611      865.513
01/16/2015  02:17:00     -131.971      -79.702        1.704       47.378       39.438       27.583     2244.702     1555.344      760.814        1.417        0.228      154.171       16.059        0.011      334.506        4.523      865.552
01/16/2015  02:18:00     -150.684      -39.220       -9.474       36.276       20.421       18.366     1315.930      416.999      337.297        1.320        0.104      155.705       18.759        0.015      334.559        4.610      865.568
01/16/2015  02:19:00      -57.480      -52.461        8.787       50.832       22.432       23.654     2583.895      503.191      559.517        0.489        0.182       77.820       21.847        0.079      334.656        4.773      865.533
01/16/2015  02:20:00       -4.766     -121.044       -4.772       20.106       35.837       15.790      404.242     1284.288      249.316        0.832        0.097      121.138       11.250        0.009      334.942        5.248      865.492
01/16/2015  02:21:00     -150.754     -104.431        6.587       94.606       62.560       37.483     8950.205     3913.813     1405.013        2.397        0.713      183.392       25.300        0.019      334.777        4.971      865.485
01/16/2015  02:22:00      -61.310      -93.004       15.384       68.265       63.997       35.551     4660.093     4095.669     1263.871        1.133        0.501      111.394       37.918        0.116      334.570        4.627      865.480
01/16/2015  02:23:00      -63.907      -67.166        2.558       37.721       48.809       19.526     1422.886     2382.314      381.264        0.639        0.209       92.711       18.547        0.040      335.120        5.544      865.423
01/16/2015  02:24:00      -19.645      -25.307       10.210       64.097       36.867       32.292     4108.411     1359.194     1042.766        0.382        0.326       32.037       24.120        0.567      334.966        5.286      865.369
01/16/2015  02:25:00      125.247     -162.660      -34.371       65.461       51.753       33.241     4285.101     2678.356     1104.977        2.570        0.403      205.293       27.521        0.018      334.778        4.971      865.309
01/16/2015  02:26:00       40.177        2.551       39.183       63.977       72.505       35.877     4093.094     5256.980     1287.180        0.689        0.532       40.258       40.915        1.033      334.597        4.673      865.278
01/16/2015  02:27:00       32.429        0.631       24.992       32.693       51.300       28.529     1068.837     2631.708      813.895        0.309        0.226       32.435       32.687        1.016      334.671        4.798      865.220
01/16/2015  02:28:00      -17.476      -23.042        4.655       38.797       25.131       21.664     1505.193      631.555      469.338        0.173        0.130       28.920       19.671        0.463      334.811        5.030      865.219
01/16/2015  02:29:00     -141.235      -85.735       -1.809       73.555       55.560       35.849     5410.318     3086.963     1285.132        1.854        0.489      165.220       16.421        0.010      334.757        4.939      865.285
01/16/2015  02:30:00       12.917        0.466       32.077       36.856       41.928       35.471     1358.392     1757.930     1258.179        0.278        0.219       12.925       26.856        4.317      334.776        4.972      865.271
01/16/2015  02:31:00      -22.495      -48.646        2.253       68.706       45.883       41.248     4720.499     2105.250     1701.410        0.570        0.426       53.596       34.479        0.414      334.852        5.097      865.322
01/16/2015  02:32:00     -150.854     -143.848        8.212       90.538       83.000       46.385     8197.116     6889.081     2151.596        3.037        0.862      208.444       42.873        0.042      334.696        4.836      865.449
01/16/2015  02:33:00       39.150      -94.712       13.216       69.064       64.952       32.969     4769.774     4218.700     1086.986        1.037        0.504      102.485       34.686        0.115      334.746        4.921      865.440
01/16/2015  02:34:00       -4.913        1.552       83.370       35.891       66.878       39.772     1288.172     4472.640     1581.788        0.716        0.367        5.152       36.997       51.566      334.757        4.939      865.450
01/16/2015  02:35:00       34.083      -28.545       33.612       48.433       63.725       38.212     2345.725     4060.880     1460.132        0.549        0.393       44.457       44.734        1.012      334.694        4.837      865.497
01/16/2015  02:36:00       74.190       64.897       62.811       44.977       70.867       42.350     2022.916     5022.182     1793.482        1.125        0.442       98.568       47.044        0.228      334.704        4.852      865.504
01/16/2015  02:37:00       16.989       50.473       71.270       59.976       77.034       51.199     3597.101     5934.300     2621.308        1.003        0.608       53.256       60.648        1.297      334.709        4.861      865.453
01/16/2015  02:38:00     -103.424       39.257      -11.705       27.431       33.564       18.591      752.469     1126.536      345.623        0.730        0.111      110.624       11.520        0.011      334.752        4.931      865.480
01/16/2015  02:39:00      -39.351      106.801       -7.033       27.486       37.628       22.619      755.486     1415.902      511.605        0.784        0.134      113.819       19.084        0.028      334.885        5.153      865.487
01/16/2015  02:40:00        7.642       85.665       -7.682       20.480       40.334       13.652      419.444     1626.822      186.371        0.484        0.112       86.005        8.882        0.011      335.054        5.435      865.510
01/16/2015  02:41:00       26.934       44.516        1.194       25.189       24.579       18.163      634.477      604.144      329.886        0.214        0.078       52.030       10.972        0.044      334.833        5.065      865.507
01/16/2015  02:42:00      -48.101      172.648      -26.950       24.069       37.786       22.463      579.319     1427.758      504.576        1.768        0.126      179.223       12.933        0.005      334.677        4.805      865.500
01/16/2015  02:43:00      -27.257      179.099      -19.843       21.292       28.368       15.342      453.337      804.717      235.370        1.735        0.075      181.161        9.256        0.003      334.674        4.802      865.417
01/16/2015  02:44:00      -25.710      118.707      -16.681       19.690       17.900       11.374      387.692      320.414      129.365        0.793        0.042      121.459        8.766        0.005      334.826        5.056      865.367
01/16/2015  02:45:00       13.170       86.379       -0.450       24.598       48.853       20.280      605.060     2386.567      411.266        0.552        0.170       87.377       21.620        0.061      334.781        4.981      865.336
01/16/2015  02:46:00       39.154       29.135       20.624       31.014       23.018       20.700      961.838      529.813      428.472        0.236        0.096       48.804       15.786        0.105      334.636        4.740      865.303
01/16/2015  02:47:00        1.092        4.757       22.337       15.337       34.119       22.952      235.210     1164.072      526.814        0.122        0.096        4.880       24.940       26.114      334.620        4.713      865.309
01/16/2015  02:48:00       13.379       28.896       -8.654       23.054       30.949        7.322      531.493      957.859       53.604        0.132        0.077       31.843        9.141        0.082      335.047        5.423      865.302
01/16/2015  02:49:00      113.217       61.671       13.210       38.386       23.799       22.478     1473.447      566.401      505.240        0.967        0.127      128.924        9.716        0.006      334.988        5.324      865.173
01/16/2015  02:50:00       15.177       -0.779       28.540       40.530       63.255       39.445     1642.693     4001.174     1555.916        0.412        0.360       15.196       40.249        7.015      334.757        4.940      865.103
01/16/2015  02:51:00       41.182      -37.096        7.311       36.994       47.507       23.078     1368.579     2256.920      532.599        0.364        0.208       55.427       30.871        0.310      334.948        5.257      865.106
01/16/2015  02:52:00       62.130       51.251       31.140       28.092       14.954       21.255      789.167      223.617      451.762        0.446        0.073       80.541       16.938        0.044      334.985        5.318      865.070
01/16/2015  02:53:00       21.709       52.170      -10.373       21.573       16.162       11.199      465.381      261.200      125.420        0.208        0.043       56.507        9.966        0.031      335.037        5.405      865.090
01/16/2015  02:54:00       42.299       65.961       -5.315       24.502       31.940       20.552      600.355     1020.190      422.396        0.411        0.102       78.358       19.598        0.063      335.092        5.498      865.013
01/16/2015  02:55:00       24.288       88.662      -15.474       34.680       42.337       24.860     1202.676     1792.422      617.999        0.615        0.181       91.928       18.766        0.042      335.006        5.355      864.907
01/16/2015  02:56:00       38.597       49.787        0.962       25.285       49.685       25.761      639.356     2468.565      663.621        0.387        0.189       62.996       29.139        0.214      335.097        5.505      864.935
01/16/2015  02:57:00      -33.017      -47.400       -5.265       62.265       42.149       26.580     3876.901     1776.545      706.495        0.486        0.318       57.766       14.100        0.060      335.124        5.549      865.014
01/16/2015  02:58:00     -111.118      -73.041        7.322       65.740       55.114       41.190     4321.714     3037.507     1696.624        1.339        0.453      132.974       28.891        0.047      334.985        5.319      865.130
01/16/2015  02:59:00      -81.630     -119.119       -6.525       40.304       41.228       25.745     1624.413     1699.752      662.815        1.244        0.199      144.405       22.394        0.024      335.080        5.478      865.218
01/16/2015  03:00:00     -172.524      -40.307      -20.834       30.752       28.660       19.645      945.662      821.375      385.919        1.699        0.108      177.170       11.918        0.005      335.033        5.399      865.253
01/16/2015  03:01:00     -144.983        7.843      -12.112       47.549       26.491       20.833     2260.913      701.791      434.002        1.231        0.170      145.195       21.609        0.022      334.981        5.312      865.198
01/16/2015  03:02:00      -83.761       34.851      -13.043       29.398       19.403       11.554      864.270      376.486      133.486        0.489        0.069       90.723       11.682        0.017      335.443        6.082      865.068
01/16/2015  03:03:00     -121.467      -47.729       -8.280       35.991       44.390       15.370     1295.356     1970.514      236.236        1.030        0.175      130.508        3.833        0.001      335.456        6.103      865.003
01/16/2015  03:04:00     -117.681       31.718      -17.733       39.342       60.642       22.982     1547.812     3677.401      528.191        1.046        0.288      121.881       24.560        0.041      335.677        6.471      864.999
01/16/2015  03:05:00       -3.764      -15.203       -0.218       33.587       24.976       14.902     1128.105      623.814      222.064        0.111        0.099       15.662       13.810        0.777      336.108        7.188      864.978
01/16/2015  03:06:00     -136.271      -42.175        3.295       79.327       49.317       33.107     6292.848     2432.122     1096.083        1.509        0.491      142.648       23.613        0.027      335.318        5.872      865.043
01/16/2015  03:07:00     -126.207       -0.787      -15.456       33.545       20.901       18.255     1125.261      436.839      333.229        0.903        0.095      126.209       18.258        0.021      335.098        5.506      865.055
01/16/2015  03:08:00     -180.781      -36.541      -18.718       70.694       46.703       22.132     4997.605     2181.206      489.820        2.102        0.383      184.437       20.325        0.012      335.018        5.371      865.067
01/16/2015  03:09:00     -121.981      -26.503       -9.217       39.634       30.695       21.100     1570.842      942.156      445.201        0.931        0.148      124.827       21.148        0.029      335.056        5.438      865.067
01/16/2015  03:10:00     -122.244       28.751      -10.692       37.724       29.478       15.008     1423.106      868.945      225.230        0.920        0.126      125.580       13.402        0.011      335.887        6.821      865.050
01/16/2015  03:11:00     -170.556       64.422       -9.290       55.187       34.670       24.301     3045.623     1202.005      590.537        1.908        0.242      182.317       23.404        0.016      336.324        7.548      865.045
01/16/2015  03:12:00     -188.375       52.177      -14.533       53.696       44.895       23.546     2883.215     2015.599      554.413        2.194        0.273      195.468       17.525        0.008      336.433        7.729      865.051
01/16/2015  03:13:00     -132.215        5.349      -12.043       41.845       37.233       21.047     1750.985     1386.323      442.991        1.062        0.179      132.323       21.177        0.026      336.373        7.630      865.065
01/16/2015  03:14:00     -122.878       83.321      -26.438       37.246       44.114       18.351     1387.250     1946.002      336.756        1.320        0.184      148.464       13.941        0.009      336.534        7.901      865.085
01/16/2015  03:15:00      -76.531       67.391      -15.831       38.788       39.136       23.888     1504.477     1531.599      570.614        0.713        0.180      101.973       19.260        0.036      336.688        8.159      865.087
01/16/2015  03:16:00        1.410       56.554       -4.110       55.220       52.970       25.863     3049.272     2805.818      668.898        0.487        0.326       56.572       21.551        0.145      336.866        8.457      865.046
01/16/2015  03:17:00       13.912       29.264       18.114       30.643       20.198       23.721      938.994      407.941      562.665        0.164        0.095       32.403       17.404        0.288      336.222        7.377      864.986
01/16/2015  03:18:00        5.387        6.097        8.405       20.446       34.319       34.963      418.039     1177.769     1222.425        0.148        0.141        8.136       29.293       12.964      335.501        6.178      864.933
01/16/2015  03:19:00       14.256      -27.979       15.549       15.326       16.678       15.089      234.873      278.170      227.688        0.098        0.037       31.401       11.475        0.134      335.552        6.260      864.877
01/16/2015  03:20:00      -33.904      -31.365       -1.934       11.218        9.199        6.720      125.850       84.616       45.153        0.120        0.013       46.187        5.610        0.015      335.748        6.589      864.866
01/16/2015  03:21:00      -64.361      -52.390       -5.206       16.120       10.446        5.060      259.854      109.129       25.604        0.365        0.020       82.988        6.414        0.006      336.137        7.237      864.902
01/16/2015  03:22:00      -17.279      -34.505       -4.570       29.826       15.393       10.358      889.567      236.955      107.288        0.137        0.062       38.590       12.077        0.098      336.248        7.422      864.901
01/16/2015  03:23:00       63.470     -118.445      -13.022       54.219       43.843       31.209     2939.746     1922.185      974.004        1.203        0.292      134.379       24.335        0.033      335.802        6.678      864.943
01/16/2015  03:24:00      -63.897      -93.996       13.632       91.478       62.920       45.036     8368.291     3958.975     2028.231        1.373        0.718      113.658       25.339        0.050      335.324        5.881      865.023
01/16/2015  03:25:00      -90.847      -98.934        3.802       78.628       75.473       35.130     6182.337     5696.187     1234.092        1.558        0.656      134.317       35.042        0.068      335.316        5.867      865.086
01/16/2015  03:26:00      -46.289      -68.344       -0.505       53.780       61.781       31.072     2892.251     3816.884      965.491        0.724        0.384       82.545       14.285        0.030      335.216        5.703      865.127
01/16/2015  03:27:00      -47.534      -74.204       -0.662       53.572       53.788       26.348     2870.001     2893.172      694.200        0.711        0.323       88.123       25.374        0.083      335.265        5.783      865.188
01/16/2015  03:28:00      -47.718     -143.324        0.192       59.374       49.051       27.796     3525.314     2406.043      772.642        1.476        0.335      151.059       12.880        0.007      335.212        5.695      865.263
01/16/2015  03:29:00      -36.323     -132.855      -22.271       41.998       59.105       29.170     1763.806     3493.434      850.894        1.279        0.305      137.731       34.933        0.064      335.266        5.784      865.245
01/16/2015  03:30:00      -14.303      -18.875        0.115       31.527       43.145       26.624      993.980     1861.515      708.816        0.206        0.178       23.682       26.130        1.217      335.171        5.628      865.204
01/16/2015  03:31:00      -16.187       -8.610      -14.251       24.613       26.617       24.144      605.804      708.475      582.909        0.122        0.095       18.335       13.736        0.561      335.011        5.362      865.128
01/16/2015  03:32:00      -48.357      -10.863        0.300       25.247       15.249       13.007      637.416      232.521      169.172        0.175        0.052       49.562        8.757        0.031      335.112        5.533      865.084
01/16/2015  03:33:00       52.138       24.361       16.501       17.389       10.196       13.407      302.375      103.968      179.739        0.208        0.029       57.548        4.769        0.007      335.048        5.423      865.041
01/16/2015  03:34:00       30.595      -54.365       -4.035       34.086       33.200       18.279     1161.841     1102.238      334.138        0.325        0.130       62.383       18.070        0.084      335.248        5.755      865.070
01/16/2015  03:35:00       13.059      -66.153       -2.489       34.921       46.875       29.129     1219.501     2197.236      848.489        0.441        0.213       67.430       19.597        0.084      335.177        5.637      865.105
01/16/2015  03:36:00        4.152      -25.167       19.508       31.615       39.554       30.029      999.496     1564.531      901.766        0.225        0.173       25.507       25.014        0.962      334.967        5.289      865.095
01/16/2015  03:37:00      -15.954       -0.112        4.098       12.890       18.490       12.755      166.152      341.866      162.682        0.047        0.034       15.955        9.124        0.327      334.928        5.225      865.115
01/16/2015  03:38:00      -73.790       24.942      -11.104       17.340       16.904       10.000      300.668      285.759       99.995        0.344        0.034       77.892        6.260        0.006      335.022        5.381      865.130
01/16/2015  03:39:00      -97.470        8.687       -6.419       23.329       23.992       12.004      544.253      575.613      144.091        0.544        0.063       97.856       11.021        0.013      334.967        5.289      865.105
01/16/2015  03:40:00      -32.482       21.874       -4.921       40.800       13.458       11.948     1664.676      181.106      142.756        0.177        0.099       39.160       17.612        0.202      334.943        5.248      865.089
01/16/2015  03:41:00       55.777       69.407       -2.034       14.766       24.291       14.023      218.037      590.029      196.641        0.447        0.050       89.041       16.396        0.034      335.043        5.415      865.065
01/16/2015  03:42:00       -7.037       -1.186      -10.353       32.369       87.067       16.400     1047.765     7580.592      268.967        0.453        0.445        7.136       14.197        3.958      335.063        5.448      865.057
01/16/2015  03:43:00        9.620        9.366       -1.445       15.321       26.887       11.507      234.747      722.934      132.417        0.064        0.055       13.426        8.939        0.443      335.695        6.500      865.006
01/16/2015  03:44:00      -16.183      -11.489        4.416       17.871       15.107        9.514      319.390      228.208       90.508        0.053        0.032       19.847        9.992        0.253      335.635        6.400      864.933
01/16/2015  03:45:00       20.270       30.417       13.249       28.937       15.235       14.908      837.360      232.116      222.242        0.140        0.065       36.552        8.646        0.056      335.201        5.678      864.903
01/16/2015  03:46:00        7.361       52.877       -5.581       17.695       23.538       11.502      313.125      554.023      132.294        0.194        0.050       53.386       11.704        0.048      335.072        5.464      864.903
01/16/2015  03:47:00       27.352        7.032       -8.688       15.709       17.033        8.893      246.764      290.121       79.081        0.074        0.031       28.241        3.606        0.016      334.838        5.075      864.896
01/16/2015  03:48:00       21.253      -27.217       -1.123       19.360       15.174       12.647      374.804      230.242      159.939        0.098        0.038       34.532       13.839        0.161      334.953        5.266      864.943
01/16/2015  03:49:00      -29.096      -23.699       -6.585        7.436        9.039        6.434       55.299       81.704       41.402        0.081        0.009       37.526        3.897        0.011      335.340        5.908      865.014
01/16/2015  03:50:00        0.516       -4.066        2.073       20.479       10.046        7.783      419.390      100.932       60.573        0.030        0.029        4.098       11.954        8.508      335.237        5.735      865.036
01/16/2015  03:51:00      -13.188       77.797       -9.366       29.319       28.047       19.394      859.598      786.606      376.133        0.417        0.101       78.907       24.168        0.094      335.225        5.717      865.005
01/16/2015  03:52:00     -104.220      101.461      -27.675       31.811       30.225       16.747     1011.929      913.557      280.473        1.206        0.110      145.451       10.609        0.005      335.038        5.406      865.022
01/16/2015  03:53:00      -25.377      118.447      -15.938       26.367       29.622       18.872      695.202      877.474      356.160        0.843        0.096      121.135       10.153        0.007      335.605        6.351      865.051
01/16/2015  03:54:00       -2.097       99.925      -11.230       26.329       58.227       18.183      693.213     3390.437      330.621        0.726        0.221       99.947       19.980        0.040      335.592        6.328      865.049
01/16/2015  03:55:00      -12.434      105.244      -10.406       41.156       95.893       21.762     1693.854     9195.456      473.597        1.135        0.568      105.976       31.341        0.087      336.053        7.098      865.048
01/16/2015  03:56:00      -71.746       39.043      -11.643       45.071       73.778       17.445     2031.351     5443.223      304.319        0.729        0.389       81.681       13.546        0.028      335.381        5.978      865.086
01/16/2015  03:57:00      -63.940       12.988       -4.598       34.781       44.770       21.545     1209.724     2004.386      464.166        0.398        0.184       65.246       15.727        0.058      335.258        5.774      865.107
01/16/2015  03:58:00       25.709       38.770       -9.175       16.839       25.231       14.601      283.541      636.600      213.192        0.169        0.057       46.520       12.968        0.078      336.842        8.416      865.087
01/16/2015  03:59:00     -149.499      -37.791      -13.861      102.983       42.501       27.688    10605.547     1806.370      766.650        1.857        0.659      154.202       32.166        0.044      335.932        6.895      865.055
01/16/2015  04:00:00     -178.605      -55.783       -2.005       60.877       55.747       32.297     3706.027     3107.680     1043.080        2.143        0.393      187.114       32.549        0.030      335.073        5.464      865.040
01/16/2015  04:01:00     -134.931      -39.726       -7.575       45.292       33.092       21.219     2051.359     1095.051      450.255        1.172        0.180      140.658       20.270        0.021      335.345        5.917      865.025
01/16/2015  04:02:00     -129.060      -23.260      -11.111       34.304       32.745       20.878     1176.775     1072.266      435.908        1.000        0.134      131.139       20.764        0.025      335.149        5.592      865.030
01/16/2015  04:03:00      -88.907       36.749       -2.033       43.129       36.168       23.058     1860.121     1308.104      531.658        0.648        0.185       96.203       18.453        0.037      335.297        5.836      865.017
01/16/2015  04:04:00     -135.779       66.567      -25.078       39.939       46.597       22.751     1595.096     2171.304      517.603        1.389        0.214      151.219       19.313        0.016      335.899        6.840      864.984
01/16/2015  04:05:00     -104.514        8.298      -23.706       36.904       30.861       20.460     1361.941      952.411      418.600        0.714        0.137      104.843       20.904        0.040      335.738        6.573      865.015
01/16/2015  04:06:00      -87.237       40.662      -16.236       38.162       48.246       22.023     1456.319     2327.687      485.005        0.690        0.213       96.248       17.126        0.032      336.265        7.452      865.008
01/16/2015  04:07:00      -42.052       56.233       -5.740       18.750       41.085       13.619      351.555     1687.937      185.474        0.359        0.111       70.218       13.353        0.036      336.819        8.378      864.975
01/16/2015  04:08:00     -124.183      -67.063      -22.615       43.192       21.448       16.094     1865.562      460.002      259.019        1.151        0.129      141.134        5.451        0.001      335.567        6.287      865.004
01/16/2015  04:09:00     -108.697      -64.340       -5.573       64.054       31.623       19.639     4102.973     1000.008      385.678        1.074        0.274      126.311       25.518        0.041      335.497        6.169      865.042
01/16/2015  04:10:00      -23.325        7.852       21.962       56.180       49.600       42.219     3156.205     2460.171     1782.483        0.424        0.370       24.611       28.065        1.300      335.628        6.389      865.086
01/16/2015  04:11:00       19.463       10.113       64.561       63.616       80.202       56.996     4046.971     6432.419     3248.507        0.919        0.686       21.933       57.700        6.921      335.016        5.371      865.119
01/16/2015  04:12:00      -29.984      -34.999       -7.952       40.585       29.012       13.658     1647.142      841.713      186.536        0.243        0.134       46.087       13.374        0.084      335.396        6.002      865.112
01/16/2015  04:13:00      -66.457       19.236       -6.370       28.733       19.742       11.855      825.567      389.751      140.544        0.309        0.068       69.185       15.207        0.048      336.016        7.034      865.077
01/16/2015  04:14:00       82.786       43.321        8.777       37.205       30.975       24.389     1384.229      959.434      594.830        0.587        0.147       93.436       12.971        0.019      335.260        5.777      865.075
01/16/2015  04:15:00       35.193       50.802       -6.389       26.722       25.202       22.922      714.073      635.156      525.427        0.287        0.094       61.801       20.686        0.112      335.088        5.489      865.074
01/16/2015  04:16:00       14.003       27.551       -9.695       19.351       23.554        9.098      374.455      554.786       82.771        0.103        0.051       30.905       10.260        0.110      335.504        6.183      865.050
01/16/2015  04:17:00        1.580        1.432       -0.821       12.315       15.445        7.051      151.668      238.535       49.714        0.022        0.022        2.132        6.564        9.479      335.500        6.174      865.054
01/16/2015  04:18:00       17.204        3.363        4.058       14.332       13.389       12.059      205.405      179.272      145.415        0.043        0.027       17.530        4.525        0.067      335.299        5.839      865.071
01/16/2015  04:19:00       14.125       18.593       14.971       10.181       16.450       17.933      103.659      270.600      321.599        0.073        0.035       23.350       12.046        0.266      334.988        5.324      865.039
01/16/2015  04:20:00       34.360       19.080        6.903       11.069        6.702        6.867      122.527       44.915       47.159        0.090        0.011       39.302        4.166        0.011      335.152        5.598      865.037
01/16/2015  04:21:00       26.701       61.534       -1.854       15.935       23.978       15.105      253.932      574.958      228.171        0.278        0.053       67.077       13.018        0.038      335.343        5.913      865.059
01/16/2015  04:22:00       39.920       13.929       -3.136       10.695       12.832       11.246      114.379      164.660      126.474        0.110        0.020       42.281        8.200        0.038      335.258        5.771      865.047
01/16/2015  04:23:00       17.204        0.871       -3.528       24.331       19.596       12.597      591.981      383.990      158.694        0.072        0.057       17.226        8.421        0.239      335.681        6.477      865.037
01/16/2015  04:24:00      -31.889      -28.379       -6.455       19.692       18.762       11.979      387.769      352.004      143.504        0.137        0.044       42.687        9.340        0.048      335.637        6.403      865.029
01/16/2015  04:25:00       81.229       45.503        8.091       26.108       29.267       11.928      681.648      856.577      142.265        0.521        0.084       93.106       12.794        0.019      336.508        7.858      864.955
01/16/2015  04:26:00      104.158       44.930        5.997       23.102       20.649       13.163      533.703      426.387      173.263        0.702        0.057      113.435        8.083        0.005      336.474        7.798      864.865
01/16/2015  04:27:00       60.975       34.181       30.187       99.285       57.664       33.387     9857.512     3325.124     1114.724        1.005        0.715       69.902       26.665        0.146      337.933       10.243      864.757
01/16/2015  04:28:00      -41.445       65.750       -6.324       34.573       62.542       20.566     1195.287     3911.454      422.975        0.580        0.276       77.722       27.052        0.121      338.399       11.024      864.756
01/16/2015  04:29:00      -69.362       68.925      -17.758       85.429       81.193       37.325     7298.114     6592.247     1393.174        1.258        0.764       97.784       35.908        0.135      338.490       11.176      864.790
01/16/2015  04:30:00       47.948       35.958       13.856       21.660       46.661       24.486      469.134     2177.210      599.577        0.351        0.162       59.933       18.387        0.094      338.353       10.946      864.759
01/16/2015  04:31:00        8.932       -3.856        0.697       43.085       35.392       19.163     1856.359     1252.587      367.235        0.179        0.174        9.729       18.036        3.437      337.889       10.169      864.763
01/16/2015  04:32:00     -125.542      -86.621      -16.938       41.432       37.053       24.637     1716.640     1372.899      606.987        1.362        0.185      152.525       19.609        0.017      336.149        7.257      864.823
01/16/2015  04:33:00      -79.687      -83.221       -3.751       43.658       42.686       28.904     1906.021     1822.104      835.430        0.893        0.228      115.220       28.252        0.060      337.161        8.948      864.860
01/16/2015  04:34:00       18.246        3.582       16.804       31.794       31.788       20.514     1010.837     1010.503      420.816        0.153        0.122       18.594       19.114        1.057      337.371        9.301      864.803
01/16/2015  04:35:00      -46.456       13.747       -2.281       48.871       23.716       14.905     2388.346      562.431      222.171        0.276        0.159       48.447       17.735        0.134      336.926        8.556      864.800
01/16/2015  04:36:00     -134.651        5.917      -19.072       23.493       27.219       13.151      551.918      740.890      172.946        1.000        0.073      134.781       10.718        0.006      336.234        7.400      864.850
01/16/2015  04:37:00     -151.911       18.716      -17.630       34.025       20.681       12.200     1157.672      427.716      148.844        1.274        0.087      153.059       12.626        0.007      337.207        9.026      864.857
01/16/2015  04:38:00     -135.383      -48.698       -4.290       79.355       57.702       40.291     6297.157     3329.509     1623.369        1.598        0.563      143.875       40.708        0.080      336.881        8.481      864.806
01/16/2015  04:39:00     -208.852      -22.543      -19.874       45.538       58.964       30.399     2073.738     3476.760      924.096        2.550        0.324      210.065       24.069        0.013      337.401        9.350      864.783
01/16/2015  04:40:00     -219.329       54.387       -5.715       64.629       58.968       34.235     4176.881     3477.234     1172.064        2.996        0.441      225.972       15.548        0.005      337.997       10.346      864.730
01/16/2015  04:41:00     -188.561      -28.711       -9.459       78.330       63.720       34.460     6135.632     4060.249     1187.488        2.392        0.569      190.735       32.171        0.028      337.518        9.545      864.663
01/16/2015  04:42:00     -355.334     -122.494       -7.731      111.221       90.901       50.216    12370.149     8262.917     2521.600        8.224        1.158      375.855       53.143        0.020      337.867       10.128      864.634
01/16/2015  04:43:00     -269.988      -37.072      -25.247       79.570       66.790       38.947     6331.363     4460.898     1516.859        4.361        0.615      272.521       29.595        0.012      337.669        9.796      864.621
01/16/2015  04:44:00     -416.512     -126.414      -14.076      172.993      117.029       55.322    29926.447    13695.891     3060.563       11.816        2.334      435.273       49.460        0.013      337.939       10.248      864.560
01/16/2015  04:45:00     -370.964      -90.240      -42.200      127.040       92.151       58.631    16139.036     8491.759     3437.591        8.780        1.403      381.782       59.007        0.024      338.606       11.368      864.532
01/16/2015  04:46:00     -224.499      -56.867       -4.029      104.722       69.647       52.582    10966.614     4850.652     2764.899        3.611        0.929      231.589       56.825        0.060      338.276       10.814      864.468
01/16/2015  04:47:00     -205.555      -38.175      -13.672      109.663       63.201       55.975    12025.867     3994.391     3133.238        3.152        0.958      209.069       56.404        0.073      338.032       10.406      864.440
01/16/2015  04:48:00     -168.441      -71.068       -3.273      116.008       67.583       47.758    13457.744     4567.490     2280.869        2.687        1.015      182.819       47.131        0.066      338.023       10.389      864.464
01/16/2015  04:49:00     -247.091      -11.070       -7.435      112.672       66.441       56.848    12695.057     4414.371     3231.707        4.078        1.017      247.339       63.275        0.065      338.026       10.396      864.521
01/16/2015  04:50:00     -191.114      -49.512       -6.246       80.835       67.511       38.315     6534.374     4557.697     1468.048        2.579        0.628      197.423       40.503        0.042      337.915       10.210      864.505
01/16/2015  04:51:00     -112.366      -37.421        1.639       75.825       43.417       32.261     5749.377     1885.035     1040.743        1.135        0.434      118.434       34.212        0.083      337.922       10.223      864.445
01/16/2015  04:52:00     -122.343      -28.584       -3.623       46.127       39.510       27.694     2127.731     1561.067      766.978        1.013        0.223      125.637       28.868        0.053      338.002       10.358      864.419
01/16/2015  04:53:00     -174.189      -70.438        2.874       81.265       68.765       34.231     6604.029     4728.643     1171.789        2.391        0.625      187.892       29.656        0.025      337.917       10.212      864.450
01/16/2015  04:54:00     -208.371      -88.303        0.263       91.545       75.318       45.192     8380.457     5672.874     2042.299        3.365        0.805      226.309       48.536        0.046      337.966       10.294      864.521
01/16/2015  04:55:00     -207.134      -66.803        9.756      106.924       72.739       45.806    11432.803     5290.968     2098.152        3.314        0.941      217.640       52.936        0.059      337.857       10.112      864.564
01/16/2015  04:56:00     -137.000      -59.592        5.670      125.525       48.094       42.969    15756.485     2313.028     1846.295        2.113        0.996      149.399       56.910        0.145      337.631        9.733      864.565
01/16/2015  04:57:00      -87.976     -144.076       13.361       88.069       80.851       36.832     7756.079     6536.902     1356.628        2.216        0.782      168.813       41.941        0.062      337.030        8.728      864.537
01/16/2015  04:58:00     -142.097     -100.530       -7.560       58.584       48.587       33.093     3432.066     2360.716     1095.164        1.862        0.344      174.063       28.443        0.027      337.319        9.211      864.482
01/16/2015  04:59:00     -114.649      -85.456       -4.434       46.475       46.459       25.473     2159.963     2158.437      648.859        1.272        0.248      142.994       20.600        0.021      337.360        9.282      864.437
01/16/2015  05:00:00     -112.547      -53.581        6.130       88.496       55.047       31.243     7831.556     3030.163      976.129        1.370        0.592      124.651       37.174        0.089      337.504        9.521      864.430
01/16/2015  05:01:00     -131.124      -32.855       -2.488       40.696       38.422       24.938     1656.185     1476.284      621.911        1.102        0.188      135.178       20.050        0.022      337.023        8.717      864.507
01/16/2015  05:02:00     -185.498      -65.585       -1.682       79.338       70.002       34.168     6294.566     4900.244     1167.462        2.554        0.618      196.751       23.752        0.015      337.090        8.828      864.545
01/16/2015  05:03:00     -217.873     -123.800        2.282      110.312      118.109       62.371    12168.701    13949.808     3890.107        4.640        1.500      250.590       62.335        0.062      337.588        9.661      864.491
01/16/2015  05:04:00     -189.459      -11.635      -30.284      104.681       69.586       45.431    10958.202     4842.264     2064.002        2.740        0.893      189.816       43.188        0.052      337.948       10.264      864.440
01/16/2015  05:05:00     -189.758       44.766      -18.419       86.450       84.775       47.039     7473.607     7186.830     2212.670        2.761        0.844      194.967       38.795        0.040      337.974       10.308      864.381
01/16/2015  05:06:00     -196.931       -1.952      -11.356       89.880       61.040       38.465     8078.504     3725.834     1479.526        2.610        0.664      196.940       37.706        0.037      337.952       10.270      864.364
01/16/2015  05:07:00      -73.883      -22.896        2.195       81.436       65.764       35.187     6631.807     4324.901     1238.130        0.909        0.610       77.349       41.892        0.293      337.869       10.135      864.304
01/16/2015  05:08:00     -178.046      -51.272        2.189       93.388       63.221       42.069     8721.268     3996.837     1769.783        2.441        0.724      185.281       43.960        0.056      337.785        9.990      864.265
01/16/2015  05:09:00     -145.502      -84.226        0.031       72.379       67.561       40.457     5238.678     4564.522     1636.759        1.985        0.572      168.121       41.100        0.060      337.679        9.814      864.267
01/16/2015  05:10:00     -163.873      -86.818       -0.890       63.591       60.350       29.678     4043.822     3642.161      880.765        2.148        0.428      185.450       26.531        0.020      337.373        9.301      864.283
01/16/2015  05:11:00     -147.239      -49.779       -2.501       93.441       61.481       34.034     8731.273     3779.956     1158.296        1.891        0.683      155.426       21.769        0.020      337.514        9.538      864.331
01/16/2015  05:12:00     -198.340     -104.804        9.630       92.616       67.593       46.385     8577.782     4568.856     2151.568        3.285        0.765      224.327       47.686        0.045      337.561        9.616      864.355
01/16/2015  05:13:00     -164.315      -74.708       -2.346      115.198       60.681       45.177    13270.484     3682.151     2040.969        2.579        0.950      180.501       55.586        0.095      337.610        9.697      864.336
01/16/2015  05:14:00     -136.493      -55.260       -1.330       40.782       35.668       24.868     1663.174     1272.188      618.395        1.262        0.178      147.255       20.620        0.020      337.547        9.595      864.306
01/16/2015  05:15:00     -165.981      -35.142       -2.869       62.336       48.849       38.495     3885.739     2386.243     1481.897        1.827        0.388      169.660       36.565        0.046      337.604        9.689      864.285
01/16/2015  05:16:00     -160.288      -99.532        8.956       95.852       59.225       40.369     9187.669     3507.643     1629.663        2.500        0.716      188.677       46.151        0.060      337.566        9.624      864.267
01/16/2015  05:17:00     -175.955      -90.953       -4.319       87.815       75.591       41.961     7711.387     5713.944     1760.736        2.722        0.759      198.072       47.630        0.058      337.723        9.888      864.181
01/16/2015  05:18:00     -162.962      -87.412        6.174      133.475       87.354       63.369    17815.525     7630.653     4015.587        3.184        1.473      184.926       64.713        0.122      337.930       10.235      864.087
01/16/2015  05:19:00     -166.117      -71.676       -0.547       85.860       62.408       35.015     7371.908     3894.788     1226.035        2.261        0.625      180.921       33.325        0.034      337.802       10.019      864.057
01/16/2015  05:20:00     -178.834     -121.650        3.902      116.418       80.460       58.059    13553.146     6473.807     3370.797        3.509        1.170      216.288       61.778        0.082      337.658        9.778      864.073
01/16/2015  05:21:00     -220.875     -114.525        6.031      116.611       76.833       54.149    13598.028     5903.248     2932.093        4.218        1.122      248.801       58.840        0.056      337.731        9.901      864.077
01/16/2015  05:22:00     -232.308     -110.248       -8.028      113.701      111.719       50.100    12927.926    12481.095     2510.024        4.705        1.396      257.141       63.900        0.062      337.864       10.125      864.039
01/16/2015  05:23:00      -97.473       -7.647       14.784       73.023       60.433       39.619     5332.326     3652.138     1569.654        1.016        0.528       97.772       43.691        0.200      337.686        9.827      863.941
01/16/2015  05:24:00     -192.067      -70.000       -0.719       84.701       66.838       40.854     7174.249     4467.344     1669.044        2.755        0.666      204.425       39.829        0.038      337.989       10.333      863.914
01/16/2015  05:25:00     -173.396      -48.991       -7.508       62.048       59.575       36.632     3849.916     3549.198     1341.938        2.063        0.437      180.184       32.113        0.032      337.817       10.045      863.898
01/16/2015  05:26:00     -111.609      -53.065       13.248       74.159       57.475       32.258     5499.579     3303.373     1040.564        1.264        0.492      123.582       34.105        0.076      337.687        9.829      863.884
01/16/2015  05:27:00        0.842       29.485       46.765       17.832       34.252       20.348      317.967     1173.198      414.058        0.248        0.095       29.497       20.514        0.484      337.074        8.802      863.847
01/16/2015  05:28:00       81.120       82.953       68.833       79.228       52.256       46.709     6277.068     2730.661     2181.687        1.469        0.559      116.024       43.054        0.138      335.913        6.861      863.769
01/16/2015  05:29:00      106.756      113.889       95.747       78.147       71.041       73.744     6107.020     5046.846     5438.129        2.506        0.830      156.102       61.502        0.155      334.812        5.029      863.665
01/16/2015  05:30:00       85.313       87.149       63.282       38.281       40.577       43.203     1465.462     1646.462     1866.471        1.193        0.249      121.956       28.912        0.056      334.763        4.949      863.578
01/16/2015  05:31:00       35.339       36.754       28.590       45.211       25.298       18.269     2044.044      639.971      333.754        0.322        0.151       50.987       15.842        0.097      334.790        4.994      863.661
01/16/2015  05:32:00      -11.183       -4.259        1.375       21.588       22.230       15.587      466.046      494.192      242.962        0.067        0.060       11.966       14.983        1.568      335.051        5.429      863.808
01/16/2015  05:33:00      -49.488      -72.759        0.603       22.807       30.097       13.307      520.140      905.857      177.068        0.467        0.080       87.994       13.960        0.025      335.436        6.068      863.857
01/16/2015  05:34:00       35.961        8.694       26.720       40.207       51.107       23.021     1616.641     2611.951      529.979        0.342        0.238       36.997       29.252        0.625      335.226        5.721      863.773
01/16/2015  05:35:00      121.706       73.063       29.495       38.583       34.119       28.926     1488.651     1164.130      836.695        1.225        0.174      141.952       15.179        0.011      334.565        4.621      863.605
01/16/2015  05:36:00      135.463       99.138       89.787       77.242       64.426       54.947     5966.382     4150.685     3019.142        2.469        0.657      167.865       39.066        0.054      334.793        4.996      863.455
01/16/2015  05:37:00      102.651       72.882       27.154       51.366       59.153       57.940     2638.473     3499.049     3356.987        1.304        0.475      125.893       42.377        0.113      334.379        4.313      863.458
01/16/2015  05:38:00      112.398       53.389       21.323       30.103       22.904       22.342      906.189      524.598      499.157        0.893        0.096      124.433       13.452        0.012      334.185        3.991      863.512
01/16/2015  05:39:00      129.079       89.471       37.810       36.345       28.279       31.670     1320.980      799.700     1003.014        1.461        0.156      157.056       23.966        0.023      334.067        3.795      863.468
01/16/2015  05:40:00      108.169       57.661       14.974       40.445       24.446       20.216     1635.821      597.595      408.667        0.895        0.132      122.577       12.014        0.010      334.045        3.760      863.480
01/16/2015  05:41:00      -33.405        9.881      -14.376       43.017       47.779       14.381     1850.476     2282.814      206.813        0.288        0.217       34.836       15.774        0.205      334.217        4.044      863.606
01/16/2015  05:42:00     -137.104      -33.362      -14.016       34.310       21.977       16.970     1177.153      482.988      287.972        1.103        0.097      141.105        9.505        0.005      334.277        4.144      863.775
01/16/2015  05:43:00     -102.257       20.556      -15.201       35.507       50.742       17.341     1260.781     2574.787      300.702        0.762        0.207      104.302       13.946        0.018      334.446        4.424      863.846
01/16/2015  05:44:00      -50.871       87.930       -7.085       25.604       21.853       23.214      655.540      477.556      538.899        0.602        0.084      101.585       17.874        0.031      334.662        4.783      863.872
01/16/2015  05:45:00        3.818      158.301      -26.036       26.989       43.403       19.356      728.433     1883.846      374.666        1.437        0.149      158.347       22.304        0.020      334.703        4.850      863.913
01/16/2015  05:46:00        3.935      151.131      -21.866       22.192       43.047       16.946      492.465     1853.077      287.177        1.298        0.132      151.183       22.575        0.022      334.636        4.737      864.009
01/16/2015  05:47:00        2.924       61.552       -2.131       18.328       30.464       18.415      335.901      928.038      339.116        0.270        0.080       61.621       19.332        0.098      334.685        4.821      864.090
01/16/2015  05:48:00       17.767       43.759       -3.067        8.367       11.415        4.621       69.999      130.313       21.351        0.123        0.011       47.228        1.857        0.002      335.150        5.593      864.064
01/16/2015  05:49:00      -15.465       26.973       -2.564       10.348        8.043        4.460      107.078       64.687       19.890        0.058        0.010       31.092        3.977        0.016      335.276        5.802      863.963
01/16/2015  05:50:00       15.064      101.937      -16.871       14.982       25.859        9.800      224.451      668.671       96.035        0.595        0.049      103.044       11.809        0.013      335.357        5.937      863.824
01/16/2015  05:51:00       14.768      138.706      -25.754       20.375       18.019       11.208      415.131      324.698      125.622        1.049        0.043      139.490        9.797        0.005      335.447        6.086      863.726
01/16/2015  05:52:00      -19.844      138.802      -20.297       16.095       15.916       10.707      259.065      253.320      114.634        1.035        0.031      140.213        7.378        0.003      335.689        6.491      863.675
01/16/2015  05:53:00       18.184       74.547       -4.595       23.921       49.429       16.893      572.224     2443.270      285.371        0.460        0.165       76.733       17.802        0.054      335.726        6.553      863.612
01/16/2015  05:54:00      -36.056       21.112      -13.340       49.159       59.414        9.123     2416.583     3530.042       83.231        0.398        0.301       41.782       10.984        0.069      335.553        6.264      863.558
01/16/2015  05:55:00     -121.847      -69.966      -14.423       43.997       35.075       26.684     1935.759     1230.269      712.017        1.191        0.194      140.506       18.922        0.018      335.024        5.384      863.567
01/16/2015  05:56:00     -124.565      -43.587      -12.618       29.988       28.078       14.749      899.265      788.372      217.535        0.974        0.095      131.971       13.328        0.010      335.154        5.600      863.605
01/16/2015  05:57:00     -126.841      -57.124       -3.783       40.940       27.777       20.495     1676.104      771.537      420.039        1.112        0.143      139.110       21.769        0.024      335.070        5.460      863.663
01/16/2015  05:58:00      -84.004      -55.389        5.347       37.039       29.902       19.593     1371.869      894.153      383.869        0.640        0.132      100.621       19.675        0.038      335.199        5.674      863.695
01/16/2015  05:59:00      -83.729      -41.380       -1.392       38.594       30.959       15.980     1489.493      958.482      255.367        0.571        0.135       93.397       18.879        0.041      335.209        5.692      863.701
01/16/2015  06:00:00     -159.652      -87.892       -6.046       36.060       32.343       25.711     1300.352     1046.088      661.068        1.813        0.150      182.247       18.318        0.010      335.271        5.793      863.771
01/16/2015  06:01:00     -129.395      -42.454       -8.421       35.233       30.387       17.562     1241.350      923.366      308.419        1.054        0.124      136.181       17.671        0.017      335.292        5.827      863.801
01/16/2015  06:02:00     -117.017       74.047      -14.896       31.950       53.528       19.960     1020.796     2865.200      398.401        1.184        0.214      138.478       20.904        0.023      335.308        5.856      863.722
01/16/2015  06:03:00     -119.388      126.900      -25.554       60.891       42.631       26.461     3707.695     1817.394      700.169        1.862        0.311      174.233       24.579        0.020      335.369        5.955      863.625
01/16/2015  06:04:00     -160.269       55.841      -23.070       31.147       39.219       21.636      970.156     1538.118      468.129        1.616        0.149      169.719       12.627        0.006      335.209        5.692      863.614
01/16/2015  06:05:00      -70.869      -26.113       -2.352       41.303       25.527       21.102     1705.942      651.611      445.282        0.426        0.140       75.527       21.728        0.083      335.269        5.791      863.629
01/16/2015  06:06:00      -89.929      -41.803      -13.870       49.381       30.274       19.538     2438.464      916.532      381.750        0.688        0.187       99.170       21.497        0.047      335.163        5.615      863.631
01/16/2015  06:07:00     -116.806      -15.920       -7.500       32.233       41.157       23.948     1038.995     1693.938      573.498        0.863        0.165      117.886       15.090        0.016      335.107        5.522      863.602
01/16/2015  06:08:00      -58.039       -7.681      -10.526       46.687       26.505       20.717     2179.659      702.518      429.193        0.342        0.166       58.545       18.911        0.104      335.541        6.243      863.545
01/16/2015  06:09:00      -57.769      -29.541       -3.492       33.463       19.172       12.474     1119.751      367.552      155.600        0.293        0.082       64.884       10.214        0.025      336.082        7.145      863.585
01/16/2015  06:10:00     -113.846      -68.085       -9.646       35.062       22.670       19.216     1229.347      513.935      369.236        0.990        0.106      132.652       17.186        0.017      335.451        6.093      863.706
01/16/2015  06:11:00     -136.688      -72.604      -10.110       27.382       19.599       12.952      749.750      384.103      167.765        1.268        0.065      154.774        8.188        0.003      335.299        5.840      863.803
01/16/2015  06:12:00      -58.788      -24.906        1.979       52.690       26.255       11.229     2776.269      689.325      126.092        0.384        0.180       63.846       17.672        0.077      335.321        5.876      863.778
01/16/2015  06:13:00       69.742       24.104        2.002       26.048       16.522       11.646      678.495      272.982      135.627        0.327        0.054       73.789        8.371        0.013      335.817        6.704      863.651
01/16/2015  06:14:00       52.375       33.920       19.946       33.283       24.884       26.524     1107.757      619.224      703.524        0.336        0.122       62.399       19.411        0.097      335.908        6.856      863.600
01/16/2015  06:15:00       69.839       12.966       14.834       26.522       22.975       18.427      703.398      527.840      339.551        0.342        0.079       71.032       16.126        0.052      335.833        6.730      863.614
01/16/2015  06:16:00       50.853       32.963       25.855       24.765       26.893       27.674      613.299      723.221      765.869        0.322        0.105       60.602       20.950        0.120      335.846        6.753      863.641
01/16/2015  06:17:00       12.090       11.432       14.181       17.404       13.452       12.731      302.898      180.963      162.084        0.056        0.032       16.639        8.460        0.259      335.711        6.527      863.700
01/16/2015  06:18:00      -26.971      128.381      -15.490       24.994       34.090       15.222      624.678     1162.145      231.720        0.973        0.101      131.184       20.085        0.023      335.959        6.938      863.702
01/16/2015  06:19:00      -55.091       93.307      -22.516       21.041       23.210       10.728      442.739      538.685      115.100        0.667        0.055      108.357        7.484        0.005      336.249        7.423      863.710
01/16/2015  06:20:00      -52.545       60.866      -19.264       11.680       15.007        8.113      136.423      225.223       65.816        0.363        0.021       80.409        8.814        0.012      336.772        8.299      863.773
01/16/2015  06:21:00      -64.749       25.548      -11.368       26.226       16.911       11.446      687.800      285.998      131.020        0.304        0.055       69.607        8.642        0.015      336.240        7.409      863.818
01/16/2015  06:22:00      -68.046       91.735      -16.392       28.615       65.919       17.387      818.830     4345.335      302.325        0.939        0.273      114.217       16.740        0.021      336.864        8.452      863.855
01/16/2015  06:23:00      -74.508      106.901      -13.492       23.106       47.648       17.394      533.886     2270.295      302.556        1.013        0.155      130.304       19.062        0.021      336.926        8.555      863.866
01/16/2015  06:24:00      -92.901      -35.015      -14.880       32.134       22.795       23.042     1032.591      519.598      530.920        0.608        0.104       99.280       22.178        0.050      335.763        6.613      863.853
01/16/2015  06:25:00     -121.645      -33.913      -20.634       16.049       26.303       13.684      257.558      691.853      187.261        0.875        0.057      126.284        6.592        0.003      335.552        6.262      863.873
01/16/2015  06:26:00     -123.139      -20.425      -24.281       20.208       16.236       10.278      408.381      263.622      105.631        0.847        0.039      124.822       10.102        0.007      335.765        6.616      863.906
01/16/2015  06:27:00     -104.894       25.008      -22.669       46.371       23.568       14.091     2150.243      555.471      198.570        0.752        0.145      107.834       19.160        0.032      336.637        8.074      863.890
01/16/2015  06:28:00       26.574       56.082        3.222       22.859       14.841       12.649      522.516      220.263      159.992        0.238        0.045       62.060       11.258        0.033      337.681        9.821      863.714
01/16/2015  06:29:00     -108.192      -39.876      -17.237       74.806       51.733       16.920     5595.925     2676.333      286.289        1.107        0.428      115.307       19.438        0.028      336.663        8.117      863.860
01/16/2015  06:30:00     -184.340      -93.931       -9.890       70.647       50.141       36.719     4991.066     2514.162     1348.293        2.588        0.443      206.892       40.071        0.038      335.711        6.525      864.064
01/16/2015  06:31:00      -96.610       -1.071        6.618       42.875       64.198       26.177     1838.288     4121.446      685.224        0.801        0.332       96.616       22.815        0.056      335.889        6.824      863.982
01/16/2015  06:32:00     -106.486      150.662      -30.615       30.254       46.178       19.037      915.283     2132.409      362.424        1.919        0.171      184.494       12.342        0.004      336.271        7.460      863.773
01/16/2015  06:33:00     -206.514      169.244      -26.341       75.025       75.950       56.223     5628.744     5768.399     3161.019        4.327        0.728      267.005       50.990        0.036      336.630        8.058      863.600
01/16/2015  06:34:00     -199.551      108.326      -28.801       60.794       93.666       40.652     3695.935     8773.359     1652.604        3.325        0.706      227.057       48.459        0.046      336.936        8.570      863.654
01/16/2015  06:35:00     -123.904      -88.372       -1.128       76.376       92.073       39.800     5833.259     8477.372     1584.014        1.953        0.795      152.190       38.285        0.063      336.578        7.974      863.906
01/16/2015  06:36:00     -140.569      -82.286       -3.596       96.801      102.812       49.516     9370.472    10570.228     2451.823        2.446        1.120      162.882       39.424        0.059      336.360        7.607      864.013
01/16/2015  06:37:00      -66.224      115.422       -9.962       39.955       39.502       29.467     1596.441     1560.401      868.285        1.092        0.201      133.071       19.989        0.023      336.812        8.366      863.744
01/16/2015  06:38:00      -22.334      105.814      -22.960       31.105       65.648       14.514      967.510     4309.634      210.668        0.885        0.274      108.146       15.952        0.022      337.445        9.423      863.654
01/16/2015  06:39:00       11.772      -40.887       14.907       33.436       29.144       35.663     1117.976      849.402     1271.829        0.264        0.162       42.548       26.958        0.401      337.076        8.805      863.796
01/16/2015  06:40:00      -34.993      -50.860        7.184       43.171       41.506       25.307     1863.755     1722.737      640.465        0.404        0.211       61.735       27.256        0.195      337.214        9.037      863.793
01/16/2015  06:41:00      -87.427      -31.510       -6.560       34.621       18.524       13.448     1198.640      343.139      180.841        0.520        0.086       92.932       14.064        0.023      337.347        9.259      863.735
01/16/2015  06:42:00     -148.185      -67.899      -11.335       28.235       23.749       12.441      797.218      564.020      154.773        1.411        0.076      163.000       12.700        0.006      337.324        9.222      863.832
01/16/2015  06:43:00     -101.154      -11.279       -8.271       23.985       27.398       14.558      575.261      750.627      211.933        0.598        0.077      101.781       14.811        0.021      337.233        9.070      863.817
01/16/2015  06:44:00     -134.104       27.319      -13.656       30.755       19.553       13.398      945.878      382.330      179.510        1.021        0.075      136.859       10.002        0.005      337.099        8.843      863.766
01/16/2015  06:45:00       10.848       82.897       -6.943       50.289       23.525       19.672     2529.030      553.413      386.974        0.525        0.173       83.603       14.966        0.032      337.590        9.666      863.725
01/16/2015  06:46:00       93.014      100.267      -12.479       53.045       41.997       37.286     2813.819     1763.757     1390.272        1.241        0.298      136.767       31.165        0.052      337.780        9.986      863.577
01/16/2015  06:47:00       20.427      113.947      -20.746       27.245       46.454       25.990      742.285     2158.014      675.457        0.870        0.179      115.764       24.186        0.044      337.400        9.349      863.588
01/16/2015  06:48:00       -3.198      211.968      -35.298       32.236       38.321       16.514     1039.151     1468.478      272.701        2.448        0.139      211.992       14.645        0.005      338.050       10.435      863.614
01/16/2015  06:49:00      -10.317      132.930      -27.112       19.657       25.867       17.089      386.392      669.090      292.019        0.993        0.067      133.329       16.358        0.015      338.355       10.950      863.674
01/16/2015  06:50:00       -0.420       86.429      -18.224       21.462       23.425       11.767      460.635      548.712      138.460        0.447        0.057       86.431        9.559        0.012      338.325       10.899      863.710
01/16/2015  06:51:00      -72.698        5.766       -3.214       33.912       58.979       21.637     1150.040     3478.495      468.155        0.521        0.255       72.927       19.354        0.070      337.339        9.248      863.761
01/16/2015  06:52:00      -47.998        9.722       -6.347       29.440       20.706       11.336      866.695      428.747      128.512        0.193        0.071       48.973        4.705        0.009      336.771        8.297      863.745
01/16/2015  06:53:00      -15.740       80.475       -9.433       30.056       36.243       14.890      903.337     1313.533      221.713        0.463        0.122       82.000       10.763        0.017      337.317        9.210      863.761
01/16/2015  06:54:00       30.041       -8.603        6.163       12.482       19.821       13.026      155.800      392.871      169.679        0.087        0.036       31.248       11.089        0.126      336.858        8.443      863.821
01/16/2015  06:55:00       41.377       33.368       26.537       30.300       19.851       18.270      918.084      394.046      333.775        0.259        0.082       53.155        8.642        0.026      336.791        8.330      863.695
01/16/2015  06:56:00       -8.895      140.482      -17.485       44.708       67.730       24.178     1998.802     4587.404      584.592        1.364        0.359      140.764       30.634        0.047      336.996        8.673      863.621
01/16/2015  06:57:00      -71.039      -24.328       -9.111       28.452       47.561       20.199      809.498     2262.025      408.013        0.460        0.174       75.089       13.667        0.033      336.756        8.271      863.738
01/16/2015  06:58:00       -3.852      -12.329       15.096       29.269       15.819       21.942      856.678      250.246      481.462        0.099        0.079       12.917       20.596        2.542      336.517        7.873      863.789
01/16/2015  06:59:00      -17.512      -38.589      -10.142       14.934        9.535        7.740      223.012       90.923       59.911        0.114        0.019       42.377        3.997        0.009      336.954        8.602      863.729
01/16/2015  07:00:00      -73.453      -58.469       -6.152       30.752       23.924       21.120      945.698      572.376      446.052        0.541        0.098       93.882       16.003        0.029      336.962        8.615      863.709
01/16/2015  07:01:00      -49.958      -27.017       -4.452       32.657       29.522       19.766     1066.486      871.568      390.710        0.279        0.116       56.796       11.545        0.041      336.827        8.392      863.697
01/16/2015  07:02:00      -59.205      -26.708      -12.440       14.845       27.661        8.164      220.378      765.155       66.655        0.271        0.053       64.951        8.620        0.018      336.746        8.255      863.640
01/16/2015  07:03:00     -108.724     -113.383      -14.418       30.112       30.762       14.942      906.745      946.291      223.257        1.348        0.104      157.087        9.709        0.004      337.181        8.983      863.718
01/16/2015  07:04:00      -67.082      -88.880       -0.504       44.339       48.960       24.884     1965.982     2397.101      619.234        0.869        0.249      111.354       21.992        0.039      337.783        9.991      863.787
01/16/2015  07:05:00       45.255       15.475       18.095       36.864       51.882       29.191     1358.965     2691.792      852.119        0.376        0.245       47.827       35.386        0.547      338.042       10.424      863.702
01/16/2015  07:06:00       15.069      101.223      -17.184       41.872       31.064       18.234     1753.286      964.954      332.487        0.691        0.153      102.338       10.765        0.011      337.319        9.214      863.723
01/16/2015  07:07:00       -2.440      105.300      -15.534       25.891       19.200       10.647      670.336      368.638      113.348        0.624        0.058      105.328        9.005        0.007      337.904       10.193      863.719
01/16/2015  07:08:00      -65.514       10.758      -15.039       13.358       31.237       10.022      178.429      975.777      100.448        0.294        0.063       66.391        5.981        0.008      337.738        9.916      863.808
01/16/2015  07:09:00     -138.871      -10.007      -22.937       32.737       20.851       15.023     1071.738      434.769      225.676        1.082        0.087      139.231       13.970        0.010      336.605        8.020      863.942
01/16/2015  07:10:00     -118.467        9.446      -19.921       39.582       26.963       15.631     1566.725      727.012      244.341        0.853        0.127      118.843        9.633        0.007      336.552        7.930      863.935
01/16/2015  07:11:00      -38.194      104.897      -18.321       32.213       36.989       10.869     1037.651     1368.170      118.127        0.766        0.126      111.634        9.941        0.008      337.709        9.866      863.849
01/16/2015  07:12:00      -21.130      148.953      -22.734       37.277       47.750       24.539     1389.577     2280.084      602.173        1.371        0.214      150.444       26.677        0.031      338.079       10.486      863.826
01/16/2015  07:13:00      -46.176      249.468      -35.374       36.125       54.872       20.790     1304.984     3010.958      432.209        3.518        0.237      253.705       18.149        0.005      338.258       10.783      863.823
01/16/2015  07:14:00     -104.045      162.312      -30.117       59.623       87.501       35.601     3554.921     7656.416     1267.413        2.528        0.624      192.796       37.636        0.038      338.093       10.509      863.894
01/16/2015  07:15:00     -121.253       44.643      -31.589       47.614      104.625       37.475     2267.064    10946.418     1404.401        1.615        0.731      129.210       17.188        0.018      337.103        8.851      863.922
01/16/2015  07:16:00     -239.347      -61.744      -17.896       82.710       49.914       41.195     6840.935     2491.413     1696.993        3.622        0.551      247.183       36.066        0.021      336.592        7.993      863.971
01/16/2015  07:17:00     -171.976       -1.712      -13.761       51.581       35.642       25.185     2660.573     1270.365      634.290        1.717        0.228      171.985       21.922        0.016      337.144        8.919      864.000
01/16/2015  07:18:00     -102.635       73.313      -21.779       26.533       37.307       14.020      704.022     1391.837      196.567        0.934        0.115      126.130       13.530        0.012      337.937       10.249      863.941
01/16/2015  07:19:00     -103.525       79.291      -33.214       20.472       26.440       16.595      419.086      699.089      275.402        0.975        0.070      130.401       15.924        0.015      338.671       11.480      863.977
01/16/2015  07:20:00       -2.640       48.971       -9.671       42.162       16.150       11.966     1777.639      260.835      143.195        0.234        0.109       49.042       15.227        0.096      338.637       11.422      864.027
01/16/2015  07:21:00       30.504       -0.755       -7.223       28.644       32.145        9.056      820.491     1033.277       82.013        0.146        0.097       30.513       16.029        0.276      338.698       11.526      864.050
01/16/2015  07:22:00        0.843      -74.796        4.088       23.726       41.061       19.238      562.909     1686.009      370.092        0.411        0.131       74.801       14.987        0.040      337.859       10.119      864.043
01/16/2015  07:23:00       -4.175      -29.265        3.878       19.538       26.705       11.141      381.746      713.134      124.121        0.105        0.061       29.561       12.500        0.179      337.698        9.849      863.964
01/16/2015  07:24:00       28.642       53.166       -7.918       28.481       31.365       25.064      811.194      983.784      628.204        0.307        0.121       60.390       23.110        0.146      337.010        8.697      863.997
01/16/2015  07:25:00       97.436       43.573       12.918       35.444       24.369       19.775     1256.255      593.871      391.036        0.690        0.112      106.735       15.873        0.022      336.809        8.361      864.065
01/16/2015  07:26:00       -2.739       71.433       -5.762       42.595       25.304       21.893     1814.324      640.298      479.313        0.404        0.147       71.485       27.147        0.144      337.584        9.658      864.099
01/16/2015  07:27:00      -47.208       98.536      -15.096       24.145       44.561       13.495      582.972     1985.652      182.125        0.746        0.138      109.261       12.810        0.014      337.582        9.653      864.031
01/16/2015  07:28:00      -42.105      159.273      -30.967       14.583       20.935       14.557      212.652      438.294      211.920        1.448        0.043      164.745        9.923        0.004      337.741        9.920      863.856
01/16/2015  07:29:00        9.585      -11.980       -4.378       36.211       77.150       20.732     1311.241     5952.086      429.820        0.397        0.385       15.343       16.902        1.214      337.714        9.874      863.854
01/16/2015  07:30:00       44.327      -87.821      -17.963       41.157       42.020       30.178     1693.909     1765.712      910.700        0.718        0.219       98.373       30.339        0.095      337.286        9.158      863.916
01/16/2015  07:31:00       31.108      -95.186       -7.597       42.757       60.736       34.596     1828.124     3688.918     1196.908        0.840        0.336      100.140       29.210        0.085      337.261        9.116      863.932
01/16/2015  07:32:00       18.219      -24.052        5.602       33.956       59.646       38.932     1153.041     3557.654     1515.713        0.358        0.311       30.173       25.945        0.739      337.018        8.708      863.922
01/16/2015  07:33:00       39.561     -110.130      -28.087       34.940       53.471       30.705     1220.827     2859.120      942.827        0.975        0.251      117.020       22.354        0.036      336.988        8.659      863.960
01/16/2015  07:34:00       13.086       31.341       42.976       36.443       40.910       38.854     1328.087     1673.658     1509.632        0.376        0.226       33.964       23.948        0.497      336.772        8.300      863.951
01/16/2015  07:35:00       10.941       17.769       60.138       32.430       34.839       28.510     1051.691     1213.784      812.836        0.356        0.154       20.868       12.657        0.368      336.886        8.489      863.893
01/16/2015  07:36:00       70.101       45.361       37.117       49.594       76.834       37.245     2459.518     5903.481     1387.213        0.905        0.488       83.498        9.726        0.014      336.937        8.573      863.843
01/16/2015  07:37:00       60.505       49.372       64.393       68.266       93.282       48.700     4660.192     8701.613     2371.688        1.299        0.787       78.092       46.348        0.352      336.786        8.321      863.794
01/16/2015  07:38:00      -74.444      -75.889       -2.737      129.664       69.575       39.259    16812.793     4840.711     1541.260        1.725        1.160      106.306       30.717        0.083      336.808        8.358      864.063
01/16/2015  07:39:00     -140.836      -94.011       -6.624       92.380       81.197       38.157     8533.985     6592.993     1455.965        2.265        0.829      169.331       42.257        0.062      336.888        8.490      864.197
01/16/2015  07:40:00       46.869      -19.904       44.991       93.957       99.196       71.808     8827.977     9839.835     5156.384        1.422        1.191       50.920       73.550        2.086      337.319        9.213      864.164
01/16/2015  07:41:00       16.124      -59.189       43.030       64.458      110.541       70.360     4154.857    12219.248     4950.566        1.347        1.066       61.346       70.717        1.329      337.599        9.682      864.076
01/16/2015  07:42:00      -76.950       -7.621       -0.663       60.096       54.189       29.140     3611.535     2936.431      849.121        0.669        0.370       77.326       28.942        0.140      337.289        9.163      864.084
01/16/2015  07:43:00     -137.698      -76.319        0.550       77.045       42.883       28.015     5935.988     1838.974      784.851        1.667        0.428      157.434       18.448        0.014      336.930        8.560      864.123
01/16/2015  07:44:00     -103.110     -104.514        6.633      105.306       69.352       51.274    11089.272     4809.706     2629.006        2.006        0.926      146.816       52.987        0.130      337.155        8.937      864.222
01/16/2015  07:45:00       79.289     -108.184       29.914       72.573      115.932       73.409     5266.865    13440.181     5388.898        2.149        1.205      134.129       79.586        0.352      337.717        9.879      864.209
01/16/2015  07:46:00       33.158      -45.690        2.540       51.285       56.787       31.414     2630.199     3224.780      986.841        0.502        0.342       56.454       22.403        0.157      337.661        9.786      864.208
01/16/2015  07:47:00       79.333      -50.354        8.399       73.303       76.688       42.582     5373.389     5881.123     1813.246        1.098        0.653       93.964       55.441        0.348      337.581        9.652      864.223
01/16/2015  07:48:00       32.456       31.404       57.452       34.624       39.722       32.768     1198.836     1577.825     1073.757        0.459        0.193       45.162       29.151        0.417      338.090       10.505      864.250
01/16/2015  07:49:00      -18.007       -4.356        0.718       24.033       17.949       14.549      577.575      322.182      211.664        0.073        0.056       18.526       11.077        0.358      338.143       10.595      864.298
01/16/2015  07:50:00        5.043       20.453        7.804       26.629       20.249       13.203      709.109      410.041      174.331        0.090        0.065       21.066       15.427        0.536      337.812       10.038      864.256
01/16/2015  07:51:00       23.040      -14.448        8.487       33.244       32.253       24.812     1105.135     1040.236      615.648        0.179        0.138       27.195       23.343        0.737      337.703        9.857      864.236
01/16/2015  07:52:00      -71.417      -36.913       -7.927       73.642       48.256       24.088     5423.088     2328.615      580.227        0.743        0.417       80.392       31.611        0.155      338.051       10.438      864.302
01/16/2015  07:53:00      -72.327     -103.485        4.157       69.265       49.896       29.432     4797.598     2489.596      866.233        1.205        0.408      126.255       31.305        0.061      338.446       11.103      864.211
01/16/2015  07:54:00       -7.675      -67.581        3.650       80.154       42.455       28.986     6424.594     1802.399      840.172        0.685        0.453       68.015       30.862        0.206      338.323       10.898      864.279
01/16/2015  07:55:00     -111.136      -38.073        4.899      122.366       99.138       45.056    14973.328     9828.248     2030.067        2.032        1.342      117.476       52.612        0.201      338.258       10.786      864.333
01/16/2015  07:56:00     -285.593     -137.121       -2.689      134.052      121.762       69.863    17969.997    14826.059     4880.891        6.902        1.884      316.805       66.332        0.044      338.488       11.170      864.302
01/16/2015  07:57:00     -197.951      -74.711        5.638      157.541       66.581       51.552    24819.237     4432.970     2657.608        3.835        1.595      211.581       58.405        0.076      338.346       10.932      864.357
01/16/2015  07:58:00     -224.814     -177.946      -16.177      149.412      171.602       72.723    22323.819    29447.162     5288.627        6.975        2.853      286.716       71.430        0.062      338.514       11.214      864.346
01/16/2015  07:59:00     -235.989     -170.661      -10.340      222.061      142.536       71.620    49311.225    20316.413     5129.479        7.983        3.738      291.232       92.064        0.100      338.621       11.392      864.311
01/16/2015  08:00:00     -256.347     -149.104      -15.908      151.350      208.994       72.017    22906.738    43678.567     5186.377        7.997        3.589      296.556       72.566        0.060      338.544       11.265      864.290
01/16/2015  08:01:00     -317.523      -37.461       -7.411      224.720      130.474       68.974    50498.949    17023.429     4757.396        8.727        3.614      319.725       92.426        0.084      338.454       11.113      864.269
01/16/2015  08:02:00     -241.600     -123.333       -2.484      213.520      174.346       76.104    45590.632    30396.482     5791.823        7.767        4.089      271.259      106.155        0.153      338.529       11.241      864.416
01/16/2015  08:03:00     -321.152     -269.936      -12.114      200.535      166.420       98.990    40214.425    27695.651     9799.057       12.692        3.885      419.529       97.716        0.054      338.575       11.316      864.399
01/16/2015  08:04:00     -375.310     -154.009      -23.694      220.933      149.135       98.188    48811.172    22241.252     9640.928       12.290        4.035      405.680      116.536        0.083      338.656       11.453      864.314
01/16/2015  08:05:00     -271.178     -133.379      -21.689      125.027      118.610       63.512    15631.820    14068.417     4033.730        6.276        1.687      302.204       61.114        0.041      338.674       11.483      864.309
01/16/2015  08:06:00     -259.031     -144.668        1.569      125.729      125.061       66.637    15807.841    15640.179     4440.486        6.195        1.794      296.692       68.176        0.053      338.669       11.475      864.290
01/16/2015  08:07:00     -206.296     -142.724      -10.288      149.672      177.098       94.881    22401.841    31363.651     9002.462        6.289        3.138      250.854       91.541        0.133      338.588       11.338      864.276
01/16/2015  08:08:00     -140.331      -69.271       -1.996      142.189      150.253       64.585    20217.581    22575.947     4171.161        3.572        2.348      156.497       55.043        0.124      338.603       11.365      864.252
01/16/2015  08:09:00     -339.939     -287.030       -3.319      211.315      222.496      112.640    44654.036    49504.617    12687.760       15.238        5.342      444.910      115.873        0.068      338.630       11.409      864.201
01/16/2015  08:10:00     -351.749     -173.493       -0.041      237.358      164.572       99.776    56338.594    27083.994     9955.266       12.359        4.669      392.208      109.028        0.077      338.606       11.368      864.144
01/16/2015  08:11:00     -347.927     -181.597        5.694      219.659      209.656      108.998    48250.275    43955.815    11880.658       12.906        5.204      392.468      104.253        0.071      338.587       11.337      864.220
01/16/2015  08:12:00     -333.806     -197.139      -12.878      154.996      150.902       74.755    24023.787    22771.468     5588.260       10.141        2.619      387.673       63.915        0.027      338.558       11.287      864.239
01/16/2015  08:13:00     -404.430     -228.680        2.490      214.548      171.884       99.685    46030.930    29543.976     9937.177       15.067        4.276      464.605      115.582        0.062      338.627       11.405      864.174
01/16/2015  08:14:00     -224.994     -136.917       -5.553      175.853      152.596       82.319    30924.152    23285.452     6776.460        6.518        3.049      263.379       94.145        0.128      338.609       11.374      864.154
01/16/2015  08:15:00     -317.350     -198.510      -26.772      183.861      172.912       81.107    33804.688    29898.679     6578.362       10.555        3.514      374.323       68.553        0.034      338.597       11.355      864.257
01/16/2015  08:16:00     -383.867     -127.305       10.200      272.693      226.597      120.789    74361.366    51346.093    14589.988       15.196        7.015      404.426      118.683        0.086      338.596       11.351      864.341
01/16/2015  08:17:00     -468.786     -167.096      -20.661      178.675      169.369       98.277    31924.806    28685.941     9658.300       15.918        3.513      497.675       95.055        0.036      338.599       11.356      864.265
01/16/2015  08:18:00     -279.747     -189.224       -9.277      186.103      132.979       77.960    34634.512    17683.443     6077.751        8.626        2.920      337.734       92.286        0.075      338.611       11.377      864.265
01/16/2015  08:19:00     -322.029     -215.195      -15.460      205.135      136.932       92.425    42080.237    18750.445     8542.433       10.980        3.469      387.314       95.406        0.061      338.611       11.378      864.452
01/16/2015  08:20:00     -194.699     -234.752        4.547      112.980      129.642       72.272    12764.590    16807.085     5223.176        6.391        1.740      304.985       54.336        0.032      338.603       11.363      864.514
01/16/2015  08:21:00     -310.382     -137.128        2.153      190.144      147.528       70.043    36154.754    21764.626     4906.003        8.898        3.141      339.325       81.139        0.057      338.569       11.308      864.498
01/16/2015  08:22:00     -206.815     -218.850       17.750      204.580      196.607      100.829    41852.916    38654.281    10166.525        9.081        4.534      301.111      116.276        0.149      338.546       11.267      864.556
01/16/2015  08:23:00     -331.197     -179.561        2.238      207.232      228.864      111.427    42945.095    52378.675    12416.043       12.482        5.387      376.741      111.982        0.088      338.639       11.425      864.493
01/16/2015  08:24:00     -229.686     -266.411       -3.661      155.200      130.607       75.306    24087.169    17058.081     5671.045        8.527        2.341      351.754       82.002        0.054      338.872       11.816      864.421
01/16/2015  08:25:00     -388.703      -94.605       -8.759      147.597      166.051       72.315    21784.876    27572.830     5229.479       10.734        2.729      400.050       87.381        0.048      338.884       11.837      864.501
01/16/2015  08:26:00     -257.200      -78.862       18.333      149.411      125.333       78.270    22323.629    15708.435     6126.205        5.843        2.208      269.018       75.080        0.078      338.827       11.740      864.651
01/16/2015  08:27:00     -201.201     -201.684        2.527      144.439      139.118       73.274    20862.699    19353.711     5369.113        6.337        2.279      284.883       64.654        0.052      338.710       11.544      864.616
01/16/2015  08:28:00     -133.784     -106.233        4.036      116.787      122.048       70.728    13639.109    14895.792     5002.384        3.136        1.677      170.831       72.795        0.182      338.613       11.383      864.585
01/16/2015  08:29:00     -241.123     -138.525       -7.960      191.196      115.016       70.063    36555.750    13228.646     4908.843        6.603        2.735      278.082       83.128        0.089      338.614       11.384      864.568
01/16/2015  08:30:00     -241.647      -98.889        2.428      178.908      143.916       77.919    32008.039    20711.860     6071.436        6.347        2.940      261.098       88.106        0.114      338.564       11.299      864.664
01/16/2015  08:31:00     -226.443     -185.762        2.627      200.126      153.403       98.903    40050.547    23532.487     9781.884        7.957        3.668      292.889       96.181        0.108      338.664       11.466      864.721
01/16/2015  08:32:00     -319.868      -77.655      -13.791      166.246      155.104       81.931    27637.577    24057.385     6712.696        8.346        2.920      329.159       86.421        0.069      338.677       11.487      864.775
01/16/2015  08:33:00     -134.161     -103.553        8.117      106.099      112.200       75.779    11257.029    12588.852     5742.480        2.918        1.479      169.477       74.508        0.193      338.629       11.408      864.829
01/16/2015  08:34:00     -259.153     -217.630      -19.018      211.699      151.268       98.660    44816.390    22881.934     9733.701        9.615        3.872      338.412       99.913        0.087      338.573       11.311      864.820
01/16/2015  08:35:00     -185.551      -54.567        0.128      144.640      129.190       83.748    20920.692    16690.038     7013.783        4.101        2.231      193.408       72.550        0.141      338.444       11.097      864.754
01/16/2015  08:36:00     -387.788     -129.943      -12.601      257.058      189.803       94.384    66078.596    36025.303     8908.306       13.920        5.551      408.980      115.153        0.079      338.414       11.047      864.705
01/16/2015  08:37:00     -205.353      -60.480       11.048      164.406      157.934       77.006    27029.394    24943.005     5929.993        5.192        2.895      214.074       84.193        0.155      338.356       10.949      864.681
01/16/2015  08:38:00     -245.736      -99.636        9.754      185.302      168.961       84.526    34336.789    28547.962     7144.693        7.021        3.501      265.167       92.685        0.122      338.300       10.855      864.702
01/16/2015  08:39:00     -229.328     -197.838        8.640      183.066      177.698       97.992    33513.198    31576.634     9602.518        8.324        3.735      302.872      107.128        0.125      338.321       10.890      864.697
01/16/2015  08:40:00     -236.835     -116.702      -15.833      145.566       99.772       64.636    21189.476     9954.371     4177.825        5.264        1.766      264.027       67.347        0.065      338.293       10.843      864.683
01/16/2015  08:41:00     -426.043     -113.331      -11.482      237.693      163.127       81.903    56498.050    26610.542     6708.095       14.214        4.491      440.859       99.888        0.051      338.248       10.767      864.639
01/16/2015  08:42:00     -346.660     -168.335      -27.568      202.518      131.869       80.823    41013.727    17389.304     6532.312       10.709        3.247      385.370       91.527        0.056      338.223       10.727      864.732
01/16/2015  08:43:00     -231.092     -110.676      -15.244      176.802      111.056       65.667    31258.920    12333.493     4312.115        5.689        2.395      256.228       83.111        0.105      338.242       10.758      864.688
01/16/2015  08:44:00     -368.315      -84.018       -2.080      197.110      128.755       79.697    38852.166    16577.851     6351.609       10.224        3.089      377.777       89.477        0.056      338.226       10.730      864.641
01/16/2015  08:45:00     -460.370      -58.453      -26.422      262.553      162.879      104.247    68934.275    26529.586    10867.496       16.118        5.317      464.066      128.828        0.077      338.228       10.734      864.591
01/16/2015  08:46:00     -395.531     -136.959       -7.947      254.414      190.840      115.770    64726.373    36419.908    13402.669       14.489        5.727      418.572      128.091        0.094      338.245       10.761      864.661
01/16/2015  08:47:00     -311.493     -118.728       -6.360      166.546      134.865       79.691    27737.626    18188.452     6350.679        8.171        2.614      333.353       77.696        0.054      338.214       10.711      864.654
01/16/2015  08:48:00     -181.145     -124.175       -2.270      186.714      120.501       72.404    34862.233    14520.429     5242.324        5.142        2.731      219.620       92.416        0.177      338.207       10.699      864.718
01/16/2015  08:49:00     -200.650     -101.436       12.162      144.394       95.634       68.523    20849.615     9145.924     4695.350        4.269        1.735      224.833       73.324        0.106      338.200       10.686      864.760
01/16/2015  08:50:00     -142.520      -72.466        4.315      166.177      109.661       71.512    27614.799    12025.543     5113.962        3.516        2.238      159.885       59.096        0.137      338.217       10.716      864.827
01/16/2015  08:51:00     -305.011     -199.818      -17.455      170.179      129.748       76.589    28960.733    16834.602     5865.941        9.245        2.583      364.635       80.851        0.049      338.273       10.810      864.862
01/16/2015  08:52:00     -298.754     -103.690        2.406      211.272      227.744      107.042    44635.826    51867.507    11458.081       10.397        5.398      316.236      116.194        0.135      338.220       10.721      864.886
01/16/2015  08:53:00      -99.162      -62.059       15.326      121.953       95.177       62.032    14872.460     9058.654     3847.992        2.084        1.389      116.981       55.497        0.225      338.226       10.732      864.778
01/16/2015  08:54:00      -97.116      -28.585       13.565      110.538       84.439       61.182    12218.732     7129.885     3743.288        1.676        1.155      101.235       73.907        0.533      338.172       10.642      864.796
01/16/2015  08:55:00     -219.480     -319.375        0.071      195.936      197.541       91.169    38390.826    39022.602     8311.861       11.793        4.286      387.520       93.940        0.059      338.313       10.876      864.888
01/16/2015  08:56:00     -236.048      -53.939       -1.476      145.190      174.801       73.396    21080.015    30555.430     5387.045        5.782        2.851      242.133       81.283        0.113      338.308       10.870      864.998
01/16/2015  08:57:00     -250.170     -181.484      -16.042      195.589      159.742       75.980    38254.912    25517.485     5772.991        8.265        3.477      309.065       71.402        0.053      338.292       10.843      865.093
01/16/2015  08:58:00     -218.206     -143.205        9.694      174.632      132.700       81.655    30496.254    17609.353     6667.508        6.149        2.739      261.002       89.248        0.117      338.294       10.844      865.098
01/16/2015  08:59:00      -82.488      -35.064       17.969       92.751       67.761       44.108     8602.839     4591.530     1945.500        1.175        0.757       89.631       52.954        0.349      338.198       10.686      865.177
01/16/2015  09:00:00       18.620       97.952       25.386       67.814       53.315       38.520     4598.791     2842.524     1483.791        0.975        0.446       99.706       21.547        0.047      338.029       10.401      865.083
01/16/2015  09:01:00      -90.442       23.663        0.281       62.213       65.627       45.032     3870.502     4306.905     2027.891        0.947        0.510       93.486       38.434        0.169      337.998       10.351      865.148
01/16/2015  09:02:00      -52.407       -5.231       11.023       62.417       78.305       55.959     3895.939     6131.633     3131.437        0.803        0.658       52.668       33.460        0.404      337.947       10.265      865.246
01/16/2015  09:03:00       52.847       52.304       66.745       61.219       51.719       44.396     3747.823     2674.876     1971.049        0.919        0.420       74.355       28.869        0.151      337.729        9.900      865.211
01/16/2015  09:04:00       37.997      -44.874       34.844       50.004      104.760       58.032     2500.447    10974.720     3367.708        1.075        0.842       58.800       73.281        1.553      337.774        9.975      865.309
01/16/2015  09:05:00       53.204       10.943       55.113       74.928      121.952       84.741     5614.241    14872.237     7181.073        1.682        1.383       54.318       96.521        3.158      337.765        9.958      865.265
01/16/2015  09:06:00       16.124      113.817      154.284       57.732      114.455       67.452     3333.019    13099.854     4549.828        2.900        1.049      114.953       78.917        0.471      337.881       10.151      865.078
01/16/2015  09:07:00      138.587     -138.735      -25.216       47.906       82.568       34.616     2294.949     6817.427     1198.292        2.470        0.516      196.096       29.221        0.022      337.771        9.968      865.106
01/16/2015  09:08:00      -44.923       16.712        7.292       75.458       40.795       23.140     5693.971     1664.256      535.467        0.512        0.395       47.931       24.406        0.259      337.681        9.820      865.322
01/16/2015  09:09:00      -14.081      -61.074       20.467       38.785       72.824       35.781     1504.260     5303.286     1280.268        0.622        0.404       62.676       35.966        0.329      337.737        9.914      865.305
01/16/2015  09:10:00       97.498     -108.851        1.157       85.932      118.334       73.908     7384.325    14002.819     5462.465        2.410        1.342      146.131       81.562        0.312      337.712        9.869      865.296
01/16/2015  09:11:00       23.991       77.994       94.054       56.182       68.003       67.179     3156.435     4624.384     4513.085        1.390        0.615       81.601       51.673        0.401      337.614        9.706      865.335
01/16/2015  09:12:00       23.739       34.587       17.119       55.062       50.070       48.693     3031.821     2506.994     2371.003        0.498        0.395       41.950       37.489        0.799      337.543        9.588      865.356
01/16/2015  09:13:00       43.330       31.359       37.844       51.852       33.549       24.731     2688.678     1125.530      611.627        0.436        0.221       53.487       19.141        0.128      337.524        9.555      865.380
01/16/2015  09:14:00       97.891       40.909       25.335       31.835       35.903       33.885     1013.486     1289.023     1148.182        0.767        0.173      106.095       16.617        0.025      337.517        9.545      865.333
01/16/2015  09:15:00       -6.256       11.226       50.885       14.826       46.732       35.153      219.805     2183.874     1235.724        0.320        0.182       12.852       34.695        7.288      337.577        9.644      865.346
01/16/2015  09:16:00       12.988       29.911       24.433       22.752       19.490       17.014      517.668      379.878      289.483        0.142        0.059       32.609       16.051        0.242      337.467        9.460      865.441
01/16/2015  09:17:00       52.652       45.956       15.915       14.047       18.699       12.685      197.323      349.646      160.913        0.292        0.035       69.887        9.021        0.017      337.394        9.338      865.426
01/16/2015  09:18:00       90.716       59.923        6.959       33.630       27.401       28.926     1131.009      750.828      836.700        0.729        0.136      108.721       18.019        0.027      337.344        9.255      865.468
01/16/2015  09:19:00      138.510      103.735       10.237       29.767       29.928       22.753      886.062      895.704      517.677        1.617        0.115      173.049       12.810        0.005      337.275        9.139      865.505
01/16/2015  09:20:00       97.074       79.466       -4.368       57.121       41.108       31.700     3262.772     1689.845     1004.869        1.086        0.298      125.452       21.552        0.030      337.258        9.110      865.510
01/16/2015  09:21:00      185.907       86.571       25.112       57.582       45.859       45.320     3315.638     2103.024     2053.915        2.508        0.374      205.075       28.347        0.019      337.170        8.961      865.486
01/16/2015  09:22:00       97.442       75.671       61.137       65.806       54.867       53.512     4330.455     3010.423     2863.522        1.458        0.510      123.374       43.609        0.125      337.139        8.911      865.499
01/16/2015  09:23:00      -12.137      -17.941        1.870       20.586       21.133       19.198      423.787      446.593      368.579        0.086        0.062       21.661       13.966        0.416      337.183        8.986      865.587
01/16/2015  09:24:00       -3.241        1.772        0.296       10.872       11.981        6.408      118.204      143.536       41.064        0.016        0.015        3.693        2.153        0.340      337.229        9.063      865.617
01/16/2015  09:25:00      -26.746       14.692       -5.810       19.220       10.097        7.169      369.412      101.958       51.390        0.074        0.026       30.515        4.502        0.022      337.330        9.232      865.625
01/16/2015  09:26:00      -98.123      -24.964       -9.888       27.154       34.221       12.597      737.313     1171.050      158.676        0.621        0.103      101.248        8.238        0.007      337.292        9.167      865.695
01/16/2015  09:27:00       -2.804      -46.288        6.070       61.438       36.238       21.447     3774.654     1313.222      459.960        0.387        0.277       46.373       18.656        0.162      337.269        9.130      865.761
01/16/2015  09:28:00        6.796      -20.005       31.970       28.657       65.157       36.138      821.250     4245.407     1305.954        0.392        0.319       21.128       37.112        3.085      337.405        9.355      865.689
01/16/2015  09:29:00       93.298       55.017       59.546       58.443       50.525       39.022     3415.569     2552.797     1522.681        1.138        0.375      108.312       39.411        0.132      337.360        9.282      865.606
01/16/2015  09:30:00       93.338       74.317       46.125       37.605       27.260       33.182     1414.145      743.106     1101.021        0.981        0.163      119.310       22.175        0.035      337.413        9.372      865.693
01/16/2015  09:31:00      103.509       73.126       40.370       37.263       35.732       32.446     1388.534     1276.773     1052.725        1.070        0.186      126.734       22.796        0.032      337.561        9.620      865.670
01/16/2015  09:32:00       33.142       41.618       33.763       49.383       32.815       17.477     2438.704     1076.850      305.434        0.390        0.191       53.202        5.656        0.011      337.398        9.345      865.668
01/16/2015  09:33:00       13.833       33.996       -7.812       18.259       23.973       12.235      333.394      574.719      149.690        0.123        0.053       36.702        8.920        0.059      337.417        9.376      865.707
01/16/2015  09:34:00      -65.006        4.374       -9.707       38.299       29.272       13.155     1466.778      856.825      173.050        0.342        0.125       65.153       11.295        0.030      337.359        9.279      865.732
01/16/2015  09:35:00     -162.556      -81.915      -11.279       34.119       26.799       16.775     1164.100      718.162      281.399        1.771        0.108      182.029       12.463        0.005      337.305        9.188      865.802
01/16/2015  09:36:00     -146.352      -59.972       -1.437       45.936       44.564       25.082     2110.114     1985.987      629.082        1.487        0.236      158.163       23.540        0.022      337.404        9.355      865.881
01/16/2015  09:37:00     -112.903      -34.746       -6.492       64.201       30.828       21.613     4121.735      950.374      467.113        0.977        0.277      118.129       23.610        0.040      337.509        9.532      865.916
01/16/2015  09:38:00      -11.852      -11.931        6.657       43.196       20.723       19.102     1865.871      429.441      364.870        0.149        0.133       16.817       12.814        0.581      337.595        9.675      865.867
01/16/2015  09:39:00       39.084       50.259       48.075       43.368       33.271       32.840     1880.766     1106.946     1078.455        0.521        0.203       63.668       30.465        0.229      337.595        9.675      865.841
01/16/2015  09:40:00       30.368       24.854       62.868       53.673       83.353       47.793     2880.737     6947.682     2284.129        0.880        0.606       39.242       39.791        1.028      338.039       10.419      865.769
01/16/2015  09:41:00       17.078       68.499       99.260       53.100       59.102       39.339     2819.613     3493.002     1547.562        1.135        0.393       70.596       41.174        0.340      338.362       10.962      865.731
01/16/2015  09:42:00       44.085        6.486       38.200       51.602       63.742       39.436     2662.786     4063.064     1555.168        0.586        0.414       44.559       41.231        0.856      338.296       10.852      865.765
01/16/2015  09:43:00       24.587       -9.221        9.897       35.722       32.781       19.727     1276.028     1074.589      389.166        0.176        0.137       26.260       14.780        0.317      338.292       10.845      865.810
01/16/2015  09:44:00       13.625       22.506       33.038       21.245       45.709       31.492      451.355     2089.339      991.738        0.266        0.177       26.309       33.481        1.620      338.142       10.591      865.765
01/16/2015  09:45:00      -16.266      -41.615      -13.004       21.245       20.770       15.816      451.334      431.384      250.149        0.165        0.057       44.681        9.126        0.042      338.053       10.444      865.745
01/16/2015  09:46:00       42.227      -40.634       11.332      101.720       50.599       29.437    10347.008     2560.285      866.546        0.867        0.689       58.602       31.337        0.286      338.253       10.778      865.736
01/16/2015  09:47:00      -22.103        6.595       -2.786       57.082       61.821       27.052     3258.399     3821.820      731.795        0.417        0.391       23.066       31.271        1.838      338.333       10.914      865.693
01/16/2015  09:48:00      -55.268       64.557      -12.658       41.554       41.631       20.564     1726.716     1733.173      422.868        0.563        0.194       84.984       19.897        0.055      337.826       10.062      865.756
01/16/2015  09:49:00      -94.777       39.265      -13.307       33.169       36.089       18.758     1100.215     1302.388      351.853        0.673        0.138      102.589       18.752        0.033      337.721        9.885      865.836
01/16/2015  09:50:00     -180.368      139.471      -31.637       52.763       54.088       36.286     2783.909     2925.516     1316.684        3.000        0.351      228.002       35.399        0.024      337.999       10.349      865.902
01/16/2015  09:51:00     -115.759       50.831      -24.566       41.140       42.099       29.906     1692.509     1772.360      894.366        1.047        0.218      126.428       22.897        0.033      338.257       10.785      865.972
01/16/2015  09:52:00     -169.174       63.631      -16.681       48.409       35.030       25.709     2343.434     1227.083      660.974        1.859        0.212      180.745       15.381        0.007      338.275       10.815      865.983
01/16/2015  09:53:00     -188.496       67.246      -25.586       58.593       76.656       27.268     3433.083     5876.069      743.562        2.538        0.503      200.132       23.564        0.014      338.695       11.519      865.928
01/16/2015  09:54:00     -133.105      137.132      -21.891       36.645       60.165       27.891     1342.852     3619.845      777.885        2.137        0.287      191.108       31.380        0.027      338.302       10.859      865.904
01/16/2015  09:55:00     -141.829      178.777      -31.613       40.940       42.408       29.037     1676.069     1798.467      843.128        2.870        0.216      228.203       24.404        0.011      338.187       10.665      865.915
01/16/2015  09:56:00     -132.042      175.645      -18.514      105.341       74.543       43.381    11096.758     5556.656     1881.934        3.358        0.927      219.741       44.268        0.041      338.504       11.198      865.889
01/16/2015  09:57:00     -208.272        1.514      -20.419       55.696       77.865       34.270     3102.091     6063.020     1174.407        2.707        0.517      208.277       26.435        0.016      338.656       11.453      865.934
01/16/2015  09:58:00     -186.254      -88.374       -8.537       90.131       53.884       38.385     8123.584     2903.512     1473.382        2.753        0.625      206.156       44.183        0.046      338.806       11.705      865.973
01/16/2015  09:59:00     -119.626      -59.322       -2.106       60.198       69.059       33.334     3623.755     4769.116     1111.188        1.367        0.475      133.527       35.202        0.070      338.817       11.725      865.971
01/16/2015  10:00:00     -226.299      -31.362      -24.054       57.629       46.972       29.157     3321.117     2206.354      850.126        2.957        0.319      228.462       26.731        0.014      338.292       10.840      866.030
01/16/2015  10:01:00     -141.564      -29.027       -5.601       53.047       40.585       28.416     2814.022     1647.123      807.448        1.309        0.263      144.509       26.813        0.034      338.275       10.816      866.101
01/16/2015  10:02:00      -72.378      -40.245        0.626       65.991       44.558       26.182     4354.826     1985.455      685.496        0.694        0.351       82.815       23.230        0.079      338.267       10.801      866.108
01/16/2015  10:03:00      -87.014      -50.248       -8.651       41.586       24.369       21.028     1729.359      593.828      442.192        0.647        0.138      100.480       22.611        0.051      338.295       10.851      866.068
01/16/2015  10:04:00     -115.095        2.123        2.959       77.772       44.811       33.302     6048.408     2008.004     1109.019        1.121        0.458      115.114       44.770        0.151      338.299       10.855      866.038
01/16/2015  10:05:00        6.112       16.703       20.011       71.521       39.551       33.138     5115.208     1564.319     1098.114        0.425        0.389       17.786       36.042        4.106      338.359       10.956      866.031
01/16/2015  10:06:00       17.583       44.801       55.810       46.128       67.959       54.635     2127.826     4618.467     2984.931        0.758        0.487       48.128       45.003        0.874      338.434       11.083      866.003
01/16/2015  10:07:00        3.242       55.599       71.532       20.672       27.855       21.306      427.325      775.928      453.929        0.494        0.083       55.694       16.730        0.090      338.506       11.204      865.984
01/16/2015  10:08:00       22.070       15.894       24.878       26.481       22.772       16.631      701.253      518.580      276.586        0.143        0.075       27.198       11.547        0.180      338.574       11.318      866.054
01/16/2015  10:09:00       -2.571        7.574       19.114       23.138       15.195       12.298      535.352      230.882      151.241        0.067        0.046        7.999        7.404        0.857      338.555       11.286      866.137
01/16/2015  10:10:00       34.952       10.748       -2.885       16.396       15.992       11.936      268.814      255.736      142.468        0.101        0.033       36.567        7.545        0.043      338.560       11.294      866.149
01/16/2015  10:11:00       43.695       27.577        7.532       11.209        8.919       11.050      125.647       79.555      122.104        0.153        0.016       51.670        4.350        0.007      338.537       11.258      866.153
01/16/2015  10:12:00        3.964       33.884      -11.890        8.425        8.236        7.250       70.986       67.838       52.558        0.075        0.010       34.115        3.714        0.012      338.523       11.232      866.180
01/16/2015  10:13:00       10.742       21.825        3.419        7.275       24.951       16.238       52.925      622.571      263.672        0.077        0.047       24.325       18.445        0.575      338.662       11.466      866.205
01/16/2015  10:14:00        5.555      -37.128        3.969        9.825       19.974       13.548       96.533      398.955      183.560        0.105        0.034       37.541       10.189        0.074      338.710       11.546      866.225
01/16/2015  10:15:00       18.441       24.774       37.978       24.770       51.896       24.600      613.571     2693.145      605.167        0.315        0.196       30.884       26.212        0.720      338.666       11.471      866.213
01/16/2015  10:16:00       11.692       76.239       89.126       35.281       34.682       18.709     1244.751     1202.828      350.017        0.834        0.140       77.131       17.750        0.053      338.670       11.480      866.209
01/16/2015  10:17:00       19.028       80.970       89.013       25.656       33.538       14.810      658.224     1124.785      219.342        0.842        0.100       83.176       18.447        0.049      338.786       11.675      866.202
01/16/2015  10:18:00       32.196        2.822       59.838       43.651       55.267       39.529     1905.395     3054.439     1562.565        0.557        0.326       32.319       35.494        1.206      338.598       11.358      866.147
01/16/2015  10:19:00        7.908       55.748       76.783       28.977       31.392       16.954      839.694      985.475      287.433        0.559        0.106       56.307       12.086        0.046      338.610       11.378      866.121
01/16/2015  10:20:00       54.020      -39.989       25.124       58.240       82.322       43.952     3391.907     6776.906     1931.811        0.862        0.605       67.211       61.560        0.839      338.599       11.359      866.143
01/16/2015  10:21:00       53.145      -70.072      -11.877       68.030       47.669       40.172     4628.027     2272.334     1613.797        0.819        0.426       87.946       33.521        0.145      338.635       11.421      866.210
01/16/2015  10:22:00       -4.041      -73.112       -1.861       71.000       36.155       28.465     5040.944     1307.158      810.260        0.626        0.358       73.223       18.317        0.063      338.627       11.408      866.310
01/16/2015  10:23:00      -65.782      -53.008        0.718       57.632       46.260       30.980     3321.438     2140.028      959.791        0.678        0.321       84.482       27.122        0.103      338.683       11.501      866.358
01/16/2015  10:24:00      -42.988      -30.099        5.651       57.522       43.458       29.674     3308.796     1888.584      880.528        0.443        0.304       52.478       30.912        0.347      338.665       11.471      866.331
01/16/2015  10:25:00       -5.965       27.328       32.439       23.766       28.523       23.542      564.809      813.587      554.222        0.188        0.097       27.971       18.861        0.455      338.713       11.551      866.240
01/16/2015  10:26:00      -22.607      -14.679       14.796       18.351       25.951       24.588      336.771      673.433      604.571        0.128        0.081       26.955       21.133        0.615      338.735       11.587      866.221
01/16/2015  10:27:00     -135.635      -84.948        5.554       57.310       33.303       30.098     3284.413     1109.106      905.918        1.547        0.265      160.040       24.439        0.023      338.589       11.343      866.298
01/16/2015  10:28:00     -155.307      -87.701       10.598       82.571       57.061       36.907     6817.906     3255.952     1362.134        2.168        0.572      178.358       41.413        0.054      338.602       11.364      866.389
01/16/2015  10:29:00      -57.020      -72.301        6.347       48.670       53.820       37.544     2368.761     2896.618     1409.550        0.760        0.334       92.080       37.621        0.167      338.687       11.508      866.378
01/16/2015  10:30:00      -28.134      -72.212        1.421       31.941       37.945       16.892     1020.202     1439.835      285.348        0.438        0.137       77.499       13.382        0.030      338.836       11.757      866.302
01/16/2015  10:31:00       27.761       39.982       43.565       37.243       22.316       25.698     1387.051      497.985      660.412        0.341        0.127       48.674       24.480        0.253      338.853       11.788      866.227
01/16/2015  10:32:00       -0.338      -75.641        5.783       27.748       63.690       44.188      769.951     4056.475     1952.599        0.627        0.339       75.641       49.028        0.420      338.917       11.893      866.161
01/16/2015  10:33:00      -17.888     -126.696      -36.601       55.814       51.948       35.717     3115.171     2698.607     1275.724        1.240        0.354      127.953       32.281        0.064      338.903       11.870      866.114
01/16/2015  10:34:00      -10.452      -93.403      -17.412       65.367       61.636       38.800     4272.853     3798.947     1505.415        0.936        0.479       93.986       36.383        0.150      338.955       11.958      866.064
01/16/2015  10:35:00        9.754       25.988        9.199       47.743       66.980       40.492     2279.368     4486.306     1639.641        0.463        0.420       27.758       17.363        0.391      339.034       12.090      866.039
01/16/2015  10:36:00       26.952        1.143       26.307       31.759       50.057       43.719     1008.656     2505.753     1911.329        0.342        0.271       26.976       43.016        2.543      339.090       12.185      866.025
01/16/2015  10:37:00        2.154       -8.368        3.097       29.247       29.984       23.156      855.377      899.054      536.206        0.119        0.115        8.641       13.286        2.364      339.093       12.190      866.070
01/16/2015  10:38:00      -46.702       -3.132       -5.922       27.497       20.283       10.062      756.059      411.395      101.238        0.175        0.063       46.807        7.836        0.028      339.008       12.047      866.134
01/16/2015  10:39:00      -49.655      -66.055        2.447       50.881       38.095       23.813     2588.886     1451.255      567.067        0.572        0.230       82.637       23.863        0.083      339.002       12.037      866.117
01/16/2015  10:40:00     -115.641      -75.646       -3.445       66.953       53.253       22.134     4482.652     2835.914      489.936        1.346        0.390      138.186       24.241        0.031      338.927       11.908      866.167
01/16/2015  10:41:00     -150.337     -131.615       -3.735       48.555       43.323       29.633     2357.615     1876.894      878.099        2.252        0.256      199.809       30.813        0.024      338.930       11.914      866.281
01/16/2015  10:42:00     -167.934     -118.630       12.975      110.724       79.510       56.488    12259.895     6321.869     3190.928        3.210        1.089      205.608       57.402        0.078      338.980       11.999      866.326
01/16/2015  10:43:00      -77.607      -57.598        0.654       39.660       42.073       25.361     1572.940     1770.118      643.166        0.666        0.199       96.646       18.660        0.037      338.943       11.938      866.329
01/16/2015  10:44:00      -22.572      -97.540       -6.853       42.115       41.609       28.413     1773.646     1731.341      807.287        0.719        0.216      100.118       20.647        0.043      339.060       12.134      866.274
01/16/2015  10:45:00       28.026       -4.996       40.889       52.761       66.049       45.168     2783.674     4362.432     2040.153        0.583        0.459       28.468       44.356        2.428      339.121       12.237      866.195
01/16/2015  10:46:00       41.740      -29.701       13.666       52.553       86.846       63.849     2761.853     7542.151     4076.650        0.859        0.719       51.228       52.373        1.045      339.071       12.152      866.158
01/16/2015  10:47:00       87.103      -44.681       24.299       76.595      103.320       52.490     5866.742    10675.094     2755.209        1.473        0.965       97.895       62.142        0.403      339.079       12.165      866.128
01/16/2015  10:48:00       23.721        9.014       64.142       43.950       74.631       47.630     1931.617     5569.847     2268.570        0.726        0.489       25.376       54.412        4.598      339.140       12.269      866.110
01/16/2015  10:49:00      -28.526      -26.458       -9.295       67.320       40.666       19.837     4532.046     1653.707      393.507        0.409        0.329       38.907       11.369        0.085      339.072       12.155      866.152
01/16/2015  10:50:00     -174.779      -65.571       -3.884       46.374       49.477       33.060     2150.548     2447.989     1092.952        2.028        0.285      186.674       24.823        0.018      339.037       12.094      866.200
01/16/2015  10:51:00     -145.412      -62.626       -7.693       53.354       40.455       26.787     2846.617     1636.628      717.526        1.516        0.260      158.324       14.386        0.008      339.040       12.100      866.238
01/16/2015  10:52:00      -99.288      -24.015        7.586       68.477       36.811       29.991     4689.058     1355.065      899.449        0.872        0.347      102.151       35.126        0.118      339.079       12.167      866.241
01/16/2015  10:53:00     -130.241       -1.774       -9.564       46.532       39.269       26.668     2165.215     1542.043      711.203        1.074        0.221      130.253       16.721        0.016      339.049       12.118      866.249
01/16/2015  10:54:00     -105.902      -19.753       -9.753       66.605       44.656       29.153     4436.164     1994.143      849.877        0.949        0.364      107.728       28.919        0.072      339.074       12.159      866.297
01/16/2015  10:55:00      -55.595      -46.528       10.833       51.735       38.334       19.296     2676.553     1469.530      372.333        0.494        0.226       72.496       19.471        0.072      339.176       12.329      866.324
01/16/2015  10:56:00       20.634      -15.140       17.305       21.791       31.879       12.781      474.856     1016.262      163.349        0.130        0.083       25.593       16.515        0.416      339.263       12.476      866.280
01/16/2015  10:57:00       31.017       43.453        6.141       22.690       29.008       27.660      514.841      841.460      765.087        0.250        0.106       53.387       24.806        0.216      339.245       12.446      866.186
01/16/2015  10:58:00       30.937        9.367      -12.719       40.779       34.922       19.321     1662.933     1219.514      373.314        0.223        0.163       32.324       13.591        0.177      339.320       12.573      866.145
01/16/2015  10:59:00      -46.263        3.516       -9.454       49.179       19.480        8.930     2418.623      379.471       79.736        0.256        0.144       46.397       12.235        0.070      339.296       12.531      866.162
01/16/2015  11:00:00     -108.343        2.497       -8.313       20.476       31.339       16.769      419.257      982.103      281.198        0.675        0.084      108.371        7.483        0.005      339.182       12.341      866.161
01/16/2015  11:01:00     -179.553       25.514      -25.342       39.974       41.110       22.354     1597.906     1690.020      499.718        1.866        0.189      181.357       19.267        0.011      339.184       12.344      866.147
01/16/2015  11:02:00     -144.081      -11.949       -4.187       49.898       45.885       29.513     2489.764     2105.477      871.002        1.319        0.273      144.576       27.875        0.037      339.230       12.420      866.170
01/16/2015  11:03:00      -83.741       55.256      -23.205       39.345       52.671       23.752     1548.001     2774.278      564.175        0.774        0.244      100.329       12.703        0.016      339.221       12.405      866.186
01/16/2015  11:04:00      -48.599       34.337      -16.963       30.198       25.437       24.711      911.922      647.035      610.634        0.300        0.108       59.505       11.589        0.038      339.236       12.433      866.196
01/16/2015  11:05:00     -123.823      -26.041       -9.839       60.448       64.013       29.723     3653.965     4097.658      883.476        1.237        0.432      126.532       33.898        0.072      339.278       12.501      866.222
01/16/2015  11:06:00     -191.097      -40.054        0.745      118.492       85.729       50.409    14040.430     7349.479     2541.088        3.102        1.197      195.249       62.218        0.102      339.309       12.552      866.222
01/16/2015  11:07:00     -278.820      -95.534       -3.592      114.375       99.565       58.702    13081.689     9913.241     3445.972        5.666        1.322      294.733       45.252        0.024      339.249       12.449      866.168
01/16/2015  11:08:00     -287.655      -76.370       -9.595      114.390       68.128       43.664    13085.120     4641.363     1906.522        5.415        0.982      297.620       54.506        0.034      339.181       12.336      866.113
01/16/2015  11:09:00     -229.771      -90.395      -17.643      101.174       58.258       40.893    10236.119     3393.969     1672.238        3.829        0.765      246.912       36.927        0.022      339.239       12.433      866.061
01/16/2015  11:10:00     -214.226      -56.654       -4.687       90.654       65.618       41.073     8218.209     4305.739     1686.974        3.167        0.711      221.591       46.557        0.044      339.317       12.563      866.036
01/16/2015  11:11:00     -222.102     -110.086       -7.790      105.492       79.026       42.290    11128.570     6245.166     1788.416        4.033        0.958      247.888       39.974        0.026      339.345       12.612      865.987
01/16/2015  11:12:00     -127.934     -180.720       -7.752       74.678       94.626       33.835     5576.762     8954.075     1144.794        3.238        0.784      221.420       29.238        0.017      339.318       12.564      865.959
01/16/2015  11:13:00       42.596     -111.675       10.631       73.938       95.827       42.777     5466.853     9182.877     1829.869        1.544        0.824      119.523       39.234        0.108      339.435       12.765      865.921
01/16/2015  11:14:00      -80.426     -199.402       -0.299       64.060       85.283       44.014     4103.626     7273.149     1937.214        2.977        0.666      215.010       33.191        0.024      339.512       12.893      865.898
01/16/2015  11:15:00      -33.822      -56.775        5.728       49.564       48.957       33.919     2456.596     2396.747     1150.524        0.520        0.300       66.086       24.367        0.136      339.550       12.961      865.892
01/16/2015  11:16:00       -7.931       -2.011       23.984       42.912       43.872       28.112     1841.449     1924.731      790.311        0.260        0.228        8.182       30.127       13.558      339.725       13.255      865.860
01/16/2015  11:17:00     -133.703       -5.317      -20.636       55.062       51.678       25.728     3031.845     2670.578      661.909        1.235        0.318      133.808       28.174        0.044      339.500       12.875      865.870
01/16/2015  11:18:00     -137.896        8.668      -18.107       25.925       36.624       20.319      672.119     1341.319      412.860        1.092        0.121      138.168       14.358        0.011      339.481       12.843      865.883
01/16/2015  11:19:00     -188.711        5.419      -11.996       81.181       68.811       27.225     6590.304     4734.908      741.216        2.392        0.603      188.789       28.518        0.023      339.437       12.766      865.828
01/16/2015  11:20:00     -129.096      -49.566        4.245      118.255       91.567       48.009    13984.198     8384.588     2304.909        2.190        1.234      138.284       58.797        0.181      339.585       13.016      865.784
01/16/2015  11:21:00     -116.355     -102.982        6.243       90.811       63.640       49.962     8246.689     4050.105     2496.183        1.949        0.740      155.383       43.698        0.079      339.567       12.986      865.822
01/16/2015  11:22:00      -78.509     -150.828       -1.949       89.547       88.470       47.932     8018.597     7826.923     2297.517        2.353        0.907      170.038       39.454        0.054      339.545       12.950      865.796
01/16/2015  11:23:00     -281.291     -163.780      -19.383       86.553       81.766       55.765     7491.384     6685.670     3109.771        6.180        0.864      325.497       27.983        0.007      339.471       12.822      865.767
01/16/2015  11:24:00     -200.921      -99.200        8.665      134.715       87.122       64.013    18148.147     7590.323     4097.607        4.006        1.492      224.076       45.698        0.042      339.527       12.919      865.832
01/16/2015  11:25:00     -236.397     -170.459      -24.476      185.335      143.005       58.347    34348.908    20450.503     3404.321        7.186        2.910      291.444       73.582        0.064      339.470       12.819      865.857
01/16/2015  11:26:00     -212.242     -129.741        8.908      153.823      127.741       67.845    23661.503    16317.696     4602.914        5.326        2.229      248.756       76.422        0.094      339.466       12.813      865.866
01/16/2015  11:27:00     -201.769     -196.758       -1.426      157.151      149.384       57.430    24696.529    22315.590     3298.209        6.486        2.516      281.824       74.266        0.069      339.509       12.888      865.862
01/16/2015  11:28:00     -117.638      -36.489        1.648       86.603       96.069       47.669     7500.108     9229.197     2272.328        1.708        0.950      123.167       45.206        0.135      339.556       12.970      865.832
01/16/2015  11:29:00     -171.851       -2.398      -10.233      136.094       72.592       55.325    18521.470     5269.546     3060.896        2.824        1.343      171.868       62.568        0.133      339.614       13.066      865.799
01/16/2015  11:30:00     -279.039      -15.707      -24.323      100.959       97.231       57.273    10192.626     9453.835     3280.175        5.081        1.146      279.481       56.176        0.040      339.633       13.096      865.756
01/16/2015  11:31:00     -190.357     -164.925       -4.316       87.881       96.797       57.854     7722.997     9369.677     3347.084        4.194        1.022      251.865       40.230        0.026      339.675       13.168      865.742
01/16/2015  11:32:00     -319.538     -103.627       -9.566      226.392      104.938       65.987    51253.207    11012.007     4354.332        8.977        3.331      335.921       78.451        0.055      339.649       13.125      865.712
01/16/2015  11:33:00     -380.027      -35.419      -16.314      204.253      129.669       71.374    41719.400    16814.133     5094.218       10.477        3.181      381.674       75.513        0.039      339.604       13.048      865.664
01/16/2015  11:34:00     -387.890     -165.113      -17.131      198.756      208.499       96.022    39503.981    43471.836     9220.220       13.509        4.610      421.569      100.364        0.057      339.584       13.014      865.709
01/16/2015  11:35:00     -173.931      -80.759       16.761      164.791      130.153       78.231    27156.041    16939.926     6120.015        4.363        2.511      191.766       77.176        0.162      339.682       13.181      865.720
01/16/2015  11:36:00     -265.795     -164.416       -3.762      154.574      139.544       68.733    23893.213    19472.506     4724.263        7.288        2.404      312.537       57.596        0.034      339.645       13.118      865.700
01/16/2015  11:37:00     -268.591      -70.303        0.199      177.308      199.677      100.483    31437.979    39870.841    10096.824        7.923        4.070      277.639       98.217        0.125      339.614       13.064      865.645
01/16/2015  11:38:00     -509.747     -120.848      -28.349      181.618      168.314       88.251    32985.085    28329.520     7788.289       17.216        3.455      523.876       72.260        0.019      339.544       12.946      865.590
01/16/2015  11:39:00     -474.024      -11.263      -42.340      133.536      170.710       72.336    17831.835    29142.007     5232.535       13.940        2.610      474.158       66.093        0.019      339.571       12.993      865.519
01/16/2015  11:40:00     -346.324      -67.633      -12.487      154.831      112.950       67.712    23972.575    12757.745     4584.849        8.299        2.066      352.866       66.520        0.036      339.600       13.042      865.463
01/16/2015  11:41:00     -240.502     -148.439       22.280      215.117      203.444       99.115    46275.114    41389.424     9823.868        8.891        4.874      282.622      122.246        0.187      339.658       13.140      865.487
01/16/2015  11:42:00     -355.579     -173.611       -6.134      281.977      158.480       87.119    79510.968    25115.791     7589.707       13.440        5.611      395.698      104.268        0.069      339.656       13.135      865.519
01/16/2015  11:43:00     -272.601     -113.068        7.450      222.958      136.389       76.508    49710.243    18601.823     5853.536        8.065        3.708      295.120       92.743        0.099      339.665       13.152      865.559
01/16/2015  11:44:00     -358.311     -130.595      -16.913      174.492      139.826       68.342    30447.399    19551.361     4670.659       10.019        2.733      381.369       78.945        0.043      339.648       13.122      865.570
01/16/2015  11:45:00     -507.077     -120.469      -24.981      236.046      196.641       89.144    55717.570    38667.780     7946.721       18.728        5.117      521.191      104.745        0.040      339.608       13.055      865.542
01/16/2015  11:46:00     -207.704     -118.565       10.826      167.971      135.761       72.884    28214.133    18431.078     5312.118        5.463        2.598      239.162       79.987        0.112      339.703       13.215      865.557
01/16/2015  11:47:00     -271.793     -224.047       13.470      190.085      134.013       78.965    36132.322    17959.509     6235.532        9.228        3.016      352.234       83.039        0.056      339.735       13.269      865.578
01/16/2015  11:48:00     -244.829     -137.791      -15.307      110.323       94.200       56.962    12171.175     8873.625     3244.678        5.172        1.214      280.941       50.334        0.032      339.762       13.314      865.633
01/16/2015  11:49:00     -211.523     -103.206       -1.318      108.776       81.732       45.701    11832.244     6680.178     2088.615        3.799        1.030      235.358       42.666        0.033      339.808       13.393      865.668
01/16/2015  11:50:00     -209.724     -229.578        4.175      133.731      154.009       73.396    17883.868    23718.751     5386.983        7.184        2.349      310.951       55.045        0.031      339.787       13.358      865.656
01/16/2015  11:51:00     -163.482     -163.523       16.425      135.046      137.319       76.421    18237.453    18856.461     5840.156        4.833        2.147      231.227       74.922        0.105      339.816       13.406      865.663
01/16/2015  11:52:00     -187.056      -21.908        8.826      115.159      103.781       67.611    13261.547    10770.449     4571.243        3.207        1.430      188.334       59.694        0.100      339.863       13.485      865.658
01/16/2015  11:53:00     -213.450     -142.456        5.242      136.661       82.742       57.036    18676.348     6846.160     3253.127        4.732        1.439      256.622       58.799        0.052      339.822       13.416      865.645
01/16/2015  11:54:00     -324.729     -234.218      -10.221      192.956      145.203       93.047    37232.133    21083.960     8657.779       11.368        3.349      400.383      107.928        0.073      339.801       13.382      865.615
01/16/2015  11:55:00     -323.875     -123.340      -10.579      161.851      134.240       67.569    26195.892    18020.479     4565.604        8.449        2.439      346.566       82.709        0.057      339.847       13.458      865.623
01/16/2015  11:56:00     -303.271     -189.382       -1.221      160.174      124.404       70.552    25655.782    15476.432     4977.539        8.697        2.305      357.545       69.640        0.038      339.837       13.441      865.623
01/16/2015  11:57:00     -387.663     -245.850      -35.420      172.308      151.554       76.104    29690.140    22968.623     5791.776       13.521        2.923      459.047       78.475        0.029      339.818       13.408      865.641
01/16/2015  11:58:00     -460.619     -110.107      -19.574      243.404      195.015       93.467    59245.598    38030.976     8736.092       16.533        5.301      473.596      107.338        0.051      339.768       13.326      865.649
01/16/2015  11:59:00     -337.463      -66.607       -1.213      229.940      170.585       94.198    52872.310    29099.095     8873.220       10.457        4.542      343.973      113.239        0.108      339.846       13.457      865.654
01/16/2015  12:00:00     -469.687     -100.869      -16.477      227.878      135.963       94.564    51928.393    18486.045     8942.345       15.519        3.968      480.397      107.804        0.050      339.754       13.299      865.659
01/16/2015  12:01:00     -344.180      -95.293       -4.952      166.878      139.314       75.717    27848.188    19408.461     5733.096        9.027        2.649      357.128       83.367        0.054      339.775       13.335      865.624
01/16/2015  12:02:00     -259.210      -15.306      -16.834      146.632      125.171       67.319    21501.033    15667.842     4531.884        5.470        2.085      259.661       65.659        0.064      339.798       13.376      865.592
01/16/2015  12:03:00     -303.491      -19.688      -14.348      100.485       94.966       57.964    10097.280     9018.511     3359.773        5.758        1.124      304.129       54.737        0.032      339.789       13.360      865.577
01/16/2015  12:04:00     -321.031      -85.105      -22.805      182.919      138.299       66.489    33459.357    19126.533     4420.819        8.391        2.850      332.121       66.434        0.040      339.811       13.397      865.588
01/16/2015  12:05:00     -386.185     -174.098       -8.649      143.273      144.484       63.037    20527.219    20875.708     3973.721       11.244        2.269      423.614       53.802        0.016      339.794       13.368      865.578
01/16/2015  12:06:00     -262.071       -5.834      -23.477      119.415       87.542       52.692    14259.883     7663.632     2776.485        4.698        1.235      262.136       63.427        0.059      339.861       13.481      865.598
01/16/2015  12:07:00     -329.159       40.647       -6.981      147.699      142.615       73.710    21814.881    20338.945     5433.192        7.881        2.379      331.659       69.249        0.044      339.829       13.427      865.609
01/16/2015  12:08:00     -408.186      -24.682      -31.656      121.371      115.868       59.205    14730.998    13425.399     3505.248        9.994        1.583      408.931       62.308        0.023      339.765       13.319      865.580
01/16/2015  12:09:00     -304.971       16.411      -11.554      172.116      116.465       72.421    29623.933    13564.145     5244.819        7.091        2.422      305.412       82.553        0.073      339.837       13.442      865.535
01/16/2015  12:10:00     -246.249       15.691      -16.845      152.462      117.463       61.688    23244.773    13797.460     3805.416        5.100        2.042      246.748       60.969        0.061      339.873       13.501      865.473
01/16/2015  12:11:00     -347.052      -60.679       -9.768      173.671      131.602       81.643    30161.553    17319.007     6665.533        8.918        2.707      352.316       83.295        0.056      339.853       13.469      865.428
01/16/2015  12:12:00     -272.202      -11.354       -1.316      157.407      106.910       72.716    24777.083    11429.846     5287.657        5.785        2.075      272.439       82.004        0.091      339.892       13.533      865.358
01/16/2015  12:13:00     -205.018      -53.458      -10.542      103.531      112.865       53.206    10718.600    12738.600     2830.836        3.564        1.314      211.873       23.648        0.012      339.948       13.628      865.289
01/16/2015  12:14:00     -236.129      -91.564       -1.033      158.190      115.616       77.907    25024.166    13366.959     6069.471        5.429        2.223      253.260       86.505        0.117      339.968       13.662      865.259
01/16/2015  12:15:00     -222.143     -116.756       15.008      204.732      119.496       91.361    41915.391    14279.207     8346.765        6.386        3.227      250.957      115.443        0.212      339.976       13.675      865.251
01/16/2015  12:16:00     -230.093      -18.989       -3.581      154.613       89.498       58.824    23905.266     8009.859     3460.297        4.434        1.769      230.875       57.451        0.062      340.036       13.776      865.295
01/16/2015  12:17:00     -304.379       31.842      -12.195       97.166      103.997       51.515     9441.178    10815.477     2653.835        5.836        1.146      306.040       53.483        0.031      340.061       13.816      865.340
01/16/2015  12:18:00     -153.646       16.630       -7.040      131.111      109.127       42.024    17190.120    11908.674     1766.012        2.739        1.543      154.543       56.360        0.133      340.163       13.992      865.342
01/16/2015  12:19:00     -232.375        2.695       -3.032      146.853       98.108       56.789    21565.840     9625.200     3224.956        4.421        1.721      232.390       65.981        0.081      340.137       13.947      865.343
01/16/2015  12:20:00     -244.802     -119.315      -11.016      147.771       83.167       48.835    21836.195     6916.750     2384.832        5.271        1.557      272.331       62.810        0.053      340.144       13.959      865.377
01/16/2015  12:21:00     -234.265      -51.501      -21.403       93.257       50.151       45.014     8696.848     2515.128     2026.292        3.561        0.662      239.859       41.457        0.030      340.186       14.030      865.436
01/16/2015  12:22:00     -215.864      -54.464       -6.579      113.683       92.897       47.416    12923.782     8629.913     2248.296        3.670        1.190      222.629       44.123        0.039      340.239       14.120      865.470
01/16/2015  12:23:00     -246.982     -140.360        2.381      153.097      126.521       66.441    23438.678    16007.648     4414.465        6.228        2.193      284.079       75.028        0.070      340.173       14.008      865.467
01/16/2015  12:24:00     -337.473     -221.154      -10.141      204.971      150.551      106.440    42013.040    22665.677    11329.426       11.944        3.800      403.482       99.101        0.060      340.039       13.781      865.402
01/16/2015  12:25:00     -260.120     -189.408       19.801      181.107      149.356       82.102    32799.771    22307.242     6740.699        8.288        3.092      321.773       95.573        0.088      340.061       13.818      865.400
01/16/2015  12:26:00     -186.311     -136.958       -4.512      132.416      103.934       72.136    17533.981    10802.308     5203.583        4.351        1.677      231.235       80.269        0.121      340.160       13.988      865.429
01/16/2015  12:27:00     -294.437     -236.392      -11.368      173.406      147.883       84.741    30069.698    21869.327     7181.091       10.090        2.956      377.590       88.664        0.055      340.077       13.845      865.412
01/16/2015  12:28:00     -370.527     -191.784      -15.919      169.280      133.500       74.186    28655.558    17822.366     5503.623       11.314        2.599      417.218       77.740        0.035      340.076       13.844      865.374
01/16/2015  12:29:00     -257.522      -52.847        1.643      165.575      120.329       61.979    27415.099    14479.130     3841.425        5.742        2.287      262.889       79.998        0.093      340.164       13.992      865.368
01/16/2015  12:30:00     -248.237      -81.348        2.083      148.281      128.816       76.473    21987.169    16593.460     5848.111        5.633        2.221      261.226       77.066        0.087      340.179       14.018      865.377
01/16/2015  12:31:00     -246.563     -134.129       -2.421      130.976      119.357       70.241    17154.723    14246.201     4933.827        5.756        1.817      280.685       69.420        0.061      340.119       13.916      865.384
01/16/2015  12:32:00     -454.975     -121.592      -21.649      197.404      104.922       70.023    38968.167    11008.609     4903.255       13.856        2.744      470.942       77.805        0.027      340.028       13.763      865.390
01/16/2015  12:33:00     -163.083      -34.936        3.389      173.873      117.619       75.267    30231.695    13834.144     5665.155        3.877        2.487      166.783       89.006        0.285      340.095       13.877      865.398
01/16/2015  12:34:00      -85.461        9.921       10.087      115.835       69.992       51.165    13417.807     4898.811     2617.809        1.422        1.047       86.035       61.927        0.518      340.233       14.111      865.427
01/16/2015  12:35:00     -268.444      -75.671      -14.447      126.908      113.681       59.012    16105.579    12923.289     3482.391        5.525        1.626      278.905       61.058        0.048      340.153       13.973      865.434
01/16/2015  12:36:00     -234.132      -17.372      -17.841       93.314       89.759       48.334     8707.434     8056.706     2336.222        3.727        0.955      234.776       42.161        0.032      340.185       14.027      865.418
01/16/2015  12:37:00     -204.595      -63.013       -7.117      151.720      109.122       65.713    23018.884    11907.676     4318.137        4.256        1.962      214.079       81.398        0.145      340.173       14.009      865.384
01/16/2015  12:38:00     -180.475      -22.461       13.085      162.334      136.822       64.076    26352.471    18720.175     4105.760        4.120        2.459      181.867       65.933        0.131      340.214       14.077      865.325
01/16/2015  12:39:00     -242.443      -22.086        7.414      144.223      104.817       62.156    20800.414    10986.706     3863.399        4.748        1.783      243.447       66.592        0.075      340.258       14.153      865.318
01/16/2015  12:40:00     -328.297      -61.863       -9.875      159.279      126.623       67.905    25369.687    16033.445     4611.102        7.885        2.301      334.075       81.457        0.059      340.212       14.072      865.332
01/16/2015  12:41:00     -337.107      -50.029      -10.245      232.724      140.792       86.695    54160.361    19822.344     7516.101        9.886        4.075      340.800      113.864        0.112      340.255       14.145      865.371
01/16/2015  12:42:00     -420.674     -163.967      -18.814      263.224      186.501       91.051    69286.923    34782.462     8290.322       15.826        5.618      451.499      103.287        0.052      340.047       13.795      865.315
01/16/2015  12:43:00     -454.101     -183.292      -14.704      178.585      113.238       66.146    31892.730    12822.837     4375.327       14.455        2.455      489.698       80.074        0.027      340.025       13.759      865.301
01/16/2015  12:44:00     -305.869     -103.122      -25.576      158.724      129.338       73.878    25193.366    16728.365     5457.920        7.610        2.369      322.785       75.890        0.055      340.132       13.938      865.297
01/16/2015  12:45:00     -272.430       18.470       -7.514      130.252      125.372       70.447    16965.603    15718.108     4962.796        5.612        1.882      273.055       56.000        0.042      340.177       14.014      865.250
01/16/2015  12:46:00     -139.870       23.176        9.437      104.039       77.283       50.662    10824.176     5972.631     2566.641        1.977        0.968      141.777       53.888        0.144      340.280       14.189      865.179
01/16/2015  12:47:00     -359.507      -15.802      -21.527      160.161      141.628       63.859    25651.604    20058.405     4077.973        8.986        2.489      359.854       52.013        0.021      340.089       13.864      865.102
01/16/2015  12:48:00     -406.006      -73.888      -16.869      150.887       98.506       68.920    22766.741     9703.510     4749.977       10.390        1.861      412.674       81.190        0.039      340.050       13.800      865.066
01/16/2015  12:49:00     -336.188      -54.407      -30.561      145.146      157.963       81.697    21067.494    24952.339     6674.387        8.480        2.635      340.562       89.038        0.068      340.031       13.767      865.088
01/16/2015  12:50:00     -264.606     -109.565      -12.835      134.272      107.403       60.739    18029.051    11535.505     3689.269        5.771        1.663      286.393       67.779        0.056      340.055       13.809      865.104
01/16/2015  12:51:00     -157.184      -32.963       -6.663       63.434       77.357       41.245     4023.848     5984.055     1701.158        1.877        0.585      160.603       26.635        0.028      340.092       13.874      865.066
01/16/2015  12:52:00     -341.382      140.693      -25.982      125.212       92.434       65.924    15678.110     8544.137     4345.930        8.278        1.428      369.237       61.590        0.028      340.071       13.834      864.995
01/16/2015  12:53:00     -274.223      -42.092      -22.447      142.840      110.224       53.649    20403.141    12149.377     2878.225        5.645        1.772      277.434       54.394        0.038      340.075       13.842      864.962
01/16/2015  12:54:00     -353.542     -113.531       -4.739      145.135      105.788       64.673    21064.112    11191.119     4182.651        8.716        1.822      371.323       65.590        0.031      340.051       13.801      864.955
01/16/2015  12:55:00     -169.259      -87.046        6.786      150.171      124.626       56.803    22551.181    15531.753     3226.533        3.878        2.065      190.330       74.332        0.153      340.140       13.953      864.971
01/16/2015  12:56:00     -377.825     -168.779      -11.334      125.391      118.042       63.643    15722.822    13933.921     4050.413       10.253        1.685      413.809       61.936        0.022      340.041       13.782      865.049
01/16/2015  12:57:00     -289.475     -131.656      -16.109      132.954      101.777       53.045    17676.851    10358.571     2813.751        6.611        1.542      318.008       58.721        0.034      340.015       13.741      865.112
01/16/2015  12:58:00     -130.247      -45.343        9.841      112.096      106.312       46.495    12565.451    11302.297     2161.808        2.257        1.301      137.914       50.169        0.132      340.154       13.977      865.141
01/16/2015  12:59:00     -288.328       13.710      -33.010       79.365      117.357       42.929     6298.818    13772.697     1842.891        5.316        1.096      288.654       36.636        0.016      340.123       13.923      865.174
01/16/2015  13:00:00     -204.209      -23.879        5.160      143.076      131.122       67.566    20470.825    17193.049     4565.124        4.226        2.111      205.600       64.832        0.099      340.207       14.066      865.189
01/16/2015  13:01:00     -358.305      -44.278      -15.617      198.819      128.634       73.505    39529.001    16546.610     5402.972        9.602        3.074      361.030       90.041        0.062      340.140       13.952      865.268
01/16/2015  13:02:00     -511.377       12.284      -44.871      141.226      125.759       57.282    19944.859    15815.225     3281.231       15.135        1.952      511.524       68.647        0.018      340.010       13.731      865.276
01/16/2015  13:03:00     -260.927     -118.459        1.273      157.741      123.169       66.589    24882.217    15170.568     4434.042        6.329        2.224      286.558       73.006        0.065      340.086       13.862      865.292
01/16/2015  13:04:00     -525.130      -45.082      -48.896      218.649      157.543       85.015    47807.348    24819.952     7227.622       18.001        3.993      527.062       82.691        0.025      339.974       13.671      865.304
01/16/2015  13:05:00     -369.390     -132.337       -6.391      207.506      172.756       80.907    43058.617    29844.602     6546.019       11.671        3.972      392.380       80.409        0.042      340.023       13.754      865.276
01/16/2015  13:06:00     -276.965      -84.557      -24.154      132.647      118.263       67.842    17595.313    13986.027     4602.472        6.031        1.809      289.585       54.637        0.036      339.932       13.601      865.282
01/16/2015  13:07:00     -324.773      -29.591      -18.582      211.248      178.236       67.039    44625.904    31768.173     4494.169        9.378        4.044      326.118       85.823        0.069      339.956       13.641      865.255
01/16/2015  13:08:00     -232.034       16.304      -13.786      149.454       88.136       52.514    22336.591     7767.899     2757.742        4.357        1.643      232.606       68.324        0.086      340.004       13.723      865.223
01/16/2015  13:09:00      -90.906      -39.586       -1.218      141.525       84.195       58.514    20029.231     7088.819     3423.870        2.018        1.527       99.151       65.810        0.441      340.068       13.832      865.160
01/16/2015  13:10:00     -295.131       48.709      -22.068      119.292       96.653       56.333    14230.583     9341.871     3173.407        5.835        1.337      299.124       63.223        0.045      340.005       13.723      865.127
01/16/2015  13:11:00     -353.499       32.661       -0.786      230.815      169.254       79.561    53275.501    28646.757     6329.964       10.713        4.413      355.004       85.896        0.059      340.026       13.759      865.108
01/16/2015  13:12:00     -355.444     -162.872      -14.501      141.635      112.985       59.065    20060.394    12765.574     3488.651        9.469        1.816      390.983       56.296        0.021      340.003       13.719      865.143
01/16/2015  13:13:00     -260.450     -106.687       -9.331       93.649       94.838       55.558     8770.081     8994.253     3086.733        5.007        1.043      281.454       29.232        0.011      340.038       13.780      865.174
01/16/2015  13:14:00     -129.437      -38.538        4.138      128.768       91.437       55.275    16581.249     8360.712     3055.297        2.312        1.400      135.052       57.077        0.179      340.122       13.923      865.172
01/16/2015  13:15:00     -238.254      -43.147       -6.151      123.117      110.686       57.517    15157.808    12251.438     3308.205        4.469        1.536      242.129       56.886        0.055      340.099       13.883      865.176
01/16/2015  13:16:00     -579.301     -180.552      -24.895      249.166      163.352       86.770    62083.847    26683.791     7529.082       23.254        4.815      606.785       91.058        0.023      340.010       13.731      865.166
01/16/2015  13:17:00     -425.587     -128.377      -12.009      162.030      165.864       78.961    26253.569    27510.733     6234.866       12.886        3.000      444.528       78.310        0.031      340.012       13.736      865.113
01/16/2015  13:18:00     -318.321        6.668      -20.956      154.856      114.820       77.954    23980.429    13183.562     6076.763        7.252        2.162      318.390       70.719        0.049      340.051       13.803      865.076
01/16/2015  13:19:00     -143.042       -6.081       -1.468      104.600       88.151       35.979    10941.228     7770.534     1294.493        2.025        1.000      143.171       29.646        0.043      340.105       13.895      865.038
01/16/2015  13:20:00     -274.677      -29.258      -10.378      158.610      109.096       62.329    25156.986    11901.950     3884.862        5.867        2.047      276.231       64.421        0.054      340.078       13.847      865.013
01/16/2015  13:21:00     -202.067      -49.367       -4.100      143.413      130.630       66.600    20567.361    17064.119     4435.611        4.267        2.103      208.010       62.194        0.089      340.108       13.899      865.019
01/16/2015  13:22:00     -406.482     -148.006      -23.154      152.409      108.745       81.666    23228.479    11825.428     6669.368       11.469        2.086      432.590       78.926        0.033      340.015       13.740      865.010
01/16/2015  13:23:00     -204.586      -61.428      -15.462      118.180      112.151       50.648    13966.627    12577.807     2565.222        3.748        1.455      213.610       38.481        0.032      340.115       13.909      865.021
01/16/2015  13:24:00     -124.833      -74.484       -5.537       78.385       69.644       45.258     6144.186     4850.238     2048.241        1.710        0.652      145.366       46.074        0.100      340.167       14.000      865.023
01/16/2015  13:25:00     -252.340       -4.019      -16.045      122.658      116.848       61.839    15045.046    13653.446     3824.096        4.823        1.626      252.372       58.791        0.054      340.158       13.981      865.037
01/16/2015  13:26:00     -372.540      -72.690      -14.232      222.720      142.979       70.640    49604.064    20442.893     4990.039       10.964        3.752      379.566       85.552        0.051      340.086       13.862      865.016
01/16/2015  13:27:00     -446.772     -122.414      -22.806      183.973      149.832       88.176    33846.183    22449.556     7775.033       13.958        3.204      463.239       84.307        0.033      339.994       13.706      865.011
01/16/2015  13:28:00     -502.009     -156.859      -18.331      274.476      176.453       90.122    75337.114    31135.739     8121.952       19.576        5.730      525.945      100.687        0.037      339.917       13.574      865.016
01/16/2015  13:29:00     -501.076     -125.791      -11.432      183.701      146.302       71.207    33745.909    21404.268     5070.412       16.362        3.011      516.624       88.044        0.029      339.907       13.559      865.011
01/16/2015  13:30:00     -328.375      -41.860      -12.871      145.889      106.382       59.717    21283.580    11317.063     3566.118        7.295        1.808      331.033       64.117        0.038      339.978       13.678      865.007
01/16/2015  13:31:00     -262.358      -16.665       -4.110      147.875      107.448       54.934    21867.117    11545.077     3017.721        5.277        1.821      262.887       70.507        0.072      340.085       13.859      865.034
01/16/2015  13:32:00     -264.202      -94.754      -18.550      128.319      111.904       68.364    16465.861    12522.601     4673.622        5.639        1.683      280.679       62.590        0.050      340.094       13.873      865.029
01/16/2015  13:33:00     -472.946       -7.178      -48.433      197.557      139.951       68.381    39028.904    19586.204     4675.995       14.467        3.165      473.001       58.291        0.015      339.939       13.612      864.979
01/16/2015  13:34:00     -334.959     -116.312      -27.478      141.100      142.018       74.826    19909.175    20169.040     5598.925        8.607        2.284      354.579       68.020        0.037      339.942       13.618      864.935
01/16/2015  13:35:00     -195.351      -32.763       -4.910      106.012      126.077       62.268    11238.520    15895.330     3877.249        3.513        1.551      198.079       42.854        0.047      340.035       13.775      864.906
01/16/2015  13:36:00     -177.358      -56.483      -14.260       71.083       88.406       38.351     5052.767     7815.563     1470.801        2.459        0.717      186.135       24.508        0.017      340.067       13.829      864.867
01/16/2015  13:37:00     -304.616      -68.247      -34.116      155.307      121.019       64.973    24120.318    14645.569     4221.436        7.079        2.149      312.167       70.462        0.051      340.049       13.797      864.870
01/16/2015  13:38:00     -486.759     -132.852      -24.795      118.279      104.247       57.839    13990.008    10867.478     3345.365       14.170        1.410      504.563       54.154        0.012      339.908       13.559      864.861
01/16/2015  13:39:00     -383.677       -9.301      -33.362      114.344       85.994       55.937    13074.501     7394.981     3128.893        8.600        1.180      383.789       57.429        0.022      339.911       13.566      864.850
01/16/2015  13:40:00     -275.100      -94.442      -16.664      123.291      116.852       59.811    15200.780    13654.381     3577.381        5.865        1.622      290.860       57.408        0.039      339.926       13.591      864.828
01/16/2015  13:41:00     -167.720       33.318      -15.574       93.292       79.234       44.626     8703.370     6278.051     1991.456        2.322        0.849      170.998       44.061        0.066      339.946       13.625      864.845
01/16/2015  13:42:00     -361.723      -17.928      -22.458      187.874      125.612       72.596    35296.531    15778.256     5270.162        9.400        2.817      362.167       85.626        0.056      339.915       13.571      864.838
01/16/2015  13:43:00     -292.369      -75.396       -9.628      122.339      129.026       63.759    14966.886    16647.821     4065.189        6.346        1.784      301.934       66.068        0.048      339.952       13.634      864.791
01/16/2015  13:44:00     -284.795       35.105      -21.528      134.726       98.474       64.757    18151.163     9697.168     4193.481        5.742        1.602      286.951       68.942        0.058      339.908       13.559      864.728
01/16/2015  13:45:00     -499.116      -50.472      -40.970      232.960      109.997       76.254    54270.229    12099.406     5814.684       16.275        3.609      501.662      114.404        0.052      339.794       13.367      864.657
01/16/2015  13:46:00     -169.178      -80.969        9.017      121.288      122.072       52.007    14710.788    14901.591     2704.736        3.378        1.616      187.556       49.053        0.068      339.820       13.414      864.578
01/16/2015  13:47:00     -289.687      -83.655      -14.722      131.199      116.790       60.737    17213.302    13639.936     3688.949        6.283        1.727      301.524       61.246        0.041      339.791       13.363      864.518
01/16/2015  13:48:00     -179.095      -59.488      -26.238      132.174      107.078       77.949    17469.853    11465.773     6075.992        3.565        1.751      188.716       83.363        0.195      339.833       13.435      864.539
01/16/2015  13:49:00     -154.561      -39.567       15.038      101.765      107.419       56.326    10356.018    11538.752     3172.586        2.537        1.253      159.545       66.552        0.174      339.875       13.506      864.600
01/16/2015  13:50:00     -199.578      -53.033      -15.036      101.786      121.836       53.197    10360.341    14844.126     2829.918        3.545        1.402      206.503       45.437        0.048      339.810       13.397      864.648
01/16/2015  13:51:00     -261.338       64.686      -37.537       99.124       95.492       53.724     9825.473     9118.787     2886.261        4.786        1.092      269.225       29.903        0.012      339.779       13.344      864.683
01/16/2015  13:52:00     -194.553       99.555      -16.244      110.574       79.654       53.015    12226.522     6344.740     2810.621        3.470        1.069      218.545       55.244        0.064      339.814       13.402      864.707
01/16/2015  13:53:00     -202.071      174.206      -32.880      111.664      118.149       64.047    12468.745    13959.141     4102.049        5.139        1.526      266.796       62.950        0.056      339.805       13.388      864.722
01/16/2015  13:54:00     -210.988       97.060      -24.209       86.445      140.446       59.095     7472.699    19725.167     3492.187        4.260        1.535      232.243       48.837        0.044      339.819       13.411      864.713
01/16/2015  13:55:00     -211.508      102.526      -20.630      131.363      107.751       62.896    17256.231    11610.199     3955.930        4.424        1.641      235.047       81.030        0.119      339.863       13.485      864.708
01/16/2015  13:56:00     -225.475       34.358      -29.844       77.837       81.427       45.956     6058.626     6630.365     2111.963        3.385        0.740      228.078       35.166        0.024      339.863       13.483      864.685
01/16/2015  13:57:00     -132.755       27.315       -3.333       67.344       57.760       50.315     4535.179     3336.233     2531.639        1.439        0.520      135.536       31.277        0.053      339.948       13.631      864.693
01/16/2015  13:58:00     -209.830       22.374      -19.539       95.222       84.157       52.797     9067.229     7082.447     2787.536        3.192        0.947      211.020       52.871        0.063      339.923       13.587      864.715
01/16/2015  13:59:00     -316.090      142.734      -39.909      139.183      121.497       71.305    19371.868    14761.546     5084.399        8.054        1.961      346.822       68.637        0.039      339.968       13.661      864.702
01/16/2015  14:00:00     -119.341       97.292       -6.789      102.092      126.885       57.383    10422.696    16099.730     3292.758        2.678        1.491      153.974       34.871        0.051      340.085       13.859      864.709
01/16/2015  14:01:00     -185.454       44.238      -18.415       81.245      100.309       54.942     6600.775    10061.956     3018.672        2.818        0.984      190.657       40.979        0.046      340.131       13.938      864.706
01/16/2015  14:02:00     -204.305      -71.697      -16.342      149.609      107.053       63.668    22382.996    11460.391     4053.671        4.252        1.895      216.520       62.003        0.082      340.202       14.057      864.701
01/16/2015  14:03:00     -302.225      -82.221      -29.770      110.975      112.646       53.517    12315.555    12689.047     2864.075        6.342        1.393      313.210       56.124        0.032      340.109       13.899      864.711
01/16/2015  14:04:00     -444.943       14.676      -46.557      133.640      117.626       62.402    17859.644    13835.981     3894.012       11.797        1.779      445.185       51.220        0.013      340.014       13.739      864.720
01/16/2015  14:05:00     -297.974      -27.245      -34.297      136.505       71.006       57.376    18633.531     5041.882     3291.977        5.883        1.348      299.217       46.071        0.024      340.117       13.912      864.716
01/16/2015  14:06:00     -264.099      -19.285      -32.010      129.119      134.273       65.352    16671.723    18029.241     4270.947        5.505        1.949      264.803       60.307        0.052      340.094       13.875      864.733
01/16/2015  14:07:00     -404.754       11.568      -41.493      152.248      160.425       77.913    23179.306    25736.235     6070.374       11.032        2.749      404.919       58.862        0.021      340.128       13.932      864.706
01/16/2015  14:08:00     -331.215     -141.062       -5.184      165.011      157.179       71.967    27228.762    24705.381     5179.220        9.336        2.856      360.002       51.106        0.020      340.161       13.986      864.704
01/16/2015  14:09:00     -293.148       19.904      -39.771      175.331      109.543       42.654    30741.116    11999.712     1819.329        6.623        2.228      293.823       50.256        0.029      340.172       14.005      864.741
01/16/2015  14:10:00     -445.268        6.081      -44.452      226.962      161.991       85.662    51511.964    26241.186     7337.989       14.267        4.255      445.309       90.759        0.042      340.113       13.905      864.732
01/16/2015  14:11:00     -381.268      -56.004      -34.361      153.769      162.037       72.565    23644.916    26256.043     5265.649       10.242        2.758      385.359       59.540        0.024      340.216       14.079      864.711
01/16/2015  14:12:00     -456.612     -153.367      -11.484      229.940      167.725      109.911    52872.604    28131.540    12080.450       16.260        4.654      481.680      110.825        0.053      340.218       14.082      864.685
01/16/2015  14:13:00     -593.664     -201.742      -26.243      204.174      182.945      101.843    41687.084    33468.736    10371.917       23.966        4.276      627.006      104.365        0.028      340.162       13.988      864.679
01/16/2015  14:14:00     -446.166      -62.571      -16.455      180.698      202.444       79.245    32651.860    40983.760     6279.808       14.157        3.996      450.532       84.524        0.035      340.194       14.044      864.689
01/16/2015  14:15:00     -366.989      -35.094      -20.330      225.345      141.018       84.138    50780.167    19886.085     7079.236       10.702        3.887      368.663       95.391        0.067      340.274       14.179      864.682
01/16/2015  14:16:00     -494.107       22.687      -39.416      193.622      152.943       79.886    37489.590    23391.707     6381.753       15.673        3.363      494.628       82.553        0.028      340.147       13.962      864.691
01/16/2015  14:17:00     -401.994      -41.870      -12.667      168.324      168.015       95.183    28332.931    28229.083     9059.728       11.456        3.281      404.169       86.968        0.046      340.186       14.030      864.696
01/16/2015  14:18:00     -532.737     -139.426      -48.611      204.447      152.733       89.244    41798.609    23327.375     7964.534       18.934        3.655      550.680       93.650        0.029      340.084       13.857      864.671
01/16/2015  14:19:00     -454.069      -64.780      -27.497      211.788      160.862       83.499    44854.093    25876.669     6972.105       14.440        3.885      458.667       80.128        0.031      340.014       13.739      864.678
01/16/2015  14:20:00     -389.299      -94.628      -34.385      227.362      128.341       90.831    51693.532    16471.393     8250.270       11.904        3.821      400.635      102.853        0.066      340.130       13.936      864.672
01/16/2015  14:21:00     -340.852      -86.706      -28.834      151.236      108.331       79.693    22872.434    11735.654     6350.976        8.274        2.048      351.707       74.874        0.045      340.083       13.855      864.708
01/16/2015  14:22:00     -435.324     -204.332      -20.823      204.250      162.708       82.691    41718.204    26473.733     6837.795       15.335        3.751      480.894       68.815        0.020      340.063       13.822      864.731
01/16/2015  14:23:00     -397.143      -50.134      -27.457      164.034      114.032       68.668    26907.177    13003.291     4715.283       10.280        2.231      400.295       73.276        0.034      340.159       13.984      864.772
01/16/2015  14:24:00     -204.117      -58.374       -0.152      109.651      117.069       63.642    12023.271    13705.126     4050.260        3.742        1.489      212.300       46.126        0.047      340.181       14.022      864.773
01/16/2015  14:25:00     -136.431       47.944      -19.750       81.671       91.727       45.258     6670.233     8413.847     2048.279        1.921        0.857      144.610       32.622        0.051      340.275       14.182      864.752
01/16/2015  14:26:00     -359.069     -144.491      -13.777      238.285       93.909       59.743    56779.548     8818.885     3569.246       10.957        3.458      387.051       64.091        0.027      340.218       14.084      864.711
01/16/2015  14:27:00     -389.718     -159.241      -23.416      147.312      100.804       60.202    21700.968    10161.368     3624.264       10.663        1.774      420.996       56.718        0.018      340.093       13.872      864.708
01/16/2015  14:28:00     -347.014      -84.999      -13.818      122.980      127.633       62.106    15124.106    16290.230     3857.195        8.155        1.764      357.272       57.551        0.026      340.106       13.894      864.671
01/16/2015  14:29:00     -292.781      -72.937      -17.164      141.220      103.069       55.483    19943.033    10623.277     3078.400        6.248        1.682      301.729       63.715        0.045      340.152       13.973      864.672
01/16/2015  14:30:00     -361.503      -39.766      -15.362      199.082      114.353       71.334    39633.679    13076.522     5088.533        9.514        2.890      363.684       89.761        0.061      340.145       13.958      864.678
01/16/2015  14:31:00     -365.390      -57.679      -10.033      176.964      176.579       83.293    31316.395    31180.316     6937.782       10.317        3.472      369.914       84.352        0.052      340.031       13.767      864.664
01/16/2015  14:32:00     -324.301      -36.045      -19.153      143.890      170.302       76.871    20704.394    29002.936     5909.135        8.122        2.781      326.298       74.348        0.052      340.032       13.768      864.659
01/16/2015  14:33:00     -217.985       -9.279       -9.731       96.899       90.338       64.370     9389.392     8160.887     4143.557        3.469        1.085      218.182       57.139        0.069      339.979       13.680      864.690
01/16/2015  14:34:00     -332.992     -147.680      -10.218       91.379       98.315       54.236     8350.136     9665.776     2941.519        7.687        1.048      364.270       34.475        0.009      340.021       13.749      864.735
01/16/2015  14:35:00     -217.660      -12.823      -25.216       72.702       77.998       48.501     5285.609     6083.755     2352.308        3.095        0.686      218.038       38.117        0.031      340.031       13.767      864.768
01/16/2015  14:36:00     -201.615      -34.147        2.764      123.589       79.593       42.433    15274.355     6335.003     1800.598        3.261        1.170      204.486       48.311        0.056      340.100       13.887      864.784
01/16/2015  14:37:00     -171.541      -55.728       -5.706       98.175      102.055       41.656     9638.244    10415.307     1735.235        2.717        1.089      180.367       41.861        0.054      340.107       13.897      864.763
01/16/2015  14:38:00      -61.946        0.491       19.869      108.279       63.285       50.916    11724.278     4005.026     2592.397        1.127        0.916       61.948       55.886        0.814      340.124       13.927      864.738
01/16/2015  14:39:00     -172.796       -8.367      -15.242      130.376       72.604       45.019    16997.844     5271.269     2026.743        2.722        1.215      172.998       63.671        0.135      340.077       13.847      864.767
01/16/2015  14:40:00     -311.088       31.611      -17.013      158.695      127.941       71.637    25184.100    16368.876     5131.896        7.237        2.334      312.690       75.436        0.058      340.010       13.733      864.781
01/16/2015  14:41:00     -201.105     -122.771       22.028      149.509      105.577       70.565    22352.965    11146.403     4979.466        4.723        1.924      235.618       75.485        0.103      340.060       13.817      864.766
01/16/2015  14:42:00     -328.483      -64.661      -27.986      136.793      136.746       58.521    18712.429    18699.458     3424.681        7.684        2.042      334.787       69.197        0.043      340.000       13.717      864.758
01/16/2015  14:43:00     -282.815      -52.959      -17.946       81.796      106.263       48.729     6690.630    11291.743     2374.563        5.173        1.018      287.731       42.271        0.022      340.065       13.824      864.751
01/16/2015  14:44:00     -198.505      -50.094       -9.355      112.643       78.086       58.093    12688.394     6097.476     3374.762        3.208        1.108      204.728       41.151        0.040      340.077       13.845      864.735
01/16/2015  14:45:00     -174.039      -84.539      -25.343       96.464       86.497       47.335     9305.307     7481.653     2240.616        2.855        0.951      193.485       37.759        0.038      340.067       13.830      864.744
01/16/2015  14:46:00     -179.826      -62.358      -13.797      115.873      106.989       62.881    13426.542    11446.711     3954.016        3.262        1.441      190.331       52.511        0.076      340.076       13.846      864.733
01/16/2015  14:47:00     -306.773      -84.798      -31.145      171.220       99.779       61.188    29316.449     9955.840     3743.981        7.264        2.151      318.277       54.071        0.029      340.057       13.811      864.724
01/16/2015  14:48:00     -239.312     -114.962      -20.061      146.280       97.240       59.272    21397.783     9455.556     3513.210        5.262        1.718      265.493       60.820        0.052      340.097       13.879      864.726
01/16/2015  14:49:00     -249.286     -106.707      -12.156      207.004      104.955       69.317    42850.563    11015.621     4804.779        6.616        2.934      271.164       92.203        0.116      340.052       13.804      864.746
01/16/2015  14:50:00     -194.955       -0.512        8.133      173.213       80.943       60.060    30002.773     6551.751     3607.216        3.911        2.008      194.955       83.920        0.185      340.117       13.915      864.720
01/16/2015  14:51:00     -290.410      -38.338      -16.196      117.895       75.711       51.677    13899.229     5732.152     2670.472        5.418        1.115      292.930       55.309        0.036      340.111       13.904      864.722
01/16/2015  14:52:00     -273.365      -14.831      -12.962      218.959       93.249       74.960    47942.891     8695.385     5618.961        6.868        3.113      273.768      108.929        0.158      340.166       13.997      864.733
01/16/2015  14:53:00     -420.046      -72.972      -41.758      157.026       81.849       64.117    24657.157     6699.182     4111.016       10.948        1.773      426.338       67.597        0.025      340.123       13.922      864.759
01/16/2015  14:54:00     -292.916      -27.019      -20.084      147.171      118.348       70.216    21659.373    14006.189     4930.257        6.376        2.030      294.159       77.980        0.070      340.151       13.971      864.786
01/16/2015  14:55:00     -244.369      -52.586      -14.598      125.836      102.489       58.613    15834.815    10503.916     3435.454        4.623        1.489      249.963       61.680        0.061      340.193       14.040      864.823
01/16/2015  14:56:00      -95.932      -47.175       11.215      168.445       97.822       73.694    28373.881     9569.156     5430.847        2.746        2.169      106.904       93.720        0.769      340.251       14.141      864.798
01/16/2015  14:57:00     -320.765       18.230      -38.325      151.686      173.631       60.048    23008.630    30147.700     3605.810        8.072        2.838      321.283       71.581        0.050      340.093       13.874      864.803
01/16/2015  14:58:00     -297.272      311.287      -76.999       73.544      139.348       53.939     5408.736    19417.876     2909.388       10.946        1.387      430.430       45.647        0.011      339.803       13.383      864.832
01/16/2015  14:59:00     -165.152      279.588      -34.523      103.584      112.459       61.026    10729.611    12647.076     3724.187        6.686        1.355      324.722       71.563        0.049      339.947       13.626      864.826
01/16/2015  15:00:00     -130.703      245.450      -34.550       89.543       91.582       48.522     8017.936     8387.304     2354.393        4.864        0.938      278.081       49.916        0.032      339.848       13.458      864.873
01/16/2015  15:01:00      -98.847      263.236      -27.685       68.666       74.660       44.414     4714.954     5574.146     1972.640        4.604        0.613      281.183       35.007        0.015      339.897       13.543      864.896
01/16/2015  15:02:00     -137.002      226.515      -33.482       73.387       78.121       48.218     5385.585     6102.842     2324.973        4.250        0.691      264.723       45.974        0.030      339.858       13.476      864.947
01/16/2015  15:03:00     -127.157      117.689      -15.856       64.254       58.612       45.242     4128.547     3435.312     2046.863        1.994        0.481      173.262       38.194        0.049      339.804       13.387      864.953
01/16/2015  15:04:00     -152.246       29.810       -5.963      110.208       89.604       48.206    12145.722     8028.855     2323.835        2.330        1.125      155.137       49.979        0.104      339.818       13.411      864.952
01/16/2015  15:05:00      -87.511       91.650       -7.153       79.108      100.614       46.320     6258.018    10123.210     2145.537        1.731        0.926      126.720       55.377        0.191      339.820       13.413      864.944
01/16/2015  15:06:00     -127.229      -46.129       -6.101      131.790      101.888       54.524    17368.724    10381.072     2972.839        2.453        1.536      135.333       56.716        0.176      339.768       13.327      864.934
01/16/2015  15:07:00      -98.287      -28.225       16.301       85.858       74.417       42.066     7371.675     5537.955     1769.519        1.270        0.734      102.259       35.418        0.120      339.839       13.446      864.954
01/16/2015  15:08:00     -227.922       29.939      -36.254       76.078      105.262       45.611     5787.824    11079.998     2080.387        3.655        0.947      229.880       43.014        0.035      339.725       13.252      864.981
01/16/2015  15:09:00     -193.244      -44.087      -13.157      109.417       96.273       50.723    11972.099     9268.449     2572.819        3.163        1.191      198.209       49.111        0.061      339.755       13.303      865.003
01/16/2015  15:10:00     -239.704      -72.517      -12.996      150.242       92.436       62.575    22572.721     8544.333     3915.635        4.895        1.752      250.433       67.752        0.073      339.722       13.247      864.999
01/16/2015  15:11:00     -249.538       28.331      -16.522       88.634      153.663       68.907     7856.043    23612.257     4748.229        4.977        1.811      251.141       61.148        0.059      339.701       13.211      865.009
01/16/2015  15:12:00     -244.384      192.174      -52.848       89.026      119.299       59.600     7925.603    14232.234     3552.109        6.257        1.285      310.893       54.849        0.031      339.594       13.030      865.052
01/16/2015  15:13:00     -173.734      121.902      -28.975       74.540       97.032       49.609     5556.276     9415.120     2461.056        3.165        0.872      212.235       38.980        0.034      339.685       13.185      865.036
01/16/2015  15:14:00     -128.808       94.543      -11.672       88.420       96.463       55.955     7818.162     9305.198     3130.979        2.296        1.013      159.781       51.445        0.104      339.721       13.246      865.085
01/16/2015  15:15:00     -129.046      162.221      -34.223       93.078      107.219       49.414     8663.455    11495.822     2441.707        3.337        1.130      207.288       56.574        0.074      339.714       13.234      865.089
01/16/2015  15:16:00     -161.220       23.994      -29.595       83.892       73.149       52.646     7037.847     5350.843     2771.600        2.130        0.758      162.996       44.280        0.074      339.734       13.271      865.077
01/16/2015  15:17:00     -119.533       90.090      -15.820       66.237       95.565       52.711     4387.367     9132.681     2778.453        1.947        0.815      149.681       57.753        0.149      339.787       13.358      865.102
01/16/2015  15:18:00     -170.911      174.342      -39.231       64.245       76.383       43.089     4127.459     5834.426     1856.674        3.648        0.591      244.143       34.808        0.020      339.761       13.312      865.107
01/16/2015  15:19:00     -157.882      209.347      -38.145       77.919       79.492       46.887     6071.376     6318.935     2198.435        4.240        0.729      262.208       39.825        0.023      339.747       13.290      865.114
01/16/2015  15:20:00     -216.308      175.955      -52.650       65.949       73.290       38.913     4349.243     5371.497     1514.224        4.588        0.562      278.836       42.302        0.023      339.688       13.190      865.133
01/16/2015  15:21:00     -140.819      113.874      -28.832       67.655       47.304       34.383     4577.179     2237.707     1182.195        2.081        0.400      181.100       26.306        0.021      339.705       13.218      865.125
01/16/2015  15:22:00     -141.658      202.236      -36.512       61.573       88.605       37.985     3791.273     7850.803     1442.862        3.769        0.654      246.914       37.252        0.023      339.724       13.249      865.140
01/16/2015  15:23:00     -224.989       46.274      -26.124      111.075       98.292       63.126    12337.669     9661.235     3984.846        3.971        1.299      229.698       58.225        0.064      339.705       13.221      865.152
01/16/2015  15:24:00     -250.923      138.133      -51.960      122.629      186.546       71.358    15037.793    34799.499     5091.940        6.983        2.746      286.431       67.928        0.056      339.629       13.091      865.190
01/16/2015  15:25:00     -211.354      327.471      -52.928       92.674      126.601       72.564     8588.432    16027.740     5265.493        9.229        1.494      389.753       72.630        0.035      339.585       13.016      865.224
01/16/2015  15:26:00     -143.900      212.341      -30.796      104.165       95.684       53.637    10850.274     9155.482     2876.903        4.481        1.144      256.507       65.080        0.064      339.663       13.148      865.246
01/16/2015  15:27:00     -103.835      309.425      -33.745       86.051      116.507       65.126     7404.841    13573.840     4241.378        6.644        1.261      326.383       66.768        0.042      339.606       13.052      865.265
01/16/2015  15:28:00     -180.757      438.647      -54.538       81.855      108.354       56.020     6700.198    11740.659     3138.255       12.481        1.079      474.430       51.040        0.012      339.565       12.982      865.289
01/16/2015  15:29:00     -138.481      365.864      -33.699       82.625      118.059       67.696     6826.924    13937.966     4582.713        8.975        1.267      391.195       64.780        0.027      339.634       13.099      865.298
01/16/2015  15:30:00     -190.528      288.049      -46.830       83.100      115.379       54.419     6905.689    13312.290     2961.401        7.232        1.159      345.359       47.061        0.019      339.639       13.107      865.310
01/16/2015  15:31:00     -134.790      280.800      -39.229       87.119      111.834       58.318     7589.749    12506.940     3400.984        6.102        1.175      311.476       58.113        0.035      339.635       13.100      865.296
01/16/2015  15:32:00      -88.217      138.144      -28.528       56.937      108.488       51.825     3241.791    11769.672     2685.814        2.269        0.885      163.908       38.653        0.056      339.687       13.190      865.296
01/16/2015  15:33:00     -198.227      202.896      -50.899       92.022       87.856       51.582     8468.068     7718.641     2660.753        5.095        0.942      283.656       54.351        0.037      339.624       13.082      865.305
01/16/2015  15:34:00      -81.461      227.163      -28.867       57.874       70.331       47.271     3349.401     4946.425     2234.547        3.480        0.527      241.328       37.544        0.024      339.667       13.152      865.311
01/16/2015  15:35:00     -122.461      159.887      -19.223       88.065       97.640       61.259     7755.409     9533.573     3752.704        3.098        1.052      201.397       46.239        0.053      339.654       13.132      865.298
01/16/2015  15:36:00     -119.911      218.959      -30.973       65.619       75.584       45.994     4305.877     5712.938     2115.479        3.771        0.607      249.644       46.661        0.035      339.631       13.094      865.273
01/16/2015  15:37:00     -133.373       93.701      -21.987       70.687       71.024       31.749     4996.703     5044.387     1008.003        1.905        0.552      162.997       17.915        0.012      339.686       13.188      865.256
01/16/2015  15:38:00     -138.629      115.267      -25.437       73.085       92.349       51.370     5341.470     8528.312     2638.892        2.483        0.825      180.290       45.784        0.064      339.659       13.143      865.258
01/16/2015  15:39:00      -67.597      173.701      -19.965       78.995      101.089       38.685     6240.219    10219.048     1496.498        2.654        0.898      186.390       33.511        0.032      339.645       13.119      865.266
01/16/2015  15:40:00      -96.017      278.284      -38.029       69.167      101.813       42.661     4784.138    10365.936     1819.945        5.254        0.849      294.383       36.248        0.015      339.605       13.047      865.231
01/16/2015  15:41:00      -64.940      305.764      -46.006       75.121       77.239       38.891     5643.207     5965.806     1512.473        5.647        0.656      312.584       29.461        0.009      339.603       13.045      865.215
01/16/2015  15:42:00     -145.753      198.324      -26.885       95.917      123.184       55.901     9200.129    15174.415     3124.934        4.439        1.375      246.123       59.072        0.058      339.656       13.135      865.232
01/16/2015  15:43:00     -153.314      254.687      -42.436       99.138      102.385       57.907     9828.256    10482.745     3353.168        5.691        1.183      297.272       55.004        0.034      339.597       13.035      865.258
01/16/2015  15:44:00      -64.105      250.278      -28.274       64.387       97.329       43.521     4145.624     9472.862     1894.050        4.153        0.776      258.357       48.711        0.036      339.657       13.138      865.259
01/16/2015  15:45:00      -84.080      227.195      -16.431       52.852       76.282       37.901     2793.315     5818.942     1436.500        3.450        0.502      242.254       35.538        0.022      339.736       13.271      865.261
01/16/2015  15:46:00     -108.371      285.733      -29.567       63.422      136.299       54.759     4022.399    18577.384     2998.550        5.993        1.280      305.594       65.027        0.045      339.694       13.199      865.256
01/16/2015  15:47:00      -70.935      224.132      -26.358       60.017       75.574       51.293     3602.094     5711.441     2630.932        3.395        0.597      235.089       40.644        0.030      339.624       13.080      865.248
01/16/2015  15:48:00      -58.370      338.460      -32.184       77.852      119.794       57.407     6060.982    14350.510     3295.602        7.135        1.185      343.456       55.301        0.026      339.510       12.888      865.252
01/16/2015  15:49:00      -26.076      421.555      -56.274       59.723       91.477       40.038     3566.828     8368.125     1603.079        9.754        0.677      422.361       37.051        0.008      339.536       12.933      865.256
01/16/2015  15:50:00     -129.019      182.378      -32.083       75.083      106.741       42.978     5637.463    11393.576     1847.150        3.490        0.944      223.400       39.240        0.031      339.663       13.149      865.305
01/16/2015  15:51:00     -163.887      260.675      -41.926      115.395      121.596       62.674    13316.046    14785.480     3928.000        6.429        1.601      307.913       73.091        0.056      339.619       13.074      865.366
01/16/2015  15:52:00     -127.090      397.350      -36.998       94.778      116.978       69.479     8982.939    13683.869     4827.344       10.145        1.375      417.179       60.443        0.021      339.477       12.834      865.395
01/16/2015  15:53:00     -101.042      297.810      -33.244       77.604      113.005       53.400     6022.453    12770.153     2851.519        6.082        1.082      314.484       53.204        0.029      339.484       12.845      865.399
01/16/2015  15:54:00     -145.108      246.878      -53.010      102.407       83.857       41.364    10487.159     7032.017     1710.947        5.202        0.962      286.365       38.847        0.018      339.489       12.853      865.412
01/16/2015  15:55:00     -117.726      261.003      -36.063       72.162      105.560       53.788     5207.331    11142.967     2893.131        5.126        0.962      286.325       46.773        0.027      339.491       12.856      865.447
01/16/2015  15:56:00     -119.406      296.568      -34.828       67.259       98.771       50.776     4523.758     9755.681     2578.206        6.014        0.843      319.704       43.419        0.018      339.506       12.882      865.489
01/16/2015  15:57:00     -114.732      332.585      -43.082       57.924       92.184       43.766     3355.146     8497.854     1915.450        6.970        0.688      351.819       37.830        0.012      339.469       12.818      865.518
01/16/2015  15:58:00      -74.805      208.648      -16.271       70.975      109.369       39.858     5037.403    11961.669     1588.648        3.399        0.929      221.653       46.775        0.045      339.565       12.982      865.513
01/16/2015  15:59:00     -116.173      305.996      -39.757       87.526       94.110       53.933     7660.879     8856.719     2908.768        6.407        0.971      327.307       47.166        0.021      339.469       12.818      865.530
01/16/2015  16:00:00     -167.514      236.860      -41.886      102.096      140.809       65.280    10423.570    19827.070     4261.435        6.021        1.726      290.110       77.765        0.072      339.482       12.844      865.553
01/16/2015  16:01:00      -78.082      185.783      -10.376       53.085       65.923       42.805     2817.977     4345.829     1832.287        2.486        0.450      201.524       38.013        0.036      339.545       12.948      865.583
01/16/2015  16:02:00      -80.472      326.137      -29.004       63.729      105.073       47.571     4061.448    11040.366     2262.980        6.552        0.868      335.918       39.886        0.014      339.462       12.809      865.598
01/16/2015  16:03:00     -160.331      216.987      -38.293       94.899       80.871       50.739     9005.781     6540.081     2574.494        4.619        0.906      269.795       49.981        0.034      339.479       12.836      865.619
01/16/2015  16:04:00      -66.991      282.829      -35.431       54.250       86.102       47.071     2943.009     7413.609     2215.646        4.915        0.629      290.654       42.582        0.021      339.443       12.775      865.651
01/16/2015  16:05:00     -146.981      197.246      -25.042       95.123      101.357       54.451     9048.322    10273.326     2964.868        4.171        1.114      245.986       56.642        0.053      339.515       12.898      865.673
01/16/2015  16:06:00     -153.915      207.873      -35.286       77.646      105.097       47.763     6028.895    11045.418     2281.297        4.375        0.968      258.652       36.671        0.020      339.439       12.769      865.694
01/16/2015  16:07:00     -107.085      230.468      -22.672       59.863       72.424       45.920     3583.598     5245.214     2108.671        3.802        0.547      254.131       43.085        0.029      339.474       12.828      865.690
01/16/2015  16:08:00     -131.966      293.423      -36.934       79.654       84.566       49.796     6344.832     7151.449     2479.674        6.042        0.799      321.733       43.038        0.018      339.400       12.703      865.692
01/16/2015  16:09:00      -97.721      137.422      -18.647       70.067      129.242       47.366     4909.345    16703.532     2243.497        2.632        1.193      168.625       55.731        0.109      339.436       12.765      865.677
01/16/2015  16:10:00     -140.000      138.608      -24.420       86.144       88.340       56.094     7420.842     7803.974     3146.578        2.889        0.919      197.009       50.644        0.066      339.409       12.719      865.655
01/16/2015  16:11:00      -71.655      230.928      -23.741       70.605       77.960       42.633     4985.050     6077.752     1817.552        3.595        0.644      241.789       36.028        0.022      339.403       12.709      865.643
01/16/2015  16:12:00     -111.327      271.983      -30.906       67.931       89.693       43.554     4614.635     8044.766     1896.983        5.094        0.728      293.885       37.323        0.016      339.372       12.656      865.651
01/16/2015  16:13:00     -119.922      208.693      -23.424       76.837       82.172       44.822     5903.964     6752.235     2009.035        3.657        0.733      240.695       40.043        0.028      339.400       12.702      865.669
01/16/2015  16:14:00     -152.920      251.543      -32.597      102.089      139.368       63.470    10422.108    19423.402     4028.401        6.079        1.694      294.378       70.972        0.058      339.359       12.634      865.685
01/16/2015  16:15:00     -122.051      334.802      -56.896       78.325       93.677       44.896     6134.815     8775.365     2015.646        7.357        0.846      356.355       39.139        0.012      339.341       12.603      865.685
01/16/2015  16:16:00     -167.625      191.721      -24.661      106.480       92.845       55.202    11337.936     8620.205     3047.226        4.423        1.150      254.667       44.653        0.031      339.345       12.610      865.680
01/16/2015  16:17:00     -131.783      192.944      -32.636       78.950       90.768       52.681     6233.087     8238.891     2775.261        3.645        0.862      233.653       39.254        0.028      339.341       12.606      865.699
01/16/2015  16:18:00     -103.784      222.813      -21.915       77.582      104.483       46.312     6019.042    10916.749     2144.793        3.999        0.954      245.798       46.026        0.035      339.361       12.637      865.711
01/16/2015  16:19:00     -104.198      120.195      -20.879       94.670       73.611       40.868     8962.391     5418.538     1670.177        2.089        0.803      159.073       38.210        0.058      339.362       12.642      865.710
01/16/2015  16:20:00      -97.412      293.259      -35.591       86.254       85.564       50.332     7439.698     7321.224     2533.338        5.702        0.865      309.014       53.730        0.030      339.371       12.654      865.712
01/16/2015  16:21:00     -122.135      273.443      -33.518       77.403      133.723       43.827     5991.159    17881.794     1920.786        5.830        1.290      299.480       46.411        0.024      339.367       12.648      865.735
01/16/2015  16:22:00     -109.429      229.511      -20.799       79.780      122.941       53.130     6364.925    15114.433     2822.839        4.469        1.215      254.264       58.157        0.052      339.386       12.680      865.765
01/16/2015  16:23:00     -165.303      249.298      -28.579       66.871      134.919       56.972     4471.752    18203.222     3245.821        5.810        1.296      299.123       55.796        0.035      339.388       12.684      865.781
01/16/2015  16:24:00     -145.886      265.809      -32.719       98.706      115.406       56.158     9742.783    13318.641     3153.691        5.961        1.311      303.212       58.885        0.038      339.367       12.648      865.791
01/16/2015  16:25:00     -151.284      379.753      -45.725       91.971      171.355       56.854     8458.669    29362.447     3232.386       10.511        2.053      408.778       60.480        0.022      339.362       12.640      865.804
01/16/2015  16:26:00     -221.944      336.932      -57.134      101.821      119.482       60.200    10367.441    14276.003     3624.057        9.715        1.413      403.462       58.527        0.021      339.368       12.650      865.856
01/16/2015  16:27:00     -146.536      218.370      -32.549       79.813       86.158       49.738     6370.079     7423.124     2473.822        4.324        0.813      262.979       53.177        0.041      339.405       12.710      865.883
01/16/2015  16:28:00     -201.647      153.514      -39.953      101.388       93.288       59.460    10279.577     8702.690     3535.488        4.417        1.126      253.433       66.033        0.068      339.397       12.698      865.906
01/16/2015  16:29:00     -273.445      237.967      -61.250       83.167      104.929       51.093     6916.670    11010.088     2610.476        7.784        1.027      362.492       47.713        0.017      339.394       12.693      865.937
01/16/2015  16:30:00     -128.110      133.309       -5.606       59.522       87.448       47.952     3542.841     7647.097     2299.403        2.385        0.674      184.887       42.677        0.053      339.400       12.706      865.956
01/16/2015  16:31:00      -76.583       83.789       -0.518       76.049       68.473       41.242     5783.441     4688.546     1700.912        1.253        0.609      113.515       46.813        0.170      339.420       12.740      865.945
01/16/2015  16:32:00      -44.342      199.923      -11.827       80.594      104.233       47.072     6495.435    10864.455     2215.781        3.082        0.979      204.781       48.828        0.057      339.421       12.742      865.933
01/16/2015  16:33:00      -72.455      322.083      -33.274       62.801       97.573       48.467     3944.019     9520.458     2349.049        6.295        0.791      330.132       49.590        0.023      339.394       12.694      865.912
01/16/2015  16:34:00     -126.566      317.658      -36.478      106.858      121.475       58.933    11418.571    14756.118     3473.113        7.395        1.482      341.943       62.817        0.034      339.397       12.700      865.936
01/16/2015  16:35:00     -109.177      321.804      -35.983      100.128      118.074       59.892    10025.626    13941.411     3587.079        7.216        1.378      339.819       52.907        0.024      339.417       12.733      865.948
01/16/2015  16:36:00      -89.079      253.262      -32.114       83.535      107.327       50.151     6978.093    11519.101     2515.150        4.706        1.051      268.471       45.098        0.028      339.418       12.733      865.966
01/16/2015  16:37:00     -151.535      248.036      -27.984      101.187      121.952       55.532    10238.762    14872.261     3083.779        5.673        1.410      290.663       57.133        0.039      339.414       12.728      865.965
01/16/2015  16:38:00      -99.217      279.397      -32.234       77.308      129.207       37.334     5976.603    16694.490     1393.803        5.650        1.203      296.490       40.358        0.019      339.421       12.739      865.961
01/16/2015  16:39:00      -99.073      223.571      -25.026       62.895       94.147       45.100     3955.742     8863.651     2033.990        3.764        0.743      244.539       48.875        0.040      339.402       12.707      865.984
01/16/2015  16:40:00      -99.560      256.367      -31.636       69.537       80.146       44.796     4835.405     6423.385     2006.646        4.495        0.663      275.021       36.993        0.018      339.419       12.735      865.974
01/16/2015  16:41:00     -102.682      192.573      -30.881       85.849       82.708       47.089     7370.013     6840.686     2217.370        3.250        0.821      218.238       43.514        0.040      339.426       12.747      865.967
01/16/2015  16:42:00      -98.248      272.397      -37.892       80.258       79.402       46.519     6441.362     6304.656     2163.980        5.010        0.745      289.573       46.601        0.026      339.406       12.713      865.958
01/16/2015  16:43:00      -66.549      231.042      -25.229       54.167       59.786       37.587     2934.086     3574.404     1412.773        3.318        0.396      240.436       26.669        0.012      339.406       12.713      865.941
01/16/2015  16:44:00      -39.465      258.239      -36.767       35.524       49.093       28.913     1261.983     2410.160      835.964        3.705        0.225      261.237       19.694        0.006      339.376       12.660      865.925
01/16/2015  16:45:00      -75.350      280.239      -35.542       93.659      101.461       42.336     8772.040    10294.242     1792.367        5.316        1.043      290.192       40.763        0.020      339.328       12.582      865.944
01/16/2015  16:46:00     -129.453      263.011      -40.034      104.689      131.885       55.162    10959.842    17393.768     3042.806        5.946        1.570      293.143       71.156        0.059      339.324       12.575      865.981
01/16/2015  16:47:00      -70.978      128.793      -11.980       55.082       68.822       36.165     3033.983     4736.511     1307.918        1.542        0.454      147.056       21.577        0.022      339.349       12.620      865.994
01/16/2015  16:48:00      -73.390      155.462      -11.241       51.547       59.381       44.599     2657.079     3526.073     1989.075        1.893        0.409      171.915       40.467        0.055      339.336       12.595      866.002
01/16/2015  16:49:00     -129.994      301.301      -28.379      109.706      133.462       59.570    12035.482    17812.228     3548.538        7.094        1.670      328.147       72.479        0.049      339.300       12.535      866.006
01/16/2015  16:50:00     -209.144      288.326      -50.271      114.833       94.489       62.771    13186.691     8928.091     3940.230        7.772        1.303      356.193       60.262        0.029      339.263       12.474      865.995
01/16/2015  16:51:00     -120.454      305.029      -37.872       88.089      109.517       55.182     7759.698    11994.036     3045.093        6.589        1.140      327.951       61.416        0.035      339.269       12.483      866.010
01/16/2015  16:52:00     -157.771      417.225      -53.305      121.370      104.894       56.785    14730.660    11002.795     3224.518       11.538        1.448      446.059       35.149        0.006      339.228       12.415      866.025
01/16/2015  16:53:00     -108.033      259.650      -37.697       95.674      118.384       51.484     9153.438    14014.753     2650.568        5.316        1.291      281.228       55.541        0.039      339.227       12.413      866.033
01/16/2015  16:54:00     -127.839      298.117      -34.908      102.871      117.582       58.164    10582.395    13825.544     3383.056        6.711        1.390      324.371       64.492        0.040      339.207       12.380      866.043
01/16/2015  16:55:00      -75.600      320.342      -40.993       84.844      120.980       51.702     7198.585    14636.044     2673.062        6.726        1.225      329.141       52.498        0.025      339.196       12.361      866.045
01/16/2015  16:56:00     -136.762      261.694      -30.021       96.114      109.326       61.254     9237.861    11952.083     3752.065        5.651        1.247      295.275       59.436        0.041      339.179       12.332      866.068
01/16/2015  16:57:00     -129.786      236.249      -35.520       88.561       99.589       62.948     7842.993     9918.033     3962.472        4.782        1.086      269.552       58.851        0.048      339.180       12.334      866.102
01/16/2015  16:58:00     -178.061      215.675      -44.007      121.757      121.875       59.768    14824.863    14853.412     3572.188        5.670        1.663      279.681       78.224        0.078      339.153       12.288      866.113
01/16/2015  16:59:00     -117.411      320.523      -46.178       96.068      103.768       58.884     9228.988    10767.742     3467.326        7.105        1.173      341.351       51.430        0.023      339.152       12.286      866.105
01/16/2015  17:00:00     -105.712      225.279      -24.594       67.495      126.281       52.828     4555.531    15946.851     2790.840        4.291        1.165      248.849       50.033        0.040      339.159       12.298      866.117
01/16/2015  17:01:00     -183.620      282.421      -48.158      104.234      119.582       50.374    10864.625    14299.946     2537.544        7.175        1.385      336.865       50.145        0.022      339.137       12.260      866.107
01/16/2015  17:02:00     -161.638      248.020      -40.944       82.850      113.632       55.202     6864.064    12912.133     3047.268        5.607        1.141      296.042       49.660        0.028      339.120       12.232      866.115
01/16/2015  17:03:00     -152.108      216.376      -39.763       94.761       93.932       47.901     8979.642     8823.204     2294.531        4.581        1.005      264.491       31.825        0.014      339.133       12.253      866.100
01/16/2015  17:04:00     -102.535      199.942      -27.234       72.054       55.975       34.196     5191.730     3133.215     1169.394        3.036        0.475      224.701       21.016        0.009      339.135       12.256      866.087
01/16/2015  17:05:00     -153.910      242.022      -39.184       74.459      108.051       46.029     5544.088    11675.049     2118.662        5.156        0.967      286.815       43.333        0.023      339.114       12.223      866.086
01/16/2015  17:06:00     -127.849      162.016      -29.154       77.680       85.735       39.858     6034.137     7350.538     1588.631        2.921        0.749      206.385       35.067        0.029      339.115       12.224      866.087
01/16/2015  17:07:00     -118.094      257.822      -28.372       92.493       91.364       54.562     8554.979     8347.429     2977.018        5.055        0.994      283.581       52.292        0.034      339.122       12.234      866.093
01/16/2015  17:08:00     -105.813      224.260      -26.032       72.528       72.489       49.564     5260.283     5254.609     2456.570        3.757        0.649      247.970       46.630        0.035      339.084       12.172      866.069
01/16/2015  17:09:00      -89.558      148.591      -15.433       58.100       58.595       45.367     3375.615     3433.399     2058.148        1.960        0.443      173.493       41.459        0.057      339.077       12.164      866.054
01/16/2015  17:10:00     -102.023      224.778      -23.829       64.335       85.111       43.124     4139.020     7243.906     1859.690        3.737        0.662      246.848       47.894        0.038      339.097       12.194      866.061
01/16/2015  17:11:00     -104.127      251.805      -34.217       71.355       79.767       36.667     5091.510     6362.804     1344.454        4.411        0.640      272.486       15.775        0.003      339.078       12.161      866.050
01/16/2015  17:12:00      -74.869      197.412      -23.064       48.143       61.764       35.622     2317.762     3814.770     1268.910        2.625        0.370      211.132       32.240        0.023      339.070       12.149      866.060
01/16/2015  17:13:00      -96.530      126.093      -14.438       49.648       87.406       46.824     2464.936     7639.824     2192.468        1.886        0.615      158.800       48.294        0.092      339.071       12.153      866.060
01/16/2015  17:14:00     -100.558       83.517       -4.619       68.414       68.909       47.751     4680.490     4748.492     2280.163        1.441        0.585      130.717       35.787        0.075      339.075       12.159      866.064
01/16/2015  17:15:00     -119.092      200.720      -24.106       79.985       73.973       50.566     6397.658     5471.938     2556.957        3.474        0.721      233.391       48.536        0.043      339.036       12.091      866.076
01/16/2015  17:16:00      -69.594      140.868       -8.735       48.262       89.767       44.101     2329.190     8058.043     1944.907        1.855        0.617      157.121       46.430        0.087      339.035       12.090      866.095
01/16/2015  17:17:00     -127.503      108.118      -19.154       63.782       59.629       38.590     4068.107     3555.645     1489.172        1.871        0.456      167.173       28.360        0.029      339.021       12.068      866.136
01/16/2015  17:18:00     -100.229      157.045      -21.588       42.354       92.269       33.149     1793.821     8513.529     1098.862        2.329        0.570      186.303       21.843        0.014      339.037       12.095      866.152
01/16/2015  17:19:00      -91.692      122.551       -7.076       50.264       77.984       44.538     2526.457     6081.575     1983.647        1.703        0.530      153.056       41.970        0.075      339.031       12.086      866.157
01/16/2015  17:20:00     -125.750      152.213      -37.668       58.339       62.919       34.473     3403.443     3958.778     1188.372        2.447        0.428      197.439       26.290        0.018      339.001       12.035      866.176
01/16/2015  17:21:00     -118.207      237.933      -22.136       70.953       96.480       57.646     5034.292     9308.349     3323.006        4.437        0.883      265.678       56.935        0.046      339.013       12.053      866.208
01/16/2015  17:22:00     -192.578      246.065      -56.182       82.964       77.454       49.599     6882.968     5999.128     2460.086        5.806        0.767      312.465       48.321        0.024      339.008       12.045      866.204
01/16/2015  17:23:00     -178.645      170.716      -39.116       82.181       67.881       43.608     6753.782     4607.811     1901.693        3.792        0.663      247.099       44.314        0.032      339.028       12.078      866.227
01/16/2015  17:24:00     -169.420      171.620      -45.966       90.592       75.042       45.767     8206.882     5631.365     2094.640        3.810        0.797      241.157       45.997        0.036      339.000       12.030      866.252
01/16/2015  17:25:00     -125.928      163.606      -31.310       85.420       69.362       52.980     7296.533     4811.131     2806.846        2.926        0.746      206.458       48.792        0.056      338.994       12.021      866.251
01/16/2015  17:26:00      -71.358      273.319      -27.847       82.344       79.571       50.192     6780.537     6331.533     2519.275        4.810        0.782      282.481       41.870        0.022      338.996       12.024      866.233
01/16/2015  17:27:00     -120.376      240.141      -22.079       79.429       99.251       47.186     6308.974     9850.770     2226.474        4.551        0.919      268.623       46.577        0.030      339.013       12.054      866.248
01/16/2015  17:28:00     -124.685      133.125      -28.924       66.932       51.650       37.531     4479.955     2667.706     1408.579        2.133        0.428      182.397       29.993        0.027      338.992       12.019      866.254
01/16/2015  17:29:00      -69.427      156.878       -6.400       72.073       94.387       46.269     5194.485     8908.854     2140.814        2.286        0.812      171.554       44.632        0.068      339.005       12.041      866.248
01/16/2015  17:30:00     -185.347      278.071      -48.683      105.748       93.813       70.101    11182.544     8800.862     4914.082        6.947        1.245      334.181       61.873        0.034      338.990       12.013      866.254
01/16/2015  17:31:00     -185.416      129.643      -26.113       95.279       67.996       46.400     9078.125     4623.445     2152.943        3.386        0.793      226.244       48.411        0.046      339.004       12.038      866.255
01/16/2015  17:32:00     -137.996      177.098      -27.102       92.217      102.760       58.306     8504.028    10559.677     3399.535        3.680        1.123      224.514       43.069        0.037      338.990       12.015      866.257
01/16/2015  17:33:00     -182.154      141.611      -31.588       98.174      141.478       53.045     9638.106    20016.129     2813.799        4.334        1.623      230.725       66.958        0.084      338.959       11.962      866.266
01/16/2015  17:34:00     -121.460      175.907      -29.797       87.653       78.792       60.099     7683.018     6208.208     3611.872        3.204        0.875      213.766       52.484        0.060      338.991       12.015      866.277
01/16/2015  17:35:00     -127.740      186.924      -14.778       90.670      120.357       43.717     8220.986    14485.708     1911.203        3.804        1.231      226.403       52.634        0.054      338.974       11.988      866.298
01/16/2015  17:36:00     -122.388       79.880      -11.906      104.962      113.313       56.588    11017.029    12839.948     3202.238        2.428        1.353      146.149       61.950        0.180      338.969       11.980      866.338
01/16/2015  17:37:00     -114.054      106.488      -24.082       64.031       73.978       44.844     4100.018     5472.743     2011.010        1.825        0.579      156.038       41.233        0.070      338.947       11.944      866.359
01/16/2015  17:38:00     -116.766      207.641      -15.086      108.009      122.069       65.979    11665.908    14900.799     4353.170        4.394        1.546      238.221       63.081        0.070      338.929       11.912      866.370
01/16/2015  17:39:00      -87.177      142.218       -3.993       72.636       85.430       50.079     5275.989     7298.343     2507.934        2.146        0.754      166.810       45.545        0.075      338.943       11.937      866.347
01/16/2015  17:40:00     -127.905      108.591      -18.417       77.395       66.629       41.213     5989.923     4439.399     1698.531        2.031        0.606      167.785       40.505        0.058      338.895       11.855      866.354
01/16/2015  17:41:00     -175.708      227.162      -41.298      124.809      135.790       59.333    15577.351    18438.855     3520.437        6.085        1.877      287.186       72.123        0.063      338.891       11.847      866.384
01/16/2015  17:42:00     -192.271      141.038      -24.763      135.915       56.711       55.360    18472.915     3216.133     3064.720        4.111        1.238      238.453       53.581        0.050      338.874       11.819      866.382
01/16/2015  17:43:00     -145.461      161.252      -26.812       60.425       76.051       39.812     3651.158     5783.770     1585.029        2.945        0.551      217.166       28.775        0.018      338.859       11.798      866.394
01/16/2015  17:44:00     -148.389      240.038      -32.986       80.296      135.580       57.660     6447.525    18381.921     3324.724        5.444        1.408      282.201       52.935        0.035      338.865       11.805      866.419
01/16/2015  17:45:00     -112.712      129.199      -13.107       85.185       80.717       44.701     7256.485     6515.204     1998.201        2.267        0.788      171.454       39.405        0.053      338.848       11.777      866.424
01/16/2015  17:46:00     -158.291       99.453      -22.912       70.710       68.602       50.260     4999.928     4706.290     2526.033        2.385        0.612      186.941       45.010        0.058      338.835       11.754      866.426
01/16/2015  17:47:00      -90.492      148.955       -5.147       57.741      117.916       44.354     3334.071    13904.194     1967.236        2.480        0.960      174.288       39.105        0.050      338.848       11.776      866.422
01/16/2015  17:48:00     -120.870       75.016      -14.702       77.036       53.338       34.971     5934.480     2844.994     1222.993        1.523        0.500      142.257       39.371        0.077      338.823       11.736      866.418
01/16/2015  17:49:00      -64.453      143.615      -12.025       50.525       67.715       44.708     2552.795     4585.331     1998.805        1.703        0.457      157.415       33.903        0.046      338.844       11.771      866.401
01/16/2015  17:50:00     -101.877      120.919      -20.298       42.561       65.109       33.395     1811.404     4239.181     1115.235        1.629        0.358      158.115       21.681        0.019      338.821       11.731      866.385
01/16/2015  17:51:00      -99.434      122.796      -15.564       49.155       64.453       32.002     2416.222     4154.235     1024.119        1.640        0.380      158.007       28.532        0.033      338.828       11.742      866.378
01/16/2015  17:52:00      -85.512       14.583      -12.797       49.882       48.211       33.552     2488.217     2324.320     1125.768        0.681        0.297       86.747       23.766        0.075      338.826       11.739      866.371
01/16/2015  17:53:00      -86.207       79.219      -18.112       64.688       69.014       29.739     4184.560     4762.907      884.393        1.193        0.492      117.078       36.031        0.095      338.818       11.727      866.385
01/16/2015  17:54:00     -126.120       71.333      -20.340       76.906       57.514       42.569     5914.516     3307.839     1812.160        1.622        0.552      144.896       47.702        0.108      338.783       11.668      866.387
01/16/2015  17:55:00     -101.447      130.714      -22.042       59.854      101.867       42.561     3582.538    10376.907     1811.413        2.181        0.789      165.462       47.183        0.081      338.766       11.640      866.384
01/16/2015  17:56:00     -159.373      192.242      -35.112       84.866       90.330       51.179     7202.160     8159.571     2619.291        4.078        0.899      249.713       52.851        0.045      338.767       11.641      866.387
01/16/2015  17:57:00     -137.585      250.609      -30.940       78.613       97.497       54.302     6179.977     9505.585     2948.734        5.066        0.932      285.893       47.752        0.028      338.770       11.643      866.380
01/16/2015  17:58:00     -136.031      204.247      -23.663       69.191       83.118       49.833     4787.387     6908.521     2483.321        3.748        0.709      245.400       39.136        0.025      338.764       11.635      866.374
01/16/2015  17:59:00      -90.044      128.970      -20.254       50.146       76.238       36.786     2514.637     5812.259     1353.204        1.741        0.484      157.293       28.311        0.032      338.769       11.645      866.383
01/16/2015  18:00:00     -130.245       96.173      -16.058       85.206       74.252       46.666     7259.998     5513.286     2177.701        2.071        0.748      161.905       45.467        0.079      338.760       11.628      866.384
01/16/2015  18:01:00     -112.159      170.503      -27.559       68.554       70.982       40.446     4699.590     5038.459     1635.896        2.689        0.569      204.086       33.470        0.027      338.775       11.654      866.380
01/16/2015  18:02:00     -165.207      178.707      -38.993       73.936       77.350       45.764     5466.502     5982.963     2094.376        3.714        0.677      243.371       49.459        0.041      338.753       11.616      866.374
01/16/2015  18:03:00     -110.530      206.316      -27.179       55.228       89.926       34.292     3050.177     8086.721     1175.967        3.392        0.616      234.058       26.742        0.013      338.763       11.632      866.360
01/16/2015  18:04:00     -134.450      232.328      -38.260       55.565       89.446       43.244     3087.432     8000.647     1870.071        4.324        0.648      268.427       28.749        0.011      338.745       11.602      866.352
01/16/2015  18:05:00     -167.583      182.261      -26.417       88.003       77.640       57.941     7744.606     6028.005     3357.207        3.956        0.856      247.595       51.582        0.043      338.728       11.573      866.361
01/16/2015  18:06:00     -180.645      180.649      -44.854       50.206       67.577       33.232     2520.682     4566.643     1104.375        3.773        0.410      255.474       28.348        0.012      338.707       11.537      866.362
01/16/2015  18:07:00     -159.266      117.017      -29.563       83.936      128.140       53.607     7045.172    16419.933     2873.702        3.313        1.317      197.632       38.695        0.038      338.697       11.522      866.361
01/16/2015  18:08:00     -180.585      182.656      -32.548       78.378       82.475       47.701     6143.177     6802.104     2275.349        4.112        0.761      256.854       43.492        0.029      338.699       11.524      866.342
01/16/2015  18:09:00     -167.494       87.864      -24.949       98.017       89.016       43.607     9607.322     7923.914     1901.591        2.791        0.972      189.140       37.308        0.039      338.689       11.508      866.336
01/16/2015  18:10:00     -122.595       25.277       -5.816       64.112       81.218       40.036     4110.353     6596.305     1602.844        1.400        0.615      125.174       30.001        0.057      338.685       11.502      866.333
01/16/2015  18:11:00      -86.283       62.594      -12.098       63.537       72.780       32.602     4036.899     5296.880     1062.911        1.095        0.520      106.596       25.126        0.056      338.692       11.513      866.342
01/16/2015  18:12:00      -99.973      148.936      -15.554       59.306       66.783       38.176     3517.198     4459.936     1457.374        2.092        0.472      179.379       26.800        0.022      338.673       11.481      866.361
01/16/2015  18:13:00     -195.356      173.181      -43.237       78.970      126.023       46.827     6236.213    15881.915     2192.754        4.716        1.216      261.066       50.773        0.038      338.667       11.471      866.374
01/16/2015  18:14:00     -124.067      228.102      -17.260       45.712       98.634       50.464     2089.625     9728.749     2546.617        4.104        0.718      259.660       41.762        0.026      338.671       11.475      866.375
01/16/2015  18:15:00     -221.382      158.364      -55.048       91.499       72.679       43.490     8371.999     5282.275     1891.346        4.633        0.777      272.193       45.812        0.028      338.648       11.440      866.369
01/16/2015  18:16:00     -117.498      120.593      -10.281       91.640       83.579       50.765     8397.923     6985.448     2577.117        2.320        0.898      168.370       47.712        0.080      338.648       11.440      866.384
01/16/2015  18:17:00     -134.134      199.234      -32.557       77.002       62.399       41.889     5929.385     3893.608     1754.689        3.516        0.579      240.179       40.547        0.029      338.644       11.433      866.401
01/16/2015  18:18:00     -208.570      236.856      -39.098       83.896      107.595       53.597     7038.591    11576.686     2872.609        6.131        1.074      315.598       43.987        0.019      338.624       11.397      866.402
01/16/2015  18:19:00     -169.645      208.028      -47.817       77.525       77.617       43.751     6010.198     6024.348     1914.115        4.414        0.697      268.431       32.545        0.015      338.604       11.365      866.390
01/16/2015  18:20:00     -123.789      162.335       -9.517      116.187      104.944       50.740    13499.348    11013.213     2574.581        3.442        1.354      204.148       53.537        0.069      338.625       11.400      866.355
01/16/2015  18:21:00     -130.085      182.644      -30.738       92.152      106.522       55.327     8491.979    11347.026     3061.065        3.706        1.145      224.234       62.556        0.078      338.602       11.364      866.323
01/16/2015  18:22:00     -103.937      117.941      -20.691       55.003       68.352       41.748     3025.330     4671.973     1742.891        1.729        0.472      157.204       41.289        0.069      338.620       11.393      866.296
01/16/2015  18:23:00     -141.521      163.027      -36.943       49.138       64.950       37.461     2414.583     4218.467     1403.355        2.800        0.402      215.885       29.902        0.019      338.604       11.365      866.291
01/16/2015  18:24:00      -79.613      149.727      -17.405       52.280       68.583       38.285     2733.207     4703.589     1465.742        1.898        0.445      169.578       37.333        0.048      338.608       11.374      866.302
01/16/2015  18:25:00      -92.841      153.256      -19.506       66.588       88.195       39.796     4433.998     7778.431     1583.701        2.314        0.690      179.184       34.129        0.036      338.620       11.393      866.323
01/16/2015  18:26:00     -163.869      219.491      -42.400       93.292       68.475       53.982     8703.412     4688.811     2914.054        4.656        0.815      273.915       58.260        0.045      338.575       11.317      866.362
01/16/2015  18:27:00     -190.449      117.630      -28.809       72.163       62.988       41.496     5207.442     3967.539     1721.879        3.092        0.545      223.847       25.523        0.013      338.568       11.305      866.407
01/16/2015  18:28:00     -128.118      134.574      -16.121       71.268       80.326       40.696     5079.167     6452.284     1656.182        2.398        0.659      185.807       43.448        0.055      338.557       11.289      866.440
01/16/2015  18:29:00     -161.603      132.903      -43.391       49.770       72.432       35.637     2477.072     5246.419     1269.998        2.733        0.450      209.234       35.823        0.029      338.541       11.259      866.454
01/16/2015  18:30:00      -81.195       67.877        2.182       73.997       66.864       38.140     5475.529     4470.860     1454.637        1.130        0.570      105.830       26.021        0.060      338.593       11.349      866.452
01/16/2015  18:31:00      -71.229      151.942      -15.239       62.391       61.455       53.453     3892.669     3776.720     2857.212        1.946        0.526      167.809       34.004        0.041      338.574       11.317      866.442
01/16/2015  18:32:00     -109.525      223.795      -30.389       66.328       78.413       44.611     4399.381     6148.524     1990.111        3.777        0.627      249.158       36.079        0.021      338.570       11.308      866.454
01/16/2015  18:33:00     -166.044      114.819      -24.764       70.988       71.099       44.561     5039.326     5055.045     1985.708        2.672        0.604      201.876       40.632        0.041      338.543       11.263      866.477
01/16/2015  18:34:00     -162.944      181.414      -38.325       73.643       76.434       44.647     5423.279     5842.212     1993.331        3.709        0.663      243.848       41.635        0.029      338.536       11.251      866.505
01/16/2015  18:35:00     -102.744      173.228      -19.781       57.346       77.027       41.161     3288.598     5933.140     1694.238        2.593        0.546      201.405       40.361        0.040      338.574       11.316      866.524
01/16/2015  18:36:00      -80.167      283.849      -34.931       58.746       63.461       39.770     3451.052     4027.241     1581.673        4.864        0.453      294.953       35.287        0.014      338.546       11.267      866.533
01/16/2015  18:37:00      -92.055      132.302      -17.010       71.931       60.245       39.551     5174.121     3629.465     1564.276        1.832        0.518      161.176       29.361        0.033      338.557       11.289      866.554
01/16/2015  18:38:00      -66.670      143.455       -6.820       70.567       77.947       41.467     4979.675     6075.695     1719.543        1.892        0.639      158.190       42.712        0.073      338.575       11.318      866.580
01/16/2015  18:39:00      -85.605      121.685      -14.114       62.802       69.362       43.695     3944.138     4811.120     1909.216        1.650        0.533      148.780       40.927        0.076      338.568       11.307      866.598
01/16/2015  18:40:00      -98.471      195.629      -28.157       71.123       85.701       52.612     5058.446     7344.706     2767.973        3.196        0.759      219.014       57.085        0.068      338.531       11.243      866.599
01/16/2015  18:41:00     -101.690      184.616      -23.180       48.206       92.401       30.037     2323.824     8537.949      902.246        2.836        0.588      210.770       21.099        0.010      338.544       11.264      866.595
01/16/2015  18:42:00      -82.914      149.564      -29.262       69.649       92.050       32.656     4850.958     8473.133     1066.430        2.224        0.720      171.009       38.680        0.051      338.504       11.200      866.599
01/16/2015  18:43:00      -51.795      187.036      -25.605       60.713       93.357       32.534     3686.040     8715.450     1058.436        2.589        0.673      194.075       29.477        0.023      338.524       11.232      866.613
01/16/2015  18:44:00     -113.223      128.343      -26.800       56.955       56.487       33.798     3243.880     3190.764     1142.301        1.879        0.379      171.147       35.272        0.042      338.533       11.247      866.628
01/16/2015  18:45:00      -74.250      100.413      -24.444       42.619       43.480       21.655     1816.394     1890.482      468.925        1.018        0.209      124.883       12.769        0.010      338.549       11.278      866.653
01/16/2015  18:46:00      -81.482      111.423      -12.959       78.309       59.211       31.812     6132.362     3505.948     1012.030        1.493        0.533      138.038       42.841        0.096      338.516       11.220      866.657
01/16/2015  18:47:00      -92.548      160.651      -22.283       67.679       52.144       44.351     4580.423     2718.984     1967.015        2.207        0.463      185.402       42.514        0.053      338.534       11.248      866.644
01/16/2015  18:48:00      -28.402      151.206      -10.499       42.683       57.332       33.474     1821.856     3286.965     1120.506        1.500        0.311      153.851       33.480        0.047      338.519       11.226      866.623
01/16/2015  18:49:00      -31.181      172.969      -14.924       45.897       55.089       34.833     2106.572     3034.813     1213.361        1.873        0.318      175.757       27.337        0.024      338.531       11.246      866.610
01/16/2015  18:50:00      -20.707      207.978      -26.821       37.095       47.207       26.045     1376.045     2228.459      678.366        2.434        0.214      209.006       14.757        0.005      338.467       11.135      866.612
01/16/2015  18:51:00      -89.771      151.579      -20.355       66.208       52.011       32.803     4383.516     2705.151     1076.049        1.981        0.408      176.167       31.953        0.033      338.503       11.198      866.624
01/16/2015  18:52:00      -62.724      154.818      -14.354       48.682       65.281       38.096     2369.897     4261.580     1451.293        1.809        0.404      167.042       29.178        0.031      338.485       11.166      866.638
01/16/2015  18:53:00     -101.646      134.580      -24.453       66.833       60.818       34.031     4466.615     3698.832     1158.100        1.918        0.466      168.653       34.599        0.042      338.476       11.150      866.645
01/16/2015  18:54:00     -101.473      192.973      -42.201       85.429       87.001       43.769     7298.112     7569.172     1915.728        3.305        0.839      218.026       49.975        0.053      338.471       11.141      866.645
01/16/2015  18:55:00      -71.946      225.100      -21.836       71.989       96.256       42.720     5182.428     9265.191     1824.957        3.630        0.814      236.318       45.176        0.037      338.462       11.127      866.662
01/16/2015  18:56:00      -79.950      155.877      -21.689       51.439       56.603       35.505     2645.962     3203.896     1260.575        1.913        0.356      175.185       25.378        0.021      338.500       11.192      866.695
01/16/2015  18:57:00      -75.407      152.214      -16.190       45.789       71.301       26.959     2096.641     5083.890      726.768        1.851        0.395      169.869       21.724        0.016      338.515       11.218      866.721
01/16/2015  18:58:00      -81.523      107.335       -7.982       56.976       51.351       34.932     3246.300     2636.882     1220.221        1.267        0.355      134.784       26.030        0.037      338.479       11.158      866.767
01/16/2015  18:59:00      -97.793      158.973      -20.801       51.388       92.181       36.061     2640.721     8497.363     1300.384        2.385        0.622      186.644       32.406        0.030      338.484       11.164      866.794
01/16/2015  19:00:00      -76.073      205.445      -27.193       55.313       81.158       39.098     3059.492     6586.605     1528.685        2.995        0.559      219.077       38.604        0.031      338.480       11.157      866.814
01/16/2015  19:01:00      -49.619      211.585      -26.975       40.089       42.215       29.440     1607.160     1782.097      866.686        2.611        0.213      217.326       23.186        0.011      338.470       11.139      866.823
01/16/2015  19:02:00      -87.935      116.120      -30.723       45.173       88.734       34.756     2040.555     7873.689     1208.014        1.664        0.556      145.659       23.172        0.025      338.509       11.207      866.831
01/16/2015  19:03:00      -67.160       94.722      -13.540       38.774       39.637       24.509     1503.434     1571.081      600.700        0.867        0.184      116.115       16.164        0.019      338.468       11.139      866.834
01/16/2015  19:04:00     -106.156      191.789      -34.766       74.016       69.206       38.340     5478.410     4789.483     1469.981        3.050        0.587      219.208       36.230        0.027      338.464       11.130      866.842
01/16/2015  19:05:00      -50.402      210.522      -22.948       66.935       84.617       33.607     4480.238     7159.994     1129.414        3.008        0.638      216.471       29.444        0.019      338.450       11.106      866.841
01/16/2015  19:06:00      -49.610      124.531       -6.761       49.812       51.833       29.439     2481.281     2686.662      866.657        1.202        0.302      134.049       19.899        0.022      338.496       11.186      866.840
01/16/2015  19:07:00     -128.399      261.676      -29.947       60.247       91.137       47.066     3629.656     8306.040     2215.224        5.000        0.708      291.480       47.113        0.026      338.432       11.078      866.853
01/16/2015  19:08:00      -75.956      204.813      -15.242       54.725       72.356       40.985     2994.798     5235.365     1679.786        2.893        0.495      218.444       39.056        0.032      338.451       11.107      866.872
01/16/2015  19:09:00      -72.220      210.425      -29.001       41.968       68.635       25.835     1761.308     4710.828      667.449        2.874        0.357      222.473       26.728        0.014      338.428       11.070      866.893
01/16/2015  19:10:00     -110.013      161.146      -36.302       56.614       73.456       41.843     3205.138     5395.818     1750.842        2.487        0.518      195.117       34.829        0.032      338.424       11.062      866.918
01/16/2015  19:11:00      -96.110      180.530      -18.439       67.619       65.987       46.777     4572.347     4354.337     2188.064        2.664        0.556      204.520       41.712        0.042      338.426       11.065      866.949
01/16/2015  19:12:00      -99.101      115.115      -24.774       53.337       43.156       35.108     2844.838     1862.472     1232.562        1.481        0.297      151.896       30.470        0.040      338.441       11.094      866.971
01/16/2015  19:13:00     -124.195       39.776      -13.538       59.100       42.681       29.126     3492.868     1821.701      848.299        1.168        0.308      130.409       26.129        0.040      338.404       11.031      866.980
01/16/2015  19:14:00      -92.038       81.916      -18.697       44.326       60.204       29.951     1964.788     3624.502      897.062        1.101        0.324      123.212       34.903        0.080      338.433       11.080      866.980
01/16/2015  19:15:00      -53.141      121.275       -7.372       39.575       86.964       35.257     1566.180     7562.815     1243.048        1.398        0.519      132.407       41.437        0.098      338.424       11.065      866.982
01/16/2015  19:16:00      -69.807       80.189       -0.723       39.017       52.853       26.022     1522.307     2793.456      677.138        0.815        0.250      106.317       21.912        0.042      338.440       11.092      866.974
01/16/2015  19:17:00     -123.571      165.294      -39.249       58.912       52.880       32.293     3470.620     2796.328     1042.847        2.572        0.365      206.378       24.760        0.014      338.381       10.992      866.967
01/16/2015  19:18:00     -125.931      112.636      -30.061       36.843       48.091       25.789     1357.428     2312.749      665.080        1.689        0.217      168.954       19.879        0.014      338.342       10.927      866.969
01/16/2015  19:19:00      -64.866      148.280      -13.069       70.146       61.278       41.447     4920.418     3755.042     1717.880        1.838        0.520      161.847       36.962        0.052      338.379       10.990      866.968
01/16/2015  19:20:00      -85.101      116.487       -9.356       40.231       56.727       27.168     1618.546     3217.906      738.100        1.324        0.279      144.261       25.333        0.031      338.401       11.027      866.985
01/16/2015  19:21:00     -159.633      161.033      -45.567       53.464       64.165       31.572     2858.417     4117.204      996.801        3.073        0.399      226.747       24.581        0.012      338.381       10.990      867.012
01/16/2015  19:22:00      -68.659      131.902      -16.625       50.614       51.647       34.206     2561.742     2667.389     1170.033        1.439        0.320      148.702       34.135        0.053      338.377       10.985      867.049
01/16/2015  19:23:00      -55.120      135.066      -18.706       39.193       60.139       24.945     1536.055     3616.650      622.275        1.370        0.289      145.880       22.974        0.025      338.372       10.978      867.091
01/16/2015  19:24:00      -19.025      217.992      -27.161       45.052       55.328       41.145     2029.665     3061.143     1692.917        2.770        0.339      218.821       30.353        0.019      338.320       10.888      867.110
01/16/2015  19:25:00       -8.681      176.897       -5.797       53.467       68.048       40.685     2858.755     4630.555     1655.230        2.027        0.457      177.110       39.268        0.049      338.275       10.815      867.115
01/16/2015  19:26:00      -32.120      237.657      -34.235       69.695       54.524       39.255     4857.382     2972.837     1540.952        3.403        0.469      239.818       25.514        0.011      338.140       10.585      867.120
01/16/2015  19:27:00      -44.028      317.627      -42.917       48.639       50.734       30.126     2365.799     2573.946      907.597        5.526        0.292      320.664       18.789        0.003      338.072       10.470      867.128
01/16/2015  19:28:00      -35.250      235.603      -28.824       66.282       90.774       37.859     4393.274     8239.908     1433.305        3.582        0.703      238.225       40.151        0.028      338.096       10.514      867.140
01/16/2015  19:29:00      -31.073      251.037      -34.085       51.397       56.230       29.948     2641.625     3161.832      896.890        3.592        0.335      252.953       26.516        0.011      338.063       10.456      867.153
01/16/2015  19:30:00      -29.293      283.198      -35.675       43.736       60.953       27.461     1912.841     3715.303      754.106        4.436        0.319      284.709       22.187        0.006      338.053       10.438      867.162
01/16/2015  19:31:00      -24.517      225.169      -35.117       54.888       72.623       35.600     3012.747     5274.028     1267.373        3.104        0.478      226.500       30.300        0.018      338.071       10.470      867.180
01/16/2015  19:32:00      -43.424      237.011      -31.970       61.979       69.891       44.621     3841.396     4884.691     1991.000        3.490        0.536      240.956       41.216        0.029      338.071       10.470      867.195
01/16/2015  19:33:00      -58.014      240.390      -30.440       44.870       63.713       38.516     2013.356     4059.283     1483.521        3.482        0.378      247.292       28.592        0.013      338.079       10.482      867.220
01/16/2015  19:34:00     -113.044      262.919      -34.347       82.071      119.134       49.676     6735.696    14193.018     2467.751        5.324        1.170      286.191       63.208        0.049      338.062       10.456      867.236
01/16/2015  19:35:00      -37.544      261.512      -37.955       58.659       67.058       33.823     3440.840     4496.824     1144.001        4.016        0.454      264.193       29.216        0.012      338.075       10.475      867.242
01/16/2015  19:36:00      -42.036      281.136      -37.295       57.578       85.135       43.293     3315.214     7247.976     1874.301        4.731        0.622      284.262       39.262        0.019      338.067       10.463      867.257
01/16/2015  19:37:00      -41.416      262.535      -30.802       61.008       66.535       29.712     3722.036     4426.945      882.778        4.031        0.452      265.782       34.837        0.017      338.038       10.415      867.265
01/16/2015  19:38:00      -63.513      169.070      -20.287       64.581       80.104       38.430     4170.734     6416.621     1476.878        2.255        0.603      180.606       36.457        0.041      338.089       10.501      867.275
01/16/2015  19:39:00      -70.661      227.504      -26.843       83.103       56.091       39.098     6906.032     3146.202     1528.673        3.452        0.579      238.225       22.851        0.009      338.035       10.410      867.279
01/16/2015  19:40:00      -41.880      162.293       -3.690       74.719       86.580       40.106     5582.859     7496.141     1608.492        2.139        0.734      167.609       43.740        0.068      338.034       10.411      867.282
01/16/2015  19:41:00      -70.348      224.180      -20.484       59.163       73.453       39.567     3500.204     5395.318     1565.521        3.304        0.523      234.959       38.884        0.027      338.060       10.453      867.290
01/16/2015  19:42:00      -65.451      204.183      -21.580       42.659       65.741       37.599     1819.765     4321.887     1413.693        2.700        0.378      214.416       40.154        0.035      338.050       10.435      867.312
01/16/2015  19:43:00      -81.083      207.640      -28.423       70.453       66.823       36.999     4963.649     4465.318     1368.935        3.065        0.540      222.910       35.415        0.025      338.038       10.416      867.332
01/16/2015  19:44:00      -51.336      175.078      -18.551       33.630       66.360       28.081     1130.944     4403.631      788.561        1.998        0.316      182.449       32.711        0.032      338.022       10.391      867.338
01/16/2015  19:45:00      -35.274      236.351      -25.999       46.021       61.880       31.873     2117.935     3829.151     1015.916        3.237        0.348      238.968       32.349        0.018      337.995       10.343      867.351
01/16/2015  19:46:00      -61.619      209.900      -25.924       38.034       44.730       31.291     1446.549     2000.789      979.141        2.648        0.221      218.757       29.484        0.018      337.995       10.343      867.364
01/16/2015  19:47:00      -55.284      181.294      -24.600       47.110       70.520       34.623     2219.326     4973.110     1198.752        2.246        0.420      189.535       29.840        0.025      338.019       10.384      867.383
01/16/2015  19:48:00      -84.520      227.036      -27.069       67.687       78.891       36.016     4581.590     6223.741     1297.158        3.576        0.605      242.258       32.855        0.018      337.959       10.282      867.391
01/16/2015  19:49:00      -75.158      219.578      -23.066       55.816      111.848       38.385     3115.389    12509.882     1473.379        3.574        0.855      232.085       47.498        0.042      337.982       10.322      867.398
01/16/2015  19:50:00      -96.479      249.279      -28.204       55.080       74.633       42.770     3033.795     5570.060     1829.246        4.134        0.522      267.298       29.765        0.012      337.995       10.342      867.401
01/16/2015  19:51:00      -51.684      235.447      -29.524       61.655       83.873       34.887     3801.286     7034.631     1217.077        3.551        0.603      241.053       32.762        0.018      338.021       10.386      867.385
01/16/2015  19:52:00      -81.461      187.618      -21.034       53.667       79.401       36.443     2880.188     6304.559     1328.060        2.639        0.526      204.539       26.667        0.017      338.018       10.383      867.366
01/16/2015  19:53:00      -58.633       92.096       -1.395       45.367       48.085       30.978     2058.159     2312.124      959.611        0.862        0.266      109.176       27.059        0.061      338.048       10.434      867.345
01/16/2015  19:54:00      -55.782       91.158      -18.632       36.565       48.079       23.738     1337.018     2311.613      563.488        0.799        0.211      106.871       21.722        0.041      338.081       10.490      867.307
01/16/2015  19:55:00      -34.803      185.907      -26.724       37.781       44.726       19.913     1427.377     2000.400      396.540        2.015        0.191      189.136       14.406        0.006      338.043       10.425      867.282
01/16/2015  19:56:00      -16.995      164.473      -22.925       42.523       87.830       25.763     1808.182     7714.157      663.735        1.902        0.509      165.349       35.905        0.047      338.053       10.441      867.272
01/16/2015  19:57:00      -35.042      163.911      -17.477       40.659       49.940       18.577     1653.153     2493.962      345.091        1.645        0.225      167.615       18.224        0.012      338.080       10.489      867.275
01/16/2015  19:58:00      -30.237      163.732      -15.746       40.130       59.669       33.674     1610.400     3560.436     1133.937        1.714        0.315      166.500       28.277        0.029      338.095       10.513      867.273
01/16/2015  19:59:00      -11.347      151.174      -19.606       49.581       51.359       26.838     2458.240     2637.780      720.270        1.459        0.291      151.599       28.463        0.035      338.017       10.384      867.276
01/16/2015  20:00:00      -32.422      128.889       -7.171       52.591       54.688       36.588     2765.776     2990.826     1338.665        1.240        0.355      132.904       30.341        0.052      338.074       10.478      867.297
01/16/2015  20:01:00        7.194       98.222       -2.456       37.694       53.938       38.696     1420.848     2909.275     1497.353        0.777        0.291       98.485       28.603        0.084      338.054       10.445      867.307
01/16/2015  20:02:00        8.019      109.185      -12.673       37.220       54.967       32.851     1385.329     3021.319     1079.209        0.882        0.274      109.479       26.948        0.061      337.973       10.307      867.318
01/16/2015  20:03:00       16.815       49.896        4.374       37.043       38.265       30.336     1372.196     1464.183      920.287        0.327        0.188       52.653       22.990        0.191      337.942       10.259      867.317
01/16/2015  20:04:00       28.814       83.790      -10.661       28.592       66.656       24.484      817.508     4442.992      599.485        0.691        0.293       88.606       31.664        0.128      337.889       10.166      867.334
01/16/2015  20:05:00      -18.316      118.088       -7.924       48.555       48.957       39.261     2357.566     2396.760     1541.451        1.032        0.315      119.500       34.976        0.086      337.876       10.147      867.346
01/16/2015  20:06:00        5.039      160.146      -21.963       46.519       38.701       26.219     2163.980     1497.787      687.412        1.525        0.217      160.226       16.615        0.011      337.829       10.066      867.369
01/16/2015  20:07:00       57.977       71.169        1.375       49.795       38.167       28.775     2479.507     1456.726      828.005        0.660        0.238       91.795       28.497        0.096      337.804       10.027      867.372
01/16/2015  20:08:00       60.020       77.943        2.723       37.433       51.773       35.239     1401.194     2680.407     1241.769        0.750        0.266       98.374       30.578        0.097      337.789       10.001      867.381
01/16/2015  20:09:00       59.408       59.969       -6.363       32.971       34.721       25.926     1087.105     1205.571      672.166        0.506        0.148       84.413       11.653        0.019      337.767        9.962      867.392
01/16/2015  20:10:00       71.821       40.599       19.839       31.481       27.822       19.884      991.056      774.086      395.371        0.468        0.108       82.502       14.990        0.033      337.744        9.925      867.401
01/16/2015  20:11:00       77.963       55.547       -5.014       42.955       17.485       20.138     1845.130      305.723      405.531        0.587        0.128       95.727       21.563        0.051      337.717        9.880      867.413
01/16/2015  20:12:00       12.996       81.858        2.348       71.160       36.094       32.951     5063.675     1302.777     1085.756        0.716        0.373       82.883       31.918        0.148      337.747        9.928      867.420
01/16/2015  20:13:00       -0.857       93.408       -8.912       49.606       60.897       20.275     2460.709     3708.431      411.078        0.769        0.329       93.412       22.888        0.060      337.742        9.923      867.432
01/16/2015  20:14:00       24.219       48.667       -5.692       17.462       15.811       15.265      304.905      249.989      233.029        0.189        0.039       54.361       10.185        0.035      337.729        9.902      867.444
01/16/2015  20:15:00       53.384       22.972       -8.398       28.256       26.404       16.079      798.402      697.157      258.549        0.260        0.088       58.117       10.935        0.035      337.740        9.917      867.460
01/16/2015  20:16:00       20.999        0.077       21.357       26.663       29.831       20.092      710.920      889.898      403.698        0.145        0.100       20.999       17.530        0.697      337.787        9.998      867.473
01/16/2015  20:17:00       44.683       29.776        8.766       22.901       22.155       21.164      524.473      490.860      447.925        0.221        0.073       53.695       14.602        0.074      337.747        9.929      867.497
01/16/2015  20:18:00      -17.747       64.041       -8.464       50.101       29.729       23.623     2510.150      883.835      558.032        0.422        0.198       66.455       19.369        0.085      337.766        9.963      867.517
01/16/2015  20:19:00       -0.856       59.711       -7.548       30.228       32.121       17.780      913.720     1031.759      316.138        0.294        0.113       59.717       17.947        0.090      337.793       10.006      867.526
01/16/2015  20:20:00        7.727      103.328      -23.705       21.842       38.883       17.080      477.069     1511.911      291.733        0.679        0.114      103.616       15.563        0.023      337.768        9.965      867.525
01/16/2015  20:21:00      -25.837       48.416        0.218       20.947       26.579       15.852      438.771      706.424      251.274        0.220        0.070       54.879       15.454        0.079      337.852       10.107      867.520
01/16/2015  20:22:00      -25.352       91.315      -11.711       29.032       28.915       18.346      842.866      836.094      336.561        0.557        0.101       94.769        9.573        0.010      337.842       10.089      867.515
01/16/2015  20:23:00       10.866       68.731       -6.877       16.248       32.588       16.611      263.983     1061.977      275.934        0.325        0.080       69.584       17.161        0.061      337.777        9.981      867.509
01/16/2015  20:24:00       20.174       83.182      -12.966       20.819       27.520       15.790      433.421      757.342      249.309        0.447        0.072       85.594       16.860        0.039      337.857       10.115      867.502
01/16/2015  20:25:00       -3.665       59.020      -14.598       20.630       22.829        9.478      425.592      521.148       89.837        0.237        0.052       59.134        9.715        0.027      337.850       10.102      867.490
01/16/2015  20:26:00        9.902       36.156       -6.446       21.021       18.027        9.496      441.874      324.967       90.175        0.115        0.043       37.487        7.036        0.035      337.837       10.080      867.486
01/16/2015  20:27:00       19.016       61.469      -11.192       19.693       32.505       15.888      387.795     1056.588      252.425        0.298        0.085       64.343       14.627        0.052      337.957       10.282      867.489
01/16/2015  20:28:00       22.328        5.959       10.054       21.223       11.985       10.294      450.433      143.630      105.958        0.067        0.035       23.110       10.701        0.214      337.865       10.126      867.500
01/16/2015  20:29:00       37.067       15.642       11.040       19.026       15.404       18.153      361.992      237.297      329.520        0.133        0.046       40.232       11.247        0.078      337.780        9.984      867.515
01/16/2015  20:30:00      -11.387       94.663      -14.902       25.273       34.882       19.552      638.712     1216.756      382.262        0.577        0.112       95.345       22.502        0.056      337.892       10.172      867.532
01/16/2015  20:31:00        3.748       76.554      -12.839       19.796       35.337       11.404      391.893     1248.700      130.040        0.390        0.089       76.646       14.898        0.038      337.881       10.154      867.539
01/16/2015  20:32:00      -11.414      122.799      -13.414       21.846       39.601       18.396      477.264     1568.237      338.400        0.889        0.119      123.328       18.616        0.023      337.985       10.331      867.538
01/16/2015  20:33:00      -25.423      127.640      -16.580       15.140       25.456       12.707      229.225      647.990      161.469        0.913        0.052      130.148        6.412        0.002      338.015       10.381      867.532
01/16/2015  20:34:00      -56.458      124.489      -17.222       31.206       53.739       22.335      973.822     2887.859      498.874        1.167        0.218      136.694       21.763        0.025      338.018       10.384      867.527
01/16/2015  20:35:00      -71.474      146.201      -13.012       43.387       57.418       35.781     1882.469     3296.799     1280.263        1.655        0.323      162.737       35.735        0.048      338.032       10.407      867.541
01/16/2015  20:36:00       31.496      123.447       -8.404       42.126       48.350       31.913     1774.627     2337.704     1018.466        1.072        0.257      127.401       29.220        0.053      337.977       10.315      867.558
01/16/2015  20:37:00       39.237       83.683       -3.046       46.886       51.451       35.720     2198.325     2647.195     1275.949        0.734        0.306       92.426       37.470        0.164      337.896       10.181      867.588
01/16/2015  20:38:00       94.397       83.042       32.886       35.908       32.262       35.922     1289.370     1040.816     1290.362        1.025        0.181      125.725       30.146        0.057      337.769        9.968      867.613
01/16/2015  20:39:00      138.050      107.365       44.863       99.908       57.047       52.971     9981.511     3254.410     2805.975        2.432        0.802      174.885       57.451        0.108      337.655        9.774      867.640
01/16/2015  20:40:00      129.250       94.694       20.659       83.365       66.608       57.209     6949.783     4436.561     3272.845        2.038        0.733      160.227       38.793        0.059      337.631        9.735      867.671
01/16/2015  20:41:00      148.474      134.851        3.422       61.425       56.171       53.622     3773.043     3155.195     2875.310        2.502        0.490      200.573       35.245        0.031      337.655        9.773      867.701
01/16/2015  20:42:00       37.174       87.519       -8.187       52.394       70.037       45.381     2745.127     4905.224     2059.392        0.941        0.485       95.087       47.477        0.249      337.682        9.820      867.731
01/16/2015  20:43:00      188.018      132.183       13.654       96.036       76.318       53.307     9222.819     5824.496     2841.637        3.545        0.894      229.833       48.215        0.044      337.682        9.819      867.754
01/16/2015  20:44:00       71.651      118.624       -4.300       78.201       56.240       40.372     6115.378     3162.966     1629.868        1.506        0.545      138.584       34.952        0.064      337.697        9.845      867.770
01/16/2015  20:45:00       35.394      147.446      -13.135       75.181       91.851       44.191     5652.219     8436.522     1952.884        1.960        0.802      151.635       48.334        0.102      337.735        9.909      867.772
01/16/2015  20:46:00      -26.260      244.677      -31.111       39.336       44.333       22.214     1547.359     1965.452      493.449        3.276        0.200      246.082       15.646        0.004      337.755        9.941      867.764
01/16/2015  20:47:00        2.820      266.398      -37.463       35.043       43.181       25.625     1228.030     1864.623      656.640        3.806        0.187      266.413       26.215        0.010      337.940       10.248      867.755
01/16/2015  20:48:00      -58.791      187.207      -18.858       34.848       57.900       29.760     1214.384     3352.370      885.664        2.215        0.273      196.221       26.826        0.019      337.807       10.028      867.767
01/16/2015  20:49:00      -36.583      193.539      -23.859       42.647       65.561       33.203     1818.759     4298.253     1102.422        2.329        0.361      196.966       35.528        0.033      337.838       10.080      867.765
01/16/2015  20:50:00      -12.974      191.833      -31.321       55.146       55.013       27.135     3041.112     3026.381      736.289        2.238        0.340      192.272       28.161        0.021      337.853       10.105      867.749
01/16/2015  20:51:00      -61.538      121.932      -14.827       56.751       61.302       33.344     3220.722     3757.912     1111.810        1.348        0.405      136.581       35.341        0.067      337.848       10.099      867.730
01/16/2015  20:52:00      -65.503      149.808      -20.561       47.894       65.908       27.861     2293.804     4343.928      776.261        1.728        0.371      163.503       26.411        0.026      338.072       10.475      867.720
01/16/2015  20:53:00      -19.555      234.091      -29.680       53.268       64.189       29.135     2837.445     4120.280      848.873        3.193        0.390      234.907       27.441        0.014      337.955       10.277      867.710
01/16/2015  20:54:00      -57.295      208.793      -35.042       37.238       61.458       25.752     1386.653     3777.113      663.165        2.696        0.291      216.511       11.958        0.003      337.939       10.247      867.709
01/16/2015  20:55:00      -53.740      189.089      -29.134       46.959       73.502       27.466     2205.128     5402.578      754.374        2.393        0.418      196.578       29.397        0.022      337.982       10.321      867.720
01/16/2015  20:56:00      -17.560      189.059      -25.256       42.064       39.380       22.117     1769.377     1550.811      489.145        2.025        0.190      189.873       20.374        0.012      337.986       10.330      867.740
01/16/2015  20:57:00       22.915      103.957        0.833       52.385       66.681       39.157     2744.192     4446.301     1533.299        1.003        0.436      106.452       43.467        0.167      337.945       10.263      867.761
01/16/2015  20:58:00       21.240      117.794      -10.451       39.469       58.460       30.923     1557.828     3417.561      956.222        1.018        0.297      119.694       31.409        0.069      337.924       10.226      867.773
01/16/2015  20:59:00       35.901       98.706      -13.157       40.750       50.596       17.822     1660.539     2559.957      317.634        0.787        0.227      105.032       22.033        0.044      337.898       10.184      867.789
01/16/2015  21:00:00      121.776       52.159       12.762       46.599       36.279       33.577     2171.423     1316.146     1127.384        1.116        0.231      132.477       19.214        0.021      337.853       10.107      867.810
01/16/2015  21:01:00      101.938       94.505       64.178       58.317       52.634       47.954     3400.909     2770.342     2299.558        1.595        0.424      139.006       41.076        0.087      337.707        9.864      867.833
01/16/2015  21:02:00       78.960       23.234       13.125       55.595       45.198       34.822     3090.792     2042.848     1212.596        0.665        0.317       82.308       23.495        0.081      337.607        9.695      867.859
01/16/2015  21:03:00       85.124       44.505       21.506       27.728       33.701       42.251      768.857     1135.744     1785.127        0.669        0.184       96.056       25.086        0.068      337.576        9.642      867.886
01/16/2015  21:04:00       55.773       49.101       48.958       55.077       36.795       36.168     3033.503     1353.884     1308.099        0.681        0.285       74.307       32.708        0.194      337.576        9.642      867.894
01/16/2015  21:05:00       49.375       46.020       32.623       34.336       33.675       23.395     1178.957     1133.998      547.315        0.424        0.143       67.496       17.228        0.065      337.542        9.586      867.906
01/16/2015  21:06:00       52.071       38.665        4.767       46.453       33.746       23.641     2157.885     1138.787      558.896        0.404        0.193       64.857       11.357        0.031      337.580        9.650      867.907
01/16/2015  21:07:00       63.241       65.714       10.827       36.383       27.513       28.461     1323.752      756.985      810.023        0.566        0.145       91.202       21.224        0.054      337.599        9.680      867.907
01/16/2015  21:08:00       42.468       66.121       11.442       34.818       35.816       23.197     1212.301     1282.818      538.088        0.467        0.152       78.585       20.928        0.071      337.601        9.686      867.909
01/16/2015  21:09:00       58.619       46.348       17.370       33.022       18.939       14.786     1090.473      358.679      218.636        0.378        0.083       74.728       13.013        0.030      337.608        9.698      867.909
01/16/2015  21:10:00       19.576       40.212        1.923       17.805       25.805       16.961      317.004      665.876      287.672        0.164        0.064       44.723       13.652        0.093      337.604        9.693      867.913
01/16/2015  21:11:00       13.498       65.829       -2.687       27.671       23.677       16.380      765.673      560.586      268.290        0.306        0.080       67.199       18.411        0.075      337.605        9.694      867.913
01/16/2015  21:12:00       34.456       46.060       -4.160       27.212       18.655       16.710      740.518      347.996      279.210        0.235        0.068       57.522       15.256        0.070      337.633        9.737      867.918
01/16/2015  21:13:00       11.451       62.788       -8.332       13.339       17.949        9.338      177.922      322.174       87.193        0.237        0.029       63.824        4.946        0.006      337.619        9.715      867.925
01/16/2015  21:14:00       12.395       42.304       -3.127       13.710       13.331        9.847      187.964      177.724       96.957        0.121        0.023       44.083        7.744        0.031      337.632        9.737      867.939
01/16/2015  21:15:00       11.658       50.777       -8.656       11.824       16.064        7.231      139.801      258.041       52.290        0.162        0.023       52.098        6.348        0.015      337.629        9.730      867.961
01/16/2015  21:16:00       23.095       10.833        2.312       14.385       12.880        9.850      206.918      165.895       97.019        0.056        0.023       25.510        6.336        0.062      337.626        9.726      867.986
01/16/2015  21:17:00       19.359        8.450       -0.004       13.239       16.668       10.643      175.283      277.838      113.264        0.051        0.028       21.122        9.330        0.195      337.628        9.728      868.010
01/16/2015  21:18:00       13.238       22.523       -0.573       14.708       11.066        8.741      216.320      122.464       76.408        0.055        0.021       26.125        5.360        0.042      337.629        9.731      868.036
01/16/2015  21:19:00       29.645       55.253       -5.407       12.164       30.214       14.133      147.963      912.889      199.743        0.261        0.063       62.703       17.294        0.076      337.618        9.714      868.062
01/16/2015  21:20:00       28.943       78.424       -2.859       24.683       30.444       19.574      609.250      926.850      383.158        0.446        0.096       83.594       15.897        0.036      337.613        9.707      868.083
01/16/2015  21:21:00       21.975       69.391       -2.175       19.778       30.289       21.928      391.183      917.442      480.841        0.355        0.089       72.787       20.451        0.079      337.616        9.711      868.101
01/16/2015  21:22:00       30.786       50.283        9.142       32.460       28.273       28.946     1053.650      799.386      837.847        0.312        0.135       58.959       24.899        0.178      337.635        9.742      868.125
01/16/2015  21:23:00       18.328       42.773       -3.244       23.080       21.941       19.099      532.691      481.397      364.769        0.178        0.069       46.534       17.120        0.135      337.649        9.766      868.137
01/16/2015  21:24:00       -8.885       74.831      -14.966       14.575       20.721        9.085      212.427      429.380       82.531        0.331        0.036       75.357        7.846        0.011      337.672        9.806      868.147
01/16/2015  21:25:00      -16.658       80.745      -12.962       15.095       13.658       10.645      227.864      186.541      113.318        0.375        0.026       82.445        6.020        0.005      337.745        9.925      868.148
01/16/2015  21:26:00      -24.125       76.480      -10.243       17.556       17.769       13.454      308.219      315.738      181.014        0.367        0.040       80.195       10.914        0.019      337.711        9.868      868.150
01/16/2015  21:27:00      -18.922      109.463      -14.581       14.888       14.012       10.089      221.651      196.326      101.787        0.654        0.026      111.086        5.398        0.002      337.815       10.044      868.147
01/16/2015  21:28:00      -56.739       60.030      -13.631       28.564       20.203       11.627      815.883      408.173      135.187        0.418        0.068       82.601       11.878        0.021      337.737        9.912      868.148
01/16/2015  21:29:00      -71.529       65.141      -19.872       18.506       20.454       10.540      342.461      418.373      111.099        0.531        0.044       96.746        9.661        0.010      337.727        9.897      868.150
01/16/2015  21:30:00      -74.717       71.408      -16.848       21.416       26.084       16.099      458.632      680.378      259.175        0.618        0.070      103.352       13.986        0.018      337.717        9.880      868.140
01/16/2015  21:31:00      -71.418       28.093      -10.855       18.286       23.525       14.490      334.394      553.423      209.950        0.355        0.055       76.745       14.888        0.038      337.681        9.818      868.134
01/16/2015  21:32:00     -109.089       -6.076      -12.079       14.984       15.054       10.463      224.513      226.637      109.482        0.632        0.028      109.258        7.052        0.004      337.680        9.817      868.119
01/16/2015  21:33:00     -118.621        1.180      -17.978       17.850       13.898        9.495      318.621      193.145       90.159        0.750        0.030      118.626        7.060        0.004      337.652        9.770      868.101
01/16/2015  21:34:00     -104.683       16.768      -22.910       55.835       31.049       16.170     3117.557      964.016      261.475        0.805        0.217      106.018       18.066        0.029      337.707        9.863      868.090
01/16/2015  21:35:00      -85.120        7.391       -4.655       27.294       32.206       17.102      744.973     1037.205      292.494        0.470        0.104       85.440       15.574        0.033      337.607        9.697      868.089
01/16/2015  21:36:00      -98.672       21.687      -10.829       23.169       24.263       12.220      536.790      588.700      149.336        0.580        0.064      101.027        9.198        0.008      337.565        9.625      868.087
01/16/2015  21:37:00      -94.689        2.733      -14.049       26.490       29.173       16.155      701.729      851.045      260.985        0.549        0.091       94.728       11.605        0.015      337.556        9.607      868.067
01/16/2015  21:38:00      -79.247       28.703      -15.314       27.714       30.245       17.686      768.058      914.743      312.778        0.467        0.100       84.285       14.228        0.028      337.512        9.536      868.037
01/16/2015  21:39:00      -87.087       -0.855      -10.718       47.117       21.497       17.160     2220.039      462.120      294.473        0.534        0.149       87.092       19.811        0.052      337.529        9.563      868.006
01/16/2015  21:40:00      -99.666       29.321      -20.789       20.703       23.913       18.802      428.621      571.847      353.526        0.629        0.068      103.890       13.956        0.018      337.529        9.563      867.991
01/16/2015  21:41:00      -68.428       27.184      -16.964       14.407       36.100       19.779      207.555     1303.195      391.212        0.381        0.095       73.630       22.219        0.091      337.572        9.636      867.980
01/16/2015  21:42:00      -73.919       40.138      -13.740       12.637       13.467        9.052      159.693      181.362       81.942        0.384        0.021       84.113        3.896        0.002      337.587        9.661      867.979
01/16/2015  21:43:00      -92.048       55.897      -16.854       18.441       19.305       14.058      340.074      372.683      197.622        0.640        0.046      107.691       10.731        0.010      337.599        9.681      867.966
01/16/2015  21:44:00      -75.432       71.138      -20.496       25.097       19.150       10.360      629.880      366.719      107.335        0.614        0.055      103.685        7.218        0.005      337.646        9.761      867.959
01/16/2015  21:45:00      -72.646       54.667      -17.534       16.220       27.022       11.587      263.087      730.204      134.266        0.485        0.056       90.917        9.035        0.010      337.633        9.739      867.949
01/16/2015  21:46:00      -72.023       62.289      -20.848       19.345       19.984        9.543      374.217      399.342       91.064        0.518        0.043       95.222        8.236        0.007      337.617        9.711      867.940
01/16/2015  21:47:00      -61.029       50.388      -18.599       14.268       22.668       12.024      203.586      513.851      144.577        0.374        0.043       79.143        8.952        0.013      337.619        9.716      867.935
01/16/2015  21:48:00      -86.353       55.948      -19.902       18.787       21.484       16.336      352.942      461.567      266.872        0.603        0.054      102.894       12.667        0.015      337.614        9.707      867.931
01/16/2015  21:49:00      -79.714       53.704      -17.841       15.900        9.940        8.649      252.803       98.799       74.806        0.499        0.021       96.117        4.746        0.002      337.601        9.687      867.935
01/16/2015  21:50:00      -68.588       38.492      -16.138       22.728       18.397       11.115      516.568      338.468      123.553        0.371        0.049       78.650        9.620        0.015      337.506        9.526      867.942
01/16/2015  21:51:00     -138.450       -7.661      -17.265       10.076       18.182        8.606      101.518      330.589       74.059        1.002        0.025      138.662        5.269        0.001      337.331        9.234      867.960
01/16/2015  21:52:00     -126.376      -26.257      -12.866       19.113       16.353       13.844      365.313      267.412      191.656        0.882        0.041      129.075       10.842        0.007      337.317        9.212      867.980
01/16/2015  21:53:00     -123.097      -13.411      -16.036       18.377       15.319       13.611      337.725      234.676      185.267        0.817        0.038      123.825        9.009        0.005      337.312        9.201      867.993
01/16/2015  21:54:00     -118.936       -8.163      -13.246       13.691       21.360       11.191      187.443      456.271      125.240        0.758        0.038      119.216        5.047        0.002      337.298        9.178      867.991
01/16/2015  21:55:00     -126.348        8.522      -16.192       16.612       16.616       11.228      275.960      276.096      126.079        0.849        0.034      126.635        7.362        0.003      337.300        9.182      867.976
01/16/2015  21:56:00     -116.116       14.371      -12.075       19.128       16.204       11.480      365.894      262.583      131.791        0.730        0.038      117.002        9.646        0.007      337.306        9.192      867.962
01/16/2015  21:57:00     -129.364        7.521      -15.424       24.796       19.865       11.922      614.860      394.612      142.136        0.909        0.058      129.583       11.199        0.007      337.255        9.105      867.953
01/16/2015  21:58:00     -132.859       17.090      -14.618       15.829       23.243       14.529      250.565      540.236      211.097        0.958        0.050      133.954       12.156        0.008      337.235        9.073      867.958
01/16/2015  21:59:00     -119.008        7.105      -14.641       21.040       22.226       12.380      442.679      494.017      153.263        0.776        0.054      119.220        7.370        0.004      337.203        9.019      867.971
01/16/2015  22:00:00     -109.375        6.583      -16.182       25.189       20.043       12.723      634.504      401.708      161.864        0.673        0.060      109.573        8.448        0.006      337.204        9.020      867.995
01/16/2015  22:01:00      -89.897        6.385      -13.656       29.527       30.581       18.708      871.827      935.204      349.998        0.523        0.108       90.123       13.543        0.023      337.151        8.930      868.019
01/16/2015  22:02:00     -110.969      -30.664       -5.639       36.356       32.395       23.339     1321.729     1049.451      544.711        0.810        0.146      115.128       22.243        0.037      337.106        8.856      868.050
01/16/2015  22:03:00     -138.514      -44.304      -15.794       31.447       27.560       21.871      988.933      759.534      478.356        1.181        0.111      145.427       15.675        0.012      337.023        8.715      868.073
01/16/2015  22:04:00     -110.929      -39.422      -10.995       35.653       42.468       26.492     1271.105     1803.542      701.828        0.888        0.189      117.726       21.919        0.035      336.997        8.673      868.095
01/16/2015  22:05:00     -150.274      -33.609      -21.958       41.050       29.415       19.088     1685.077      865.268      364.347        1.355        0.146      153.986       11.406        0.005      336.935        8.568      868.109
01/16/2015  22:06:00     -152.248      -10.112      -19.022       53.206       37.212       24.501     2830.838     1384.759      600.289        1.423        0.241      152.584       26.018        0.029      336.898        8.507      868.114
01/16/2015  22:07:00     -158.847       -1.221      -24.190       27.141       24.022       17.043      736.629      577.077      290.480        1.371        0.080      158.852        4.055        0.001      336.846        8.420      868.111
01/16/2015  22:08:00     -168.257       15.577      -21.983       48.242       38.694       24.018     2327.325     1497.190      576.863        1.672        0.220      168.976       22.311        0.017      336.823        8.382      868.104
01/16/2015  22:09:00     -167.626        9.681      -20.879       45.259       32.765       23.257     2048.357     1073.513      540.870        1.614        0.183      167.905       24.474        0.021      336.819        8.375      868.095
01/16/2015  22:10:00     -184.795       12.914      -27.298       22.346       26.693       16.770      499.363      712.507      281.230        1.828        0.075      185.245       10.717        0.003      336.807        8.358      868.099
01/16/2015  22:11:00     -140.244      -25.796      -20.086       32.379       29.397       20.559     1048.430      864.158      422.676        1.154        0.117      142.596       13.980        0.010      336.809        8.359      868.113
01/16/2015  22:12:00     -102.812      -36.631      -19.920       22.984       27.644       15.123      528.251      764.168      228.693        0.691        0.076      109.143       12.184        0.012      336.806        8.354      868.114
01/16/2015  22:13:00      -78.956       -8.792      -14.257       29.074       32.809       18.376      845.322     1076.411      337.660        0.439        0.113       79.444       17.173        0.047      336.791        8.331      868.109
01/16/2015  22:14:00      -95.257       13.680       -9.568       47.612       31.302       27.664     2266.897      979.809      765.290        0.668        0.201       96.235       31.111        0.105      336.790        8.329      868.113
01/16/2015  22:15:00     -104.081       18.145      -13.381       35.644       32.082       18.398     1270.494     1029.230      338.491        0.699        0.132      105.651       15.623        0.022      336.809        8.361      868.101
01/16/2015  22:16:00      -84.023      -19.634      -11.158       23.408       25.781       14.433      547.937      664.661      208.305        0.450        0.071       86.287       12.050        0.020      336.808        8.358      868.079
01/16/2015  22:17:00     -102.252       22.484      -19.512       29.979       43.548       22.637      898.764     1896.404      512.422        0.732        0.165      104.694       24.506        0.055      336.942        8.584      868.060
01/16/2015  22:18:00      -71.449       -9.694      -11.400       29.661       20.449       15.517      879.760      418.177      240.779        0.343        0.077       72.104       11.795        0.027      336.950        8.593      868.047
01/16/2015  22:19:00      -78.259      -24.927      -14.528       41.653       30.562       26.063     1734.995      934.055      679.300        0.515        0.167       82.133       27.965        0.116      336.872        8.465      868.048
01/16/2015  22:20:00      -89.457      -32.109      -10.625       31.382       29.172       13.043      984.837      850.984      170.118        0.558        0.100       95.045        8.743        0.008      336.809        8.360      868.051
01/16/2015  22:21:00     -109.786      -21.612      -20.088       15.746       24.193       13.115      247.932      585.316      172.006        0.696        0.050      111.893        7.913        0.005      336.804        8.352      868.057
01/16/2015  22:22:00     -106.198      -43.152       -6.766       16.877       20.790       11.285      284.826      432.225      127.352        0.701        0.042      114.630        6.235        0.003      336.795        8.337      868.061
01/16/2015  22:23:00      -83.912      -12.837      -10.357       14.489       15.339       10.988      209.928      235.279      120.727        0.394        0.028       84.888        9.036        0.011      336.799        8.343      868.069
01/16/2015  22:24:00      -69.905      -35.786        0.386       20.122       17.383       12.182      404.914      302.153      148.403        0.351        0.043       78.533        8.546        0.012      336.767        8.290      868.079
01/16/2015  22:25:00      -92.871      -18.348       -5.946       25.766       17.688       16.206      663.896      312.874      262.620        0.512        0.062       94.666       14.699        0.024      336.754        8.269      868.097
01/16/2015  22:26:00     -100.915      -36.023      -12.286       15.850       15.931       13.891      251.217      253.791      192.957        0.617        0.035      107.152       10.268        0.009      336.798        8.341      868.123
01/16/2015  22:27:00      -76.435      -24.034       -4.874       24.551       15.409       12.784      602.758      237.427      163.435        0.372        0.050       80.125       12.436        0.024      336.767        8.290      868.156
01/16/2015  22:28:00      -79.784       -9.640       -7.106       20.365       14.043        9.323      414.721      197.210       86.913        0.360        0.035       80.364        8.625        0.012      336.796        8.339      868.174
01/16/2015  22:29:00      -68.061       -6.143       -5.321       18.526       19.986       10.481      343.198      399.459      109.850        0.278        0.043       68.338        9.827        0.021      336.833        8.401      868.170
01/16/2015  22:30:00      -41.226       -2.392       -5.217       16.528       17.049        9.130      273.159      290.662       83.350        0.119        0.032       41.296        6.514        0.025      336.881        8.480      868.174
01/16/2015  22:31:00      -52.393       28.982       -9.391       26.253       33.782       18.486      689.243     1141.220      341.749        0.292        0.109       59.874       20.054        0.112      336.956        8.602      868.192
01/16/2015  22:32:00      -65.450       29.021      -20.653       11.870       21.362       11.007      140.891      456.333      121.148        0.314        0.036       71.595        6.645        0.009      336.923        8.549      868.222
01/16/2015  22:33:00      -57.054       30.198      -12.979       14.262       19.430       11.904      203.411      377.520      141.708        0.253        0.036       64.553        4.763        0.005      336.917        8.539      868.250
01/16/2015  22:34:00      -62.228       25.985      -10.300       14.321       20.059       14.816      205.088      402.347      219.522        0.274        0.041       67.435        5.337        0.006      336.945        8.587      868.287
01/16/2015  22:35:00      -62.862       -5.987      -10.101       20.306       18.894       12.994      412.315      356.977      168.832        0.251        0.047       63.146       10.165        0.026      336.793        8.334      868.320
01/16/2015  22:36:00      -54.755       -0.074      -10.212       22.643       36.997       14.277      512.706     1368.776      203.825        0.259        0.104       54.755       10.219        0.035      336.751        8.265      868.352
01/16/2015  22:37:00      -46.794       -5.631       -4.496       25.810       23.817       14.941      666.139      567.249      223.229        0.185        0.073       47.132        5.607        0.014      336.704        8.186      868.367
01/16/2015  22:38:00      -75.226        0.122       -7.319       39.127       23.408       18.748     1530.953      547.939      351.504        0.407        0.122       75.226       22.743        0.091      336.614        8.035      868.364
01/16/2015  22:39:00      -39.271       -1.358      -13.544       26.845       24.701       10.171      720.670      610.138      103.441        0.158        0.072       39.294        5.286        0.018      336.775        8.304      868.352
01/16/2015  22:40:00      -50.212        9.261      -14.546       24.348       16.843       11.343      592.805      283.672      128.656        0.191        0.050       51.059       13.035        0.065      336.755        8.271      868.348
01/16/2015  22:41:00      -50.690       -2.368       -6.589       22.186       22.010       11.544      492.237      484.438      133.262        0.186        0.055       50.745       11.227        0.049      336.714        8.204      868.342
01/16/2015  22:42:00      -45.028       16.514      -10.514       18.538       23.553       10.710      343.649      554.747      114.708        0.171        0.051       47.961        9.103        0.036      336.809        8.361      868.346
01/16/2015  22:43:00      -45.130       24.870      -12.025       17.979       20.788       10.215      323.239      432.136      104.344        0.183        0.043       51.529        7.755        0.023      336.892        8.499      868.352
01/16/2015  22:44:00      -24.250       -0.760       -9.062       23.922       23.778       11.812      572.243      565.390      139.521        0.097        0.064       24.262        9.727        0.161      336.873        8.467      868.361
01/16/2015  22:45:00      -71.739       43.154      -20.620       20.654       21.629        9.437      426.602      467.810       89.055        0.421        0.049       83.718       11.387        0.018      336.897        8.505      868.368
01/16/2015  22:46:00      -59.361       29.887       -7.705       17.912       22.334       15.444      320.841      498.806      238.530        0.277        0.053       66.461       13.754        0.043      336.918        8.542      868.373
01/16/2015  22:47:00      -29.258        1.461        0.163       15.311       16.659       14.491      234.422      277.517      209.981        0.079        0.036       29.294        9.347        0.102      336.828        8.391      868.381
01/16/2015  22:48:00      -45.913       -7.576      -12.234       16.624       17.681       10.640      276.345      312.622      113.215        0.151        0.035       46.534        7.588        0.027      336.727        8.224      868.407
01/16/2015  22:49:00      -55.962      -15.248      -12.618       16.690       17.045       12.830      278.556      290.549      164.600        0.213        0.037       58.003        5.608        0.009      336.701        8.181      868.431
01/16/2015  22:50:00      -75.154        4.174      -11.109       31.206       26.351       18.862      973.789      694.380      355.780        0.391        0.101       75.270       18.337        0.059      336.769        8.295      868.460
01/16/2015  22:51:00      -69.971        1.611       -6.073       29.504       22.896       19.832      870.496      524.227      393.311        0.336        0.089       69.990       16.309        0.054      336.685        8.153      868.473
01/16/2015  22:52:00      -56.548       19.803       -3.790       42.034       27.410       18.274     1766.880      751.310      333.956        0.323        0.143       59.916       13.663        0.052      336.655        8.102      868.468
01/16/2015  22:53:00      -33.715       13.364       -2.404       32.860       39.596       18.759     1079.811     1567.836      351.903        0.216        0.150       36.267       17.058        0.221      336.788        8.324      868.454
01/16/2015  22:54:00      -47.592       24.509      -15.198       33.830       44.549       17.773     1144.450     1984.583      315.893        0.327        0.172       53.533       20.868        0.152      336.610        8.030      868.442
01/16/2015  22:55:00      -70.197       19.386      -11.512       25.626       29.029       14.948      656.698      842.710      223.457        0.358        0.086       72.825       13.269        0.033      336.533        7.900      868.430
01/16/2015  22:56:00      -73.198       -5.132      -15.925       24.256       24.292       15.240      588.339      590.106      232.271        0.352        0.071       73.378       12.545        0.029      336.552        7.932      868.425
01/16/2015  22:57:00      -73.473       -3.232      -17.829       23.141       24.532       16.163      535.528      601.812      261.258        0.356        0.070       73.544       13.278        0.033      336.548        7.924      868.418
01/16/2015  22:58:00     -106.705       -2.957      -17.340       33.873       23.102       16.394     1147.376      533.706      268.777        0.682        0.097      106.746       16.921        0.025      336.565        7.952      868.414
01/16/2015  22:59:00      -66.651       -7.496       -1.072       41.540       26.241       21.843     1725.580      688.615      477.097        0.370        0.145       67.072       20.499        0.093      336.571        7.963      868.425
01/16/2015  23:00:00      -97.159       -5.448       -5.496       38.587       30.464       21.155     1488.948      928.062      447.514        0.618        0.143       97.312       18.524        0.036      336.509        7.858      868.435
01/16/2015  23:01:00     -115.178       -7.022       -8.865       41.121       32.951       21.612     1690.905     1085.766      467.086        0.832        0.162      115.392       21.527        0.035      336.490        7.828      868.442
01/16/2015  23:02:00      -83.558       -0.736       -7.307       45.159       42.324       18.604     2039.305     1791.330      346.116        0.561        0.209       83.561       16.931        0.041      336.465        7.785      868.435
01/16/2015  23:03:00     -120.726       23.565      -12.387       46.503       26.770       21.001     2162.522      716.650      441.055        0.930        0.166      123.005       18.166        0.022      336.497        7.838      868.434
01/16/2015  23:04:00      -76.863       32.919      -11.328       32.504       27.104       16.516     1056.534      734.650      272.787        0.459        0.103       83.616       16.316        0.038      336.515        7.869      868.448
01/16/2015  23:05:00      -87.309        1.471      -10.783       29.785       17.552       16.670      887.153      308.075      277.875        0.461        0.074       87.321       14.795        0.029      336.559        7.944      868.449
01/16/2015  23:06:00      -37.677        4.166        0.126       27.745       26.399       17.867      769.809      696.894      319.214        0.161        0.089       37.907       15.830        0.174      336.591        7.997      868.445
01/16/2015  23:07:00      -88.432       24.108       -8.277       30.500       23.316       14.608      930.272      543.632      213.390        0.508        0.084       91.660        4.925        0.003      336.569        7.958      868.449
01/16/2015  23:08:00      -76.757       15.357      -10.940       29.420       28.539       15.799      865.543      814.494      249.596        0.409        0.096       78.278       12.790        0.027      336.631        8.064      868.455
01/16/2015  23:09:00     -108.845       14.996      -16.527       43.873       30.754       16.550     1924.826      945.827      273.904        0.774        0.157      109.873       16.714        0.023      336.576        7.972      868.468
01/16/2015  23:10:00      -59.571        7.398       -8.507       33.697       18.999       21.680     1135.514      360.974      470.033        0.282        0.098       60.029       15.332        0.065      336.701        8.181      868.489
01/16/2015  23:11:00      -59.907       13.313      -11.720       25.700       30.569       21.043      660.506      934.483      442.797        0.297        0.102       61.369       15.332        0.062      336.761        8.280      868.509
01/16/2015  23:12:00      -75.752       52.326      -23.970       27.957       37.499       15.741      781.567     1406.169      247.769        0.574        0.122       92.067       11.048        0.014      336.842        8.415      868.520
01/16/2015  23:13:00      -67.675       42.371      -22.059       37.066       41.178       24.873     1373.889     1695.637      618.645        0.527        0.184       79.845       14.816        0.034      336.858        8.443      868.498
01/16/2015  23:14:00      -89.319       71.333      -20.026       34.781       39.995       24.070     1209.738     1599.588      579.344        0.843        0.169      114.308       19.505        0.029      336.966        8.622      868.464
01/16/2015  23:15:00      -91.671       82.516      -24.983       24.053       32.187       18.768      578.551     1036.012      352.244        0.890        0.098      123.338        9.906        0.006      336.999        8.676      868.427
01/16/2015  23:16:00      -88.964       91.153      -18.797       30.646       33.697       22.248      939.196     1135.501      494.972        0.957        0.128      127.371       21.446        0.028      337.027        8.723      868.397
01/16/2015  23:17:00      -72.488       77.860      -19.143       22.956       26.205       17.357      526.961      686.720      301.270        0.660        0.076      106.379       17.466        0.027      337.087        8.824      868.385
01/16/2015  23:18:00      -75.164       53.743      -13.041       24.477       31.017       18.103      599.127      962.039      327.723        0.530        0.094       92.401       19.045        0.042      337.040        8.747      868.386
01/16/2015  23:19:00      -74.628       75.258      -19.837       19.332       18.854       12.217      373.732      355.484      149.245        0.625        0.044      105.986       10.223        0.009      337.107        8.856      868.390
01/16/2015  23:20:00      -63.613       56.947      -12.085       21.694       21.346       13.482      470.645      455.637      181.767        0.427        0.055       85.379       12.730        0.022      337.044        8.753      868.401
01/16/2015  23:21:00      -65.111       72.172      -16.249       21.833       28.701       15.868      476.691      823.747      251.782        0.563        0.078       97.203       16.562        0.029      337.137        8.907      868.422
01/16/2015  23:22:00      -41.723       66.250       -5.657       21.081       30.398       15.650      444.408      924.045      244.931        0.389        0.081       78.293       15.559        0.039      337.168        8.959      868.432
01/16/2015  23:23:00      -22.722       78.066       -3.444       29.637       37.829       14.303      878.345     1431.056      204.586        0.457        0.126       81.306       15.384        0.036      337.291        9.164      868.437
01/16/2015  23:24:00      -50.630       66.248      -13.956       22.833       21.424       14.009      521.324      458.978      196.251        0.416        0.059       83.380       14.133        0.029      337.191        8.999      868.431
01/16/2015  23:25:00      -59.556       55.478      -12.224       18.789       26.001       13.940      353.039      676.052      194.316        0.400        0.061       81.392       13.180        0.026      337.135        8.903      868.425
01/16/2015  23:26:00      -53.441       33.351       -9.595       11.049       17.702       10.597      122.070      313.374      112.298        0.230        0.027       62.994        6.984        0.012      337.120        8.879      868.428
01/16/2015  23:27:00      -70.549       26.491       -9.521       25.520       36.305       19.907      651.283     1318.030      396.295        0.407        0.118       75.359       21.393        0.081      337.107        8.858      868.430
01/16/2015  23:28:00      -83.861       47.332      -18.748       20.834       20.697       16.309      434.064      428.357      265.989        0.538        0.056       96.296        9.160        0.009      337.120        8.879      868.441
01/16/2015  23:29:00      -72.970       15.128      -11.482       20.396       31.589       16.763      415.978      997.851      281.008        0.369        0.085       74.521       11.412        0.023      337.083        8.815      868.458
01/16/2015  23:30:00      -34.462       -0.057       -6.400       15.188       21.633       12.056      230.682      467.979      145.340        0.104        0.042       34.462       10.806        0.098      337.014        8.701      868.484
01/16/2015  23:31:00      -32.967       10.447       -6.720       13.202       14.654       11.057      174.286      214.741      122.255        0.088        0.026       34.583        8.615        0.062      337.032        8.730      868.491
01/16/2015  23:32:00      -54.245      -14.162      -10.725       13.552       12.569       10.382      183.667      157.979      107.778        0.185        0.022       56.064        8.345        0.022      336.986        8.655      868.500
01/16/2015  23:33:00      -32.475       -8.094       -1.926       15.977       15.114        6.859      255.271      228.432       47.050        0.083        0.027       33.469        5.727        0.029      336.982        8.648      868.506
01/16/2015  23:34:00      -41.339       -0.340       -6.219       19.267       13.099       12.502      371.199      171.584      156.288        0.122        0.035       41.341       10.404        0.063      337.047        8.755      868.499
01/16/2015  23:35:00      -41.469        3.368       -4.706       14.501       11.650        7.696      210.288      135.730       59.231        0.108        0.020       41.605        6.033        0.021      337.005        8.687      868.480
01/16/2015  23:36:00      -45.735        0.826       -7.986       14.756       13.389        7.113      217.745      179.264       50.593        0.130        0.022       45.742        7.375        0.026      337.023        8.716      868.471
01/16/2015  23:37:00      -30.985      -13.009       -3.272       11.106       10.612        8.212      123.349      112.611       67.440        0.072        0.015       33.605        4.021        0.014      337.005        8.685      868.458
01/16/2015  23:38:00      -30.042      -19.245        1.184       15.154        9.964        9.774      229.638       99.288       95.529        0.085        0.021       35.677        8.750        0.060      336.971        8.629      868.435
01/16/2015  23:39:00      -30.392      -24.077        2.249       18.460       10.659       10.704      340.779      113.622      114.584        0.104        0.028       38.773       10.061        0.067      336.976        8.636      868.410
01/16/2015  23:40:00      -54.469      -33.327       -2.931       17.556       14.804       11.235      308.203      219.155      126.236        0.237        0.033       63.856        2.858        0.002      336.951        8.595      868.375
01/16/2015  23:41:00      -22.986      -20.437        5.593       26.189       16.573       12.811      685.859      274.672      164.132        0.105        0.056       30.758        8.274        0.072      336.939        8.575      868.343
01/16/2015  23:42:00      -45.111      -30.276        6.131       34.986       11.523       11.802     1224.002      132.777      139.287        0.224        0.075       54.329       12.805        0.056      336.965        8.620      868.306
01/16/2015  23:43:00      -14.731      -25.104        3.619       22.816       11.499       12.142      520.547      132.231      147.440        0.083        0.040       29.107       12.597        0.187      337.026        8.721      868.262
01/16/2015  23:44:00       -6.513       -6.370        4.131       16.662       12.695       10.674      277.609      161.155      113.935        0.033        0.028        9.110       11.368        1.557      337.040        8.746      868.229
01/16/2015  23:45:00       -5.728        2.551        4.969        9.232        6.383        6.133       85.235       40.738       37.613        0.011        0.008        6.271        6.366        1.031      337.022        8.714      868.198
01/16/2015  23:46:00      -19.488      -14.420       -1.450       11.030       10.292        7.208      121.658      105.933       51.955        0.043        0.014       24.243        7.091        0.086      337.028        8.727      868.205
01/16/2015  23:47:00      -41.572      -18.807       -5.443        5.719        4.922        5.775       32.708       24.230       33.350        0.110        0.005       45.628        2.253        0.002      336.977        8.638      868.222
01/16/2015  23:48:00      -51.447      -31.777       -3.697       13.803        9.913        6.485      190.521       98.266       42.049        0.200        0.017       60.469        2.201        0.001      336.986        8.654      868.265
01/16/2015  23:49:00      -49.114      -25.699        4.128       18.270       17.783       12.700      333.791      316.245      161.300        0.195        0.041       55.432       12.031        0.047      336.966        8.622      868.297
01/16/2015  23:50:00      -69.750      -26.846        0.219       20.171       11.434        9.620      406.869      130.745       92.537        0.311        0.032       74.738        8.631        0.013      336.955        8.602      868.305
01/16/2015  23:51:00      -76.103      -31.701       -3.382       19.377       14.093        9.826      375.467      198.615       96.559        0.374        0.034       82.441        7.872        0.009      336.964        8.617      868.307
01/16/2015  23:52:00      -70.666      -40.887        4.195       20.596       21.738       14.497      424.196      472.559      210.177        0.389        0.055       81.642       10.495        0.017      336.924        8.550      868.302
01/16/2015  23:53:00      -50.422      -20.085        3.297       26.511       17.589       14.921      702.846      309.357      222.648        0.210        0.062       54.275        4.087        0.006      336.913        8.534      868.299
01/16/2015  23:54:00      -26.558      -20.466        7.529       22.148       15.099       11.830      490.524      227.989      139.941        0.102        0.043       33.529       11.164        0.111      336.951        8.597      868.293
01/16/2015  23:55:00      -55.785      -32.250        1.161       12.608       12.142       10.018      158.971      147.428      100.353        0.228        0.020       64.437        7.130        0.012      336.914        8.536      868.284
01/16/2015  23:56:00      -55.619      -22.471       -4.421       12.820       10.032       10.353      164.363      100.632      107.191        0.200        0.019       59.987        8.221        0.019      336.887        8.493      868.271
01/16/2015  23:57:00      -65.410      -29.679       -4.699       10.253        5.764        5.479      105.116       33.219       30.023        0.267        0.008       71.828        3.174        0.002      336.903        8.521      868.271
01/16/2015  23:58:00      -45.434       -0.264       -4.416       23.436       14.980        6.421      549.228      224.390       41.228        0.145        0.041       45.434        7.424        0.027      336.885        8.488      868.278
01/16/2015  23:59:00      -32.374        9.139       -1.320       16.050       12.873        8.097      257.599      165.722       65.563        0.081        0.024       33.639        6.612        0.039      336.883        8.484      868.275
